[[{"header":{"parameterUnit":"m.s-1","parameterCategory":1,"la1":30.6,"la2":29.2853,"lo1":-89.7004,"lo2":-87.6739,"dy":0.0162,"dx":0.0183,"nx":112,"ny":82,"refTime":"2024-06-01T12:00:00:Z","depth":0,"parameterNumber":2,"parameterNumberName":"U-component_of_WINDS"},"data":[0.0,0.0,0.0,0.0,0.0,0.0,0.0,0.0,0.0,0.0,0.0,0.0,0.0,0.0,0.0,0.0,0.0,0.0,0.0,0.0,0.0,0.0,0.0,0.0,0.0,0.0,0.0,0.0,0.0,0.0,0.0,0.0,0.0,0.0,0.0,0.0,0.0,0.0,0.0,0.0,0.0,0.0,0.0,0.0,0.0,0.0,0.0,0.0,0.0,0.0,0.0,0.0,0.0,0.0,0.0,0.0,0.0,0.0,0.0,0.0,0.0,0.0,0.0,0.0,0.0,0.0,0.0,0.0,0.0,0.0,0.0,0.0,0.0,0.0,0.0,0.0,0.0,0.0,0.0,0.0,0.0,0.0,0.0,0.0,0.0,0.0,0.0,0.0,0.0,0.0,-3.0106,-3.2604,-3.5499,-3.7372,-3.7661,-3.6819,-3.4623,-3.0952,0.0,0.0,0.0,0.0,0.0,0.0,0.0,0.0,0.0,0.0,0.0,0.0,0.0,0.0,0.0,0.0,0.0,0.0,0.0,0.0,0.0,0.0,0.0,0.0,0.0,0.0,0.0,0.0,0.0,0.0,0.0,0.0,0.0,0.0,0.0,0.0,0.0,0.0,0.0,0.0,0.0,0.0,0.0,0.0,0.0,0.0,0.0,0.0,0.0,0.0,0.0,0.0,0.0,0.0,0.0,0.0,0.0,0.0,0.0,0.0,0.0,0.0,0.0,0.0,0.0,0.0,0.0,0.0,0.0,0.0,0.0,0.0,0.0,0.0,0.0,0.0,0.0,0.0,0.0,0.0,0.0,0.0,0.0,0.0,0.0,0.0,0.0,0.0,0.0,0.0,0.0,0.0,0.0,0.0,0.0,0.0,0.0,0.0,0.0,0.0,0.0,0.0,0.0,0.0,-2.9478,-3.4007,-3.6089,-3.6866,-3.6062,-3.5707,-3.406,-3.048,0.0,0.0,0.0,0.0,0.0,0.0,0.0,0.0,0.0,0.0,0.0,0.0,0.0,0.0,0.0,0.0,0.0,0.0,0.0,0.0,0.0,0.0,0.0,0.0,0.0,0.0,0.0,0.0,0.0,0.0,0.0,0.0,0.0,0.0,0.0,0.0,0.0,0.0,0.0,0.0,0.0,0.0,0.0,0.0,0.0,0.0,0.0,0.0,0.0,0.0,0.0,0.0,0.0,0.0,0.0,0.0,0.0,0.0,0.0,0.0,0.0,0.0,0.0,0.0,0.0,0.0,0.0,0.0,0.0,0.0,0.0,0.0,0.0,0.0,0.0,0.0,0.0,0.0,0.0,0.0,0.0,0.0,0.0,0.0,0.0,0.0,0.0,0.0,0.0,0.0,0.0,0.0,0.0,0.0,0.0,0.0,0.0,0.0,0.0,0.0,0.0,0.0,0.0,-2.8473,-3.0113,-3.3946,-3.4692,-3.4868,-3.4693,-3.3779,-3.2032,-2.9237,-2.7365,0.0,0.0,0.0,0.0,0.0,0.0,0.0,0.0,0.0,0.0,0.0,0.0,0.0,0.0,0.0,0.0,0.0,0.0,0.0,0.0,0.0,0.0,0.0,0.0,0.0,0.0,0.0,0.0,0.0,0.0,0.0,0.0,0.0,0.0,0.0,0.0,0.0,0.0,0.0,0.0,0.0,0.0,0.0,0.0,0.0,0.0,0.0,0.0,0.0,0.0,0.0,0.0,0.0,0.0,0.0,0.0,0.0,0.0,0.0,0.0,0.0,0.0,0.0,0.0,0.0,0.0,0.0,0.0,0.0,0.0,0.0,0.0,0.0,0.0,0.0,0.0,0.0,0.0,0.0,0.0,0.0,0.0,0.0,0.0,0.0,0.0,0.0,0.0,0.0,0.0,0.0,0.0,0.0,0.0,0.0,0.0,0.0,0.0,0.0,0.0,0.0,0.0,-2.9842,-3.1085,-3.3458,-3.3332,-3.3257,-3.3671,-3.2051,-3.0181,-2.8235,-2.5787,0.0,0.0,0.0,0.0,0.0,0.0,0.0,0.0,0.0,0.0,0.0,0.0,0.0,0.0,0.0,0.0,0.0,0.0,0.0,0.0,0.0,0.0,0.0,0.0,0.0,0.0,0.0,0.0,0.0,0.0,0.0,0.0,0.0,0.0,0.0,0.0,0.0,0.0,0.0,0.0,0.0,0.0,0.0,0.0,0.0,0.0,0.0,0.0,0.0,0.0,0.0,0.0,0.0,0.0,0.0,0.0,0.0,0.0,0.0,0.0,0.0,0.0,0.0,0.0,0.0,0.0,0.0,0.0,0.0,0.0,0.0,0.0,0.0,0.0,0.0,0.0,0.0,0.0,0.0,0.0,0.0,0.0,0.0,0.0,0.0,0.0,0.0,0.0,0.0,0.0,0.0,0.0,0.0,0.0,0.0,0.0,0.0,0.0,0.0,0.0,0.0,0.0,-3.0018,-3.175,-3.3006,-3.3106,-3.3093,-3.3131,-3.1148,-2.939,-2.8185,-2.5059,0.0,0.0,0.0,0.0,0.0,0.0,0.0,0.0,0.0,0.0,0.0,0.0,0.0,0.0,0.0,0.0,0.0,0.0,0.0,0.0,0.0,0.0,0.0,0.0,0.0,0.0,0.0,0.0,0.0,0.0,0.0,0.0,0.0,0.0,0.0,0.0,0.0,0.0,0.0,0.0,0.0,0.0,0.0,0.0,0.0,0.0,0.0,0.0,0.0,0.0,0.0,0.0,0.0,0.0,0.0,0.0,0.0,0.0,0.0,0.0,0.0,0.0,0.0,0.0,0.0,0.0,0.0,0.0,0.0,0.0,0.0,0.0,0.0,0.0,0.0,0.0,0.0,0.0,0.0,0.0,0.0,0.0,0.0,0.0,0.0,0.0,0.0,0.0,0.0,0.0,0.0,0.0,0.0,0.0,0.0,0.0,0.0,0.0,0.0,0.0,0.0,0.0,-2.9227,-3.1085,0.0,-3.3081,-3.293,-3.2566,-3.1461,-2.988,-2.7733,0.0,0.0,0.0,0.0,0.0,0.0,0.0,0.0,0.0,0.0,0.0,0.0,0.0,0.0,0.0,0.0,0.0,0.0,0.0,0.0,0.0,0.0,0.0,0.0,0.0,0.0,0.0,0.0,0.0,0.0,0.0,0.0,0.0,0.0,0.0,0.0,0.0,0.0,0.0,0.0,0.0,0.0,0.0,0.0,0.0,0.0,0.0,0.0,0.0,0.0,0.0,0.0,0.0,0.0,0.0,0.0,0.0,0.0,0.0,0.0,0.0,0.0,0.0,0.0,0.0,0.0,0.0,0.0,0.0,0.0,0.0,0.0,0.0,0.0,0.0,0.0,0.0,0.0,0.0,0.0,0.0,0.0,0.0,0.0,0.0,0.0,0.0,0.0,0.0,0.0,0.0,0.0,0.0,0.0,0.0,0.0,0.0,0.0,0.0,0.0,0.0,0.0,-2.6942,-2.9051,-3.1009,0.0,-3.3081,-3.2842,-3.2265,-3.1399,-2.9779,-2.718,0.0,0.0,0.0,0.0,0.0,0.0,0.0,0.0,0.0,0.0,0.0,0.0,0.0,0.0,0.0,0.0,0.0,0.0,0.0,0.0,0.0,0.0,0.0,0.0,0.0,0.0,0.0,0.0,0.0,0.0,0.0,0.0,0.0,0.0,0.0,0.0,0.0,0.0,0.0,0.0,0.0,0.0,0.0,0.0,0.0,0.0,0.0,0.0,0.0,0.0,0.0,0.0,0.0,0.0,0.0,0.0,0.0,0.0,0.0,0.0,0.0,0.0,0.0,0.0,0.0,0.0,0.0,0.0,0.0,0.0,0.0,0.0,0.0,0.0,0.0,0.0,0.0,0.0,0.0,0.0,0.0,0.0,0.0,0.0,0.0,0.0,0.0,0.0,0.0,0.0,0.0,0.0,0.0,0.0,0.0,0.0,0.0,0.0,0.0,0.0,0.0,0.0,-2.6992,-2.9679,-3.1825,-3.2955,-3.3081,-3.2842,-3.2252,-3.0733,-2.885,0.0,0.0,0.0,0.0,0.0,0.0,0.0,0.0,0.0,0.0,0.0,0.0,0.0,0.0,0.0,0.0,0.0,0.0,0.0,0.0,0.0,0.0,0.0,0.0,0.0,0.0,0.0,0.0,0.0,0.0,0.0,0.0,0.0,0.0,0.0,0.0,0.0,0.0,0.0,0.0,0.0,0.0,0.0,0.0,0.0,0.0,0.0,0.0,0.0,0.0,0.0,0.0,0.0,0.0,0.0,0.0,0.0,0.0,0.0,0.0,0.0,0.0,0.0,0.0,0.0,0.0,0.0,0.0,0.0,0.0,0.0,0.0,0.0,0.0,0.0,0.0,0.0,0.0,0.0,0.0,0.0,0.0,0.0,0.0,0.0,0.0,0.0,0.0,0.0,0.0,0.0,0.0,0.0,0.0,0.0,0.0,0.0,0.0,0.0,0.0,0.0,0.0,0.0,-2.6465,-2.9453,-3.1825,-3.2955,-3.3081,-3.2679,-3.1712,-3.1198,-2.9465,-2.6063,0.0,0.0,0.0,0.0,0.0,0.0,0.0,0.0,0.0,0.0,0.0,0.0,0.0,0.0,0.0,0.0,0.0,0.0,0.0,0.0,0.0,0.0,0.0,0.0,0.0,0.0,0.0,0.0,0.0,0.0,0.0,0.0,0.0,0.0,0.0,0.0,0.0,0.0,0.0,0.0,0.0,0.0,0.0,0.0,0.0,0.0,0.0,0.0,0.0,0.0,0.0,0.0,0.0,0.0,0.0,0.0,0.0,0.0,0.0,0.0,0.0,0.0,0.0,0.0,0.0,0.0,0.0,0.0,0.0,0.0,0.0,0.0,0.0,0.0,0.0,0.0,0.0,0.0,0.0,0.0,0.0,0.0,0.0,0.0,0.0,0.0,0.0,0.0,0.0,0.0,0.0,0.0,0.0,0.0,0.0,0.0,0.0,0.0,0.0,0.0,0.0,0.0,-2.6214,-2.934,-3.1738,-3.2641,-3.2943,-3.2616,-3.1486,-3.1386,-2.9729,-2.5837,0.0,0.0,0.0,0.0,0.0,0.0,0.0,0.0,0.0,0.0,0.0,0.0,0.0,0.0,0.0,0.0,0.0,0.0,0.0,0.0,0.0,0.0,0.0,0.0,0.0,0.0,0.0,0.0,0.0,0.0,0.0,0.0,0.0,0.0,0.0,0.0,0.0,0.0,0.0,0.0,0.0,0.0,0.0,0.0,0.0,0.0,0.0,0.0,0.0,0.0,0.0,0.0,0.0,0.0,0.0,0.0,0.0,0.0,0.0,0.0,0.0,0.0,0.0,0.0,0.0,0.0,0.0,0.0,0.0,0.0,0.0,0.0,0.0,0.0,0.0,0.0,0.0,0.0,0.0,0.0,0.0,0.0,0.0,0.0,0.0,0.0,0.0,0.0,0.0,0.0,0.0,0.0,0.0,0.0,0.0,0.0,0.0,0.0,0.0,0.0,0.0,0.0,-2.6176,-2.934,-3.1599,-3.2152,-3.2729,-3.2616,-3.1486,-3.1386,-2.9779,-2.5988,0.0,0.0,0.0,0.0,0.0,0.0,0.0,0.0,0.0,0.0,0.0,0.0,0.0,0.0,0.0,0.0,0.0,0.0,0.0,0.0,0.0,0.0,0.0,0.0,0.0,0.0,0.0,0.0,0.0,0.0,0.0,0.0,0.0,0.0,0.0,0.0,0.0,0.0,0.0,0.0,0.0,0.0,0.0,0.0,0.0,0.0,0.0,0.0,0.0,0.0,0.0,0.0,0.0,0.0,0.0,0.0,0.0,0.0,0.0,0.0,-3.1241,0.0,0.0,0.0,0.0,0.0,0.0,0.0,0.0,0.0,0.0,0.0,0.0,0.0,0.0,0.0,0.0,0.0,0.0,0.0,0.0,0.0,0.0,0.0,0.0,0.0,0.0,0.0,0.0,0.0,0.0,0.0,0.0,0.0,0.0,0.0,0.0,0.0,0.0,0.0,0.0,0.0,-2.6294,-2.934,-3.1599,-3.2152,-3.2729,-3.2616,-3.1486,-3.1386,-3.0118,-2.7118,-2.5485,0.0,0.0,0.0,0.0,0.0,0.0,0.0,0.0,0.0,0.0,0.0,0.0,0.0,0.0,0.0,0.0,0.0,0.0,0.0,0.0,0.0,0.0,0.0,0.0,0.0,0.0,0.0,0.0,0.0,0.0,0.0,0.0,0.0,0.0,0.0,0.0,0.0,0.0,0.0,0.0,0.0,0.0,0.0,0.0,0.0,0.0,0.0,0.0,0.0,0.0,0.0,0.0,0.0,0.0,0.0,0.0,0.0,0.0,0.0,0.0,-3.3203,0.0,0.0,0.0,0.0,0.0,0.0,0.0,0.0,0.0,0.0,0.0,0.0,0.0,0.0,0.0,0.0,0.0,0.0,0.0,0.0,0.0,0.0,0.0,0.0,0.0,0.0,0.0,0.0,0.0,0.0,0.0,0.0,0.0,0.0,0.0,0.0,0.0,0.0,0.0,0.0,-2.6967,-2.9679,-3.1599,-3.2152,-3.2478,-3.2315,-3.1461,-3.116,-3.0068,-2.7821,-2.6628,0.0,0.0,0.0,0.0,0.0,0.0,0.0,0.0,0.0,0.0,0.0,0.0,0.0,0.0,0.0,0.0,0.0,0.0,0.0,0.0,0.0,0.0,0.0,0.0,0.0,0.0,0.0,0.0,0.0,0.0,0.0,0.0,0.0,0.0,0.0,0.0,0.0,0.0,0.0,0.0,0.0,0.0,0.0,0.0,0.0,0.0,0.0,0.0,0.0,0.0,0.0,0.0,0.0,0.0,0.0,-3.9089,-3.9698,-3.9969,-3.9834,-3.733,-3.6671,-3.7195,0.0,0.0,0.0,0.0,0.0,0.0,0.0,0.0,0.0,0.0,0.0,0.0,0.0,0.0,0.0,0.0,0.0,0.0,0.0,0.0,0.0,0.0,0.0,0.0,0.0,-3.2549,-3.2096,0.0,0.0,0.0,0.0,0.0,0.0,0.0,0.0,0.0,0.0,0.0,0.0,-2.7908,-3.008,-3.1599,-3.2152,-3.2215,-3.1989,-3.1436,-3.0922,-2.998,-2.8499,-2.7783,-2.6615,0.0,0.0,0.0,0.0,0.0,0.0,0.0,0.0,0.0,0.0,0.0,0.0,0.0,0.0,0.0,0.0,0.0,0.0,0.0,0.0,0.0,0.0,0.0,0.0,0.0,0.0,0.0,0.0,0.0,0.0,0.0,0.0,-2.5575,-2.7063,0.0,0.0,0.0,0.0,0.0,0.0,0.0,0.0,0.0,0.0,0.0,0.0,0.0,0.0,-3.8244,-4.0358,-4.1407,-4.1441,-4.2963,-4.3707,-4.3707,-4.3792,-4.3842,-4.3826,-4.342,0.0,-3.9563,-3.8633,0.0,0.0,0.0,0.0,0.0,0.0,0.0,0.0,0.0,0.0,0.0,0.0,0.0,0.0,0.0,0.0,0.0,0.0,0.0,0.0,0.0,0.0,-3.5993,-3.5363,-3.5368,-3.4695,0.0,-2.8633,-2.581,-2.3953,0.0,0.0,0.0,0.0,0.0,0.0,0.0,0.0,-2.8524,-3.0319,-3.1599,-3.2152,-3.2215,-3.1989,-3.1436,-3.0922,-3.0319,-2.9616,-2.8574,-2.7858,-2.7582,-2.5197,0.0,0.0,0.0,0.0,0.0,0.0,0.0,0.0,0.0,0.0,0.0,0.0,0.0,0.0,0.0,0.0,0.0,0.0,0.0,0.0,0.0,0.0,0.0,0.0,0.0,0.0,0.0,0.0,0.0,-2.5828,-2.774,-2.8399,-2.8924,-2.9059,0.0,0.0,0.0,0.0,0.0,0.0,0.0,0.0,0.0,-3.8667,-3.9478,-4.0612,-4.2117,-4.3521,-4.4215,-4.4215,-4.5314,-4.5821,-4.5821,-4.5821,-4.5821,-4.5821,-4.5821,-4.5077,-4.369,-4.1677,-4.0223,-3.9106,0.0,0.0,0.0,0.0,0.0,0.0,-3.4287,0.0,0.0,0.0,0.0,0.0,0.0,0.0,0.0,0.0,0.0,0.0,0.0,0.0,0.0,-3.5875,-3.5812,-3.5335,-3.2683,-3.0836,-2.9026,0.0,-2.585,-2.4996,-2.3514,0.0,0.0,0.0,0.0,0.0,-2.9164,-3.057,-3.1486,-3.1725,-3.175,-3.1537,-3.0997,-3.047,-3.0043,-2.9804,-2.9327,-2.8913,-2.8586,-2.7118,-2.5498,0.0,0.0,0.0,0.0,0.0,0.0,0.0,0.0,0.0,0.0,0.0,0.0,0.0,0.0,0.0,0.0,0.0,0.0,0.0,0.0,0.0,0.0,0.0,0.0,0.0,0.0,0.0,0.0,-2.7861,-2.9827,-3.0537,-3.1647,-3.2036,0.0,0.0,0.0,0.0,0.0,0.0,-3.7246,-3.7872,-3.9462,-4.2269,-4.3064,-4.4079,-4.5415,-4.6363,-4.6836,-4.6836,-4.7564,-4.7936,-4.7936,-4.7936,-4.7817,-4.7631,-4.7631,-4.753,-4.7141,-4.4316,-4.2844,-4.2219,-4.0933,-3.9833,0.0,-3.8843,-3.8185,-3.7435,-3.7782,-3.7629,-3.7075,-3.6073,0.0,-3.3978,-3.2482,0.0,0.0,0.0,0.0,-3.5504,-3.6671,0.0,-3.7579,-3.5906,-3.5658,-3.5224,-3.2911,-3.2315,-3.1562,0.0,-2.8511,-2.757,-2.5787,0.0,0.0,0.0,0.0,-2.8147,-2.9967,-3.0783,-3.1298,-3.1574,-3.1348,-3.1035,-3.0645,-3.0118,-2.9792,-2.9792,-2.9792,-2.9603,-2.9164,-2.8612,-2.7344,-2.5285,0.0,0.0,0.0,0.0,0.0,0.0,0.0,0.0,0.0,0.0,0.0,0.0,0.0,0.0,0.0,0.0,0.0,0.0,0.0,0.0,0.0,0.0,0.0,0.0,0.0,0.0,0.0,0.0,0.0,-3.4656,-3.5224,0.0,0.0,0.0,0.0,-3.6451,-3.7872,-3.9665,-4.1847,-4.1999,-4.3081,-4.5415,-4.6194,-4.6955,-4.775,-4.9154,-4.9864,-4.9881,-5.0642,-5.0997,-5.0997,-5.0997,-5.0608,-4.9915,-4.9915,-4.9543,-4.8714,-4.6464,-4.5517,-4.5399,-4.4604,-4.4265,-4.399,-4.2402,-4.1757,-4.1485,-3.9868,-3.9305,-3.926,-3.92,-3.7883,-3.6312,-3.6207,-3.5744,0.0,0.0,-3.6761,-3.7419,-3.8108,-3.7577,-3.6756,-3.6253,-3.5413,-3.4498,-3.3275,-3.2604,-3.2014,0.0,-3.0796,-3.0244,-2.9616,0.0,-2.8122,-2.8649,-2.8348,-2.885,-3.1035,-3.0922,-3.1047,-3.2064,-3.126,-3.0645,-3.062,-3.0118,-2.9792,-2.9792,-2.9792,-2.9779,-2.9754,-2.9202,-2.8097,-2.6483,-2.4757,0.0,0.0,0.0,0.0,0.0,0.0,0.0,0.0,0.0,0.0,0.0,0.0,0.0,0.0,0.0,0.0,0.0,0.0,0.0,0.0,0.0,0.0,0.0,0.0,0.0,0.0,0.0,0.0,-3.6723,-3.7878,0.0,-3.8108,-3.9191,-4.002,-4.0307,-4.1728,-4.3149,-4.4418,-4.4485,-4.5517,-4.775,-4.8088,-4.8798,-5.0033,-5.0557,-5.0811,-5.0811,-5.1082,-5.1217,-5.1217,-5.1217,-5.1065,-5.0811,-5.0811,-5.0676,-5.0371,-4.9576,-4.8409,-4.7056,-4.6295,-4.5665,-4.4998,-4.3816,-4.2956,-4.2287,-4.1079,-4.0681,-4.0606,-4.0187,-3.9574,-3.8931,-3.8497,-3.8212,-3.8167,-3.8811,-3.9155,-3.9484,-4.0142,-3.9501,-3.8425,-3.7588,-3.6291,-3.4894,-3.3844,-3.3169,-3.2704,-3.2516,-3.1738,-3.0834,-2.9942,-3.003,-3.0043,-2.9553,-2.9905,-3.0507,-3.1286,-3.1537,-3.1524,-3.1223,-3.1148,-3.0834,-3.0143,-2.9905,-2.9792,-2.9792,-2.9792,-2.9792,-2.9792,-2.9239,-2.8486,-2.7544,-2.5875,-2.343,0.0,0.0,0.0,0.0,0.0,0.0,0.0,0.0,0.0,0.0,0.0,0.0,0.0,0.0,0.0,0.0,0.0,0.0,0.0,0.0,0.0,0.0,0.0,0.0,0.0,0.0,-3.6903,-3.8359,-4.0086,-4.1102,-4.0849,-4.2405,-4.3436,-4.3436,-4.4604,-4.5754,-4.6769,-4.6819,-4.7716,-4.9695,-4.9982,-5.0591,-5.1572,-5.186,-5.1995,-5.1995,-5.1995,-5.1995,-5.1995,-5.1995,-5.1843,-5.1589,-5.1589,-5.1454,-5.1217,-5.1217,-5.0355,-4.8951,-4.8189,-4.7194,-4.6027,-4.5153,-4.4204,-4.3245,-4.2395,-4.1893,-4.1639,-4.1205,-4.0905,-4.0651,-4.0217,-4.0083,-4.0172,-4.0606,-4.0726,-4.0831,-4.1265,-4.0217,-3.8883,-3.8214,-3.6588,-3.5037,-3.4111,-3.3608,-3.3307,-3.3119,-3.2466,-3.1662,-3.0771,-3.1198,-3.1361,-3.047,-3.0934,-3.1461,-3.165,-3.1825,-3.1738,-3.121,-3.1135,-3.0834,-3.0131,-2.9892,-2.9792,-2.9792,-2.9792,-2.9792,-2.9792,-2.8909,-2.8187,-2.7631,-2.5399,-2.3034,-2.0375,0.0,0.0,0.0,0.0,0.0,0.0,0.0,0.0,0.0,0.0,0.0,0.0,0.0,0.0,0.0,0.0,0.0,0.0,0.0,0.0,0.0,0.0,0.0,-3.4229,-3.642,-3.8401,-3.9646,-4.1921,-4.3183,-4.2472,-4.4451,-4.5788,-4.5805,-4.6481,-4.753,-4.8984,-4.9069,-4.9746,-5.12,-5.1944,-5.2317,-5.2334,-5.3112,-5.3501,-5.3501,-5.3501,-5.3501,-5.3501,-5.3501,-5.3078,-5.2334,-5.2334,-5.1944,-5.1285,-5.1285,-5.1268,-5.1183,-5.0422,-4.9038,-4.7489,-4.6555,-4.5577,-4.4586,-4.363,-4.2925,-4.2387,-4.2387,-4.1968,-4.1444,-4.1444,-4.1444,-4.1444,-4.1444,-4.1444,-4.1444,-4.1444,-3.9773,-3.8104,-3.802,-3.6345,-3.46,-3.406,-3.3922,-3.3746,-3.3206,-3.3081,-3.2893,-3.234,-3.224,-3.2051,-3.1524,-3.1436,0.0,-3.2177,-3.1763,-3.1637,-3.2152,-3.1286,-3.0658,-3.062,-3.0118,-2.9817,-2.9792,-2.9792,-2.9792,-2.9792,-2.8346,-2.7239,-2.6614,-2.3424,-2.1387,-2.0623,0.0,0.0,0.0,0.0,0.0,0.0,0.0,0.0,0.0,0.0,0.0,0.0,0.0,0.0,0.0,0.0,0.0,0.0,0.0,0.0,0.0,0.0,-3.6004,-3.6414,-3.8235,-4.0002,-4.1393,-4.3172,-4.4401,-4.4739,-4.6312,-4.753,-4.8054,-4.8781,-4.9593,-5.0557,-5.0608,-5.1048,-5.1978,-5.2198,-5.2587,-5.3162,-5.3399,-5.3501,-5.3501,-5.3501,-5.3501,-5.3501,-5.3501,-5.3382,-5.3179,-5.3179,-5.3061,-5.2875,-5.2875,-5.252,-5.1862,-5.0393,-4.88,-4.7242,-4.6213,-4.4971,-4.3693,-4.3409,-4.321,-4.306,-4.306,-4.294,-4.2791,-4.2791,-4.2791,-4.2791,-4.2791,-4.2791,-4.2619,-4.1763,-4.0489,-3.9216,-3.8242,-3.6638,-3.5278,-3.5127,-3.4462,-3.3859,-3.3709,-3.3357,-3.3031,-3.2867,-3.2842,-3.278,-3.2629,0.0,0.0,-3.2817,-3.2704,-3.2503,-3.224,-3.1951,-3.1461,-3.0683,-3.047,-3.0218,-2.9817,-2.9792,-2.9792,-2.9792,-2.8986,-2.7885,-2.6574,-2.4288,-2.2512,0.0,0.0,0.0,0.0,0.0,0.0,0.0,0.0,0.0,0.0,0.0,0.0,0.0,0.0,0.0,0.0,0.0,0.0,0.0,0.0,0.0,0.0,-3.6417,-3.8357,-3.8849,-4.0119,-4.1559,-4.3064,-4.4587,-4.5805,-4.6566,-4.797,-4.9001,-4.9424,-5.0135,-5.0879,-5.164,-5.1674,-5.2012,-5.279,-5.2807,-5.3027,-5.3501,-5.3501,-5.3501,-5.3501,-5.3501,-5.3501,-5.3501,-5.3501,-5.3501,0.0,-5.3501,-5.3501,-5.3501,-5.3501,-5.323,0.0,0.0,0.0,0.0,0.0,-4.4497,-4.3703,-4.3434,-4.3329,-4.3329,-4.3329,-4.3329,-4.3329,-4.3329,-4.3329,-4.3329,-4.3329,-4.2981,-4.2467,-4.1767,-4.039,-3.9006,-3.8289,-3.6985,-3.583,-3.5592,-3.4864,-3.4173,-3.3935,0.0,0.0,-3.3081,-3.3081,-3.3081,-3.3081,-3.3081,-3.3081,0.0,-3.3081,-3.2955,-3.2604,-3.2353,-3.1964,-3.1336,-3.0871,0.0,0.0,0.0,-2.9524,-2.8864,-2.8057,0.0,0.0,0.0,0.0,0.0,0.0,0.0,0.0,-2.0869,-2.0859,0.0,0.0,0.0,0.0,0.0,0.0,0.0,0.0,0.0,0.0,0.0,0.0,0.0,0.0,0.0,0.0,-3.8819,-4.0493,-4.1339,-4.2016,-4.2963,-4.4401,-4.5889,-4.709,-4.7851,-4.9238,-5.0118,-5.0202,-5.0913,-5.1657,-5.2401,0.0,0.0,0.0,0.0,-5.3501,-5.3501,-5.3501,-5.3501,-5.3501,-5.3501,-5.3501,-5.3501,-5.3501,-5.3501,-5.3501,-5.3501,-5.3501,-5.3501,-5.3501,-5.3433,-5.3264,-5.232,-5.0352,-4.7811,-4.5342,-4.4421,0.0,0.0,0.0,0.0,-4.3449,-4.3389,-4.3329,-4.3329,-4.3329,-4.3329,-4.3329,-4.2548,-4.1767,-4.1504,-3.9858,-3.8198,-3.7939,-3.715,-3.6219,-3.5742,-3.5203,-3.4675,-3.4173,-3.3633,-3.3244,-3.3181,-3.3119,-3.3081,-3.3081,-3.3081,0.0,-3.3081,-3.3081,-3.3081,-3.3081,0.0,0.0,-3.2227,-3.1286,-3.067,-3.062,-3.0093,-2.9155,-2.7598,-2.662,-2.5488,-2.4272,-2.3362,-2.2918,-2.3213,-2.3262,-2.3477,-2.3809,-2.1846,-2.1572,0.0,0.0,0.0,0.0,0.0,0.0,0.0,0.0,0.0,0.0,0.0,0.0,0.0,0.0,0.0,-3.8278,-3.9935,-4.1457,-4.2811,-4.3115,-4.3538,-4.4468,-4.5889,-4.709,-4.7851,-4.9238,-5.0338,-5.0947,-5.1674,-5.2435,-5.323,-5.3264,0.0,-5.3501,-5.3501,-5.3501,-5.3501,-5.3501,-5.3501,-5.3501,0.0,0.0,-5.3501,-5.3501,-5.3501,-5.3501,-5.3501,-5.3501,-5.3501,-5.3501,-5.3025,-5.2087,-5.0578,-4.8636,-4.6576,-4.5515,-4.511,-4.5095,-4.496,-4.4571,-4.4122,-4.4122,-4.3763,-4.3329,-4.3329,-4.3329,0.0,-4.3329,-4.3155,-4.2548,-4.0675,-3.9885,-3.9094,-3.715,-3.6534,-3.6332,-3.6219,-3.5768,-3.5353,-3.5253,-3.4776,-3.4261,-3.3822,-3.337,-3.3081,-3.3081,-3.3081,-3.3081,-3.3081,-3.3081,-3.3081,-3.3081,-3.298,-3.2717,-3.2252,-3.1612,-3.106,-3.0645,-3.0093,-2.9238,-2.8032,-2.7782,-2.6712,-2.4735,-2.4792,-2.4429,-2.3662,-2.4004,-2.4219,-2.4277,-2.3516,-2.3486,0.0,0.0,0.0,0.0,0.0,0.0,0.0,0.0,0.0,0.0,0.0,-3.3305,0.0,0.0,-3.8379,-3.9851,-4.1339,-4.2574,-4.3318,-4.4079,-4.484,-4.5602,-4.6329,-4.7225,-4.8359,-4.9796,-5.0811,-5.1183,-5.2266,-5.3078,-5.3484,-5.3501,-5.3501,-5.3501,-5.3501,-5.3501,-5.3501,-5.3501,-5.3501,-5.3501,-5.3501,-5.3501,-5.3501,-5.3501,-5.3501,-5.3501,-5.3501,-5.3501,-5.3433,-5.2939,-5.2098,-5.1048,-4.9596,-4.8475,-4.741,-4.6205,-4.5813,-4.5753,-4.5409,-4.487,-4.4317,-4.4317,-4.3868,-4.3329,-4.3329,-4.3329,-4.3329,-4.3329,-4.29,-4.2044,-4.0332,-3.9448,-3.8559,-3.6803,-3.6358,-3.6358,-3.6358,-3.5931,-3.5542,-3.5542,-3.5102,-3.4625,-3.4361,-3.4085,-3.3709,-3.3156,-3.3081,-3.3081,-3.3081,-3.3081,-3.3081,-3.3081,-3.3081,-3.2955,-3.2667,-3.2127,-3.1461,-3.067,-3.0595,-2.9955,-2.85,-2.8151,-2.7189,-2.5501,-2.5122,-2.4626,-2.4102,-2.4316,-2.4531,-2.4736,-2.4521,-2.4541,0.0,0.0,0.0,0.0,0.0,0.0,0.0,-2.9736,-3.1427,-3.3034,-3.4438,-3.5943,-3.7787,-3.8836,-3.9851,-4.1204,-4.254,-4.347,-4.3623,-4.4705,-4.5805,-4.6684,-4.6921,-4.753,-4.8866,-5.0338,-5.1217,-5.1217,-5.2638,-5.3501,-5.3501,-5.3501,-5.3501,-5.3501,-5.3501,-5.3501,-5.3501,-5.3501,-5.3501,-5.3501,-5.3501,-5.3501,-5.3501,-5.3501,-5.3501,-5.3501,-5.3501,-5.3501,-5.3416,-5.2153,-5.1155,-5.0242,-4.8988,-4.8527,-4.8383,-4.7006,-4.6516,-4.6441,-4.5888,-4.5259,-4.4691,-4.4541,-4.4062,-4.3509,-4.3374,-4.3329,-4.3329,-4.3329,-4.2644,-4.1601,-4.0232,-3.9183,-3.8121,-3.6722,-3.6358,-3.6358,-3.6358,-3.6019,-3.5705,-3.5705,-3.5353,-3.5002,-3.4901,-3.4876,-3.4512,-3.3407,-3.3232,-3.3206,-3.3093,-3.3081,-3.3081,-3.3081,-3.3081,-3.3031,-3.2918,-3.2478,-3.18,-3.0834,-3.116,-3.0589,-2.8715,-2.8145,-2.7239,-2.5754,-2.4953,-2.4541,-2.4541,-2.4629,-2.4853,-2.5205,-2.5283,-2.5322,-2.1855,-2.3287,-2.4909,-2.6581,-2.7833,-2.9677,0.0,-3.4303,-3.4624,-3.6823,-3.7922,-3.8565,-3.8819,-4.0003,-4.1221,-4.2033,-4.2878,-4.3656,-4.435,-4.4587,-4.5229,-4.6616,-4.7394,-4.8105,-4.8934,-5.0338,-5.1217,-5.1217,-5.2638,-5.3501,-5.3501,-5.3501,-5.3501,-5.3501,-5.3501,-5.3501,-5.3501,-5.3501,-5.3501,-5.3501,-5.3501,-5.3501,-5.3501,-5.3501,-5.3501,-5.3501,-5.3501,-5.3501,-5.3348,-5.141,-5.0474,-5.0165,-4.824,-4.7452,-4.7452,-4.7219,-4.7189,-4.7189,-4.71,-4.6651,-4.5992,-4.5379,-4.4736,-4.4092,-4.3509,-4.3329,-4.3329,-4.3329,-4.325,-4.2644,-4.0504,-3.9812,-3.9094,-3.6896,-3.6358,-3.6358,-3.6358,-3.632,-3.627,-3.627,-3.6219,-3.6019,-3.5542,-3.5454,-3.5077,-3.3972,-3.3809,-3.3633,-3.3144,-3.3081,-3.3081,-3.3081,-3.3081,-3.2867,-3.2353,-3.2252,-3.1951,-3.1348,-3.1361,-3.0406,-2.8098,-2.7895,-2.6875,-2.4598,-2.4888,-2.5,-2.5,-2.5391,-2.5615,-2.5674,-2.6064,-2.624,-2.2773,-2.439,-2.6124,-2.7662,-2.9559,-3.1734,-3.4351,-3.5757,-3.6874,-3.8261,-3.9123,-3.9631,-3.9631,-4.0832,-4.1931,0.0,-4.3673,-4.4705,-4.4587,-4.5331,-4.594,-4.6143,-4.7208,-4.8206,-4.8934,-5.0338,-5.1217,-5.1217,-5.2638,-5.3501,-5.3501,-5.3501,-5.3501,-5.3501,-5.3501,-5.3501,-5.3501,-5.3501,-5.3501,-5.3501,-5.3501,-5.3501,-5.3501,-5.3501,-5.3501,-5.3501,-5.3501,-5.3501,-5.3348,-5.1262,-5.0397,-5.0165,-4.8072,-4.7309,-4.7309,-4.7309,-4.7309,-4.7309,-4.7309,-4.6621,-4.5678,-4.5394,-4.4586,-4.3688,-4.3419,-4.3329,-4.3329,-4.3329,-4.2805,-4.1947,-4.0332,-3.936,-3.8482,-3.6803,-3.6358,-3.6358,-3.6358,-3.6358,-3.6358,-3.6358,-3.6358,-3.6282,-3.6056,-3.6019,-3.5755,-3.4977,-3.4311,-3.3822,-3.3583,-3.3269,-3.3081,-3.3081,-3.3081,-3.298,-3.2742,-3.2717,-3.2199,-3.0943,-3.1101,-3.0067,-2.7295,-2.7564,-2.6909,-2.5185,-2.5361,-2.5459,-2.5459,-2.5644,-2.5869,-2.6123,-2.6309,-2.666,-2.3849,-2.5597,-2.7543,-2.9146,-3.1473,-3.3717,-3.511,-3.6874,-3.8413,-3.914,-3.9715,-4.007,-4.007,-4.1119,-4.2049,-4.2252,-4.4045,-4.5213,-4.4654,-4.5669,-4.6295,-4.5771,-4.6836,-4.7902,-4.8629,-5.0033,-5.0997,-5.12,-5.2435,-5.3264,-5.3501,-5.3501,-5.3501,-5.3501,-5.3501,-5.3501,-5.3501,-5.3501,-5.3501,-5.3501,-5.3501,-5.3501,-5.3501,-5.3501,-5.3501,-5.3501,-5.3501,-5.3348,-5.2939,-5.1171,-5.0242,-4.9773,-4.8003,-4.7309,-4.7309,-4.7309,-4.7309,-4.7309,-4.7309,-4.6666,-4.5783,-4.5409,-4.4646,-4.3808,-4.3449,-4.3329,-4.3329,-4.3329,-4.2467,-4.1337,-4.0246,-3.9006,-3.7848,-3.6628,-3.6358,-3.6358,-3.6358,-3.6358,-3.6358,-3.6358,-3.6358,-3.6358,-3.6358,-3.6358,-3.6219,-3.583,-3.4964,-3.4248,-3.3935,-3.342,-3.3081,-3.3081,-3.3081,-3.3081,-3.3081,-3.3081,-3.2352,-3.0775,-3.1009,-2.9952,-2.7085,-2.74,-2.703,-2.5732,-2.5742,-2.5742,-2.5742,-2.5859,-2.6084,-2.6396,-2.6631,-2.707,-2.5394,-2.7396,-2.9749,-3.194,-3.3974,-3.5898,-3.7466,-3.8396,-3.9174,-3.9884,-4.0054,-4.007,-4.007,-4.0713,-4.1474,-4.2168,-4.3589,-4.4604,-4.4587,-4.5246,-4.5737,-4.5703,-4.6363,-4.7124,0.0,-4.9272,-5.0422,-5.1166,-5.1911,-5.2689,-5.3467,-5.3501,-5.3501,-5.3501,-5.3501,-5.3501,-5.3501,-5.3501,-5.3501,-5.3501,-5.3501,-5.3501,-5.3501,-5.3501,-5.3501,-5.3501,-5.3501,-5.2939,-5.1849,-5.0855,-4.9773,-4.8759,-4.7694,-4.7309,-4.7309,-4.7309,-4.7309,-4.7309,-4.7309,-4.7279,-4.704,-4.5723,-4.5274,-4.5005,-4.3718,-4.3329,-4.3329,-4.3329,-4.2467,-4.1337,-4.0246,-3.9006,-3.7848,-3.6628,-3.6358,-3.6358,-3.6358,-3.6358,-3.6358,-3.6358,-3.6358,-3.6358,-3.6358,-3.6358,-3.6358,-3.6345,-3.5855,-3.5115,-3.4035,-3.342,-3.3081,-3.3081,-3.3081,-3.3081,-3.3081,-3.3081,-3.2513,-3.1288,-3.1211,-3.0124,-2.7662,-2.7579,-2.703,-2.5732,-2.5742,-2.5742,-2.5742,-2.6162,-2.6377,-2.6406,-2.7246,-2.7637,-2.6062,-2.8372,-3.0908,-3.2278,-3.4105,-3.5844,-3.6857,-3.7689,-3.8266,-3.8498,-3.864,-3.8785,-3.9276,-3.9952,-4.0865,-4.2083,-4.3995,-4.5331,-4.5331,-4.6397,-4.6819,-4.5821,-4.6786,0.0,0.0,0.0,0.0,-5.115,-5.1894,-5.2655,-5.3467,-5.3501,-5.3501,-5.3501,-5.3501,-5.3501,-5.3501,-5.3501,-5.3501,-5.3501,-5.3501,-5.3501,-5.3501,-5.3501,-5.3501,-5.3501,-5.3501,-5.287,-5.1832,-5.0779,-4.9773,-4.8677,-4.7679,-4.7309,-4.7309,-4.7309,-4.7309,-4.7309,-4.7309,-4.7025,-4.6501,-4.5589,-4.5005,-4.4481,-4.3599,-4.3329,-4.3329,-4.3329,-4.1947,-4.0404,-3.9986,-3.8482,-3.6883,-3.6452,-3.6358,-3.6358,-3.6358,-3.6358,-3.6358,-3.6358,-3.6358,-3.6358,-3.6358,-3.6358,-3.6232,-3.5868,-3.5353,-3.4726,-3.3997,-3.342,-3.3081,-3.3081,-3.3081,-3.3081,-3.3081,-3.3081,-3.2239,-3.0135,-3.0045,-2.8947,-2.6476,-2.639,-2.611,-2.5732,-2.5742,-2.5879,-2.6172,-2.6318,-2.668,-2.7246,-2.7529,-2.7812,-2.7278,-2.9469,-3.1656,-3.2949,-3.4659,-3.6031,-3.6278,-3.689,-3.7437,-3.7456,-3.7486,-3.7748,-3.8466,-3.8988,-3.9868,-4.161,-4.3589,-4.5077,-4.5635,-4.6989,-4.7462,-4.6244,-4.7411,-4.8122,0.0,0.0,0.0,-5.1183,-5.1894,-5.2655,-5.3467,-5.3501,-5.3501,-5.3501,-5.3501,-5.3501,-5.3501,-5.3501,-5.3501,-5.3501,-5.3501,-5.3501,-5.3501,-5.3501,-5.3501,-5.3501,-5.3501,-5.2714,-5.1303,-5.0627,-4.9551,-4.8225,-4.7523,-4.7309,-4.7309,-4.7309,-4.7309,-4.7309,-4.7309,-4.7025,-4.6516,-4.5603,-4.5005,-4.4496,-4.3599,-4.3329,-4.325,-4.2805,-4.1351,-3.9812,-3.936,-3.7874,-3.6358,-3.6358,-3.6358,-3.6358,-3.6358,-3.6358,-3.6358,-3.6358,-3.6358,-3.6358,-3.6358,-3.6358,-3.6245,-3.5893,-3.5366,-3.4751,-3.3997,-3.3583,-3.3294,-3.3106,-3.3081,-3.3081,-3.3081,-3.2698,-3.1601,-2.9498,-2.9039,-2.7851,-2.5732,-2.5742,-2.5742,-2.5742,-2.5889,-2.6113,-2.6387,-2.6699,-2.7129,-2.7666,-2.7822,-2.8037,-2.8922,-3.0649,-3.2135,-3.4096,-3.5625,-3.6453,-3.5808,-3.6134,-3.6635,-3.6612,-3.6569,-3.6821,-3.7542,-3.7787,-3.8582,-4.0781,-4.2455,-4.4012,-4.5551,-4.7039,-4.7716,0.0,0.0,0.0,0.0,0.0,0.0,-5.1268,0.0,-5.2655,-5.3467,-5.3501,-5.3501,-5.3501,-5.3501,-5.3501,-5.3501,-5.3501,-5.3501,-5.3501,-5.3501,-5.3501,-5.3501,-5.3501,-5.3501,-5.3501,-5.3501,-5.2329,-5.0397,-5.0397,-4.9166,-4.7309,-4.7309,-4.7309,-4.7309,-4.7309,-4.7309,-4.7309,-4.7309,-4.7309,-4.7085,-4.5738,-4.5289,-4.505,-4.3733,-4.3329,-4.3076,-4.1932,-4.0746,-3.9623,-3.8379,-3.7243,-3.6358,-3.6358,-3.6358,-3.6358,-3.6358,-3.6358,-3.6358,-3.6358,-3.6358,-3.6358,-3.6358,-3.6358,-3.6358,-3.6358,-3.5918,-3.5203,-3.4123,-3.3935,-3.3709,-3.3181,-3.3093,-3.3081,-3.3081,-3.1952,-3.0676,-2.9498,-2.8226,-2.703,-2.5732,-2.5742,-2.5742,-2.5742,-2.6162,-2.6396,-2.6426,-2.7256,-2.7676,-2.7705,-2.8105,-2.8291,-2.981,-3.16,-3.3275,-3.4273,-3.5186,-3.5643,-3.4958,-3.4577,-3.4194,-3.3754,-3.3646,-3.3813,-3.4545,-3.5988,-3.7787,-4.0037,-4.2591,0.0,-4.6295,-4.78,0.0,-4.846,-4.9255,-4.9813,-4.9813,-5.115,0.0,0.0,-5.2198,-5.2655,-5.3467,-5.3501,-5.3501,-5.3501,-5.3501,-5.3501,-5.3501,-5.3501,-5.3501,-5.3501,-5.3501,-5.3501,-5.3501,-5.3501,-5.3501,-5.3501,-5.3501,-5.2329,-5.0397,-5.0397,-4.9166,-4.7309,-4.7309,-4.7309,-4.7309,-4.7309,-4.7309,-4.7309,-4.7309,-4.7309,-4.7085,-4.5738,-4.5289,-4.505,-4.3733,-4.3329,-4.3076,-4.1932,-4.0746,-3.9623,-3.8379,-3.7243,-3.6358,-3.6358,-3.6358,-3.6358,-3.6358,-3.6358,-3.6358,-3.6358,-3.6358,-3.6358,-3.6358,-3.6358,-3.6358,-3.6358,-3.6245,-3.5906,-3.5215,-3.4412,-3.3847,-3.3709,-3.3319,-3.3081,-3.3081,-3.1952,-3.0676,-2.9498,-2.8226,-2.703,-2.5732,-2.5742,-2.5742,-2.5742,-2.6162,-2.6543,-2.6855,-2.7402,-2.7822,-2.8135,-2.8242,-2.8291,-3.0672,-3.2407,-3.4008,-3.4382,-3.4756,-3.4801,-3.3829,-3.3079,-3.24,-3.1449,-3.1676,-3.2177,-3.2595,-3.4638,-3.6907,-3.8836,-4.1644,0.0,-4.6058,-4.7597,-4.8765,-4.9407,-5.0135,-5.071,-5.1031,-5.2131,-5.2841,0.0,-5.2841,-5.3027,-5.3484,-5.3501,-5.3501,-5.3501,-5.3501,-5.3501,-5.3501,-5.3501,-5.3501,-5.3501,-5.3501,-5.3501,-5.3501,-5.3501,-5.3501,-5.3501,0.0,-5.1865,-5.032,-4.9852,-4.8774,-4.7309,-4.7309,-4.7309,-4.7309,-4.7309,-4.7309,-4.7264,-4.698,-4.6875,-4.6696,-4.5633,-4.5289,-4.505,-4.3733,-4.2981,-4.229,-4.1169,-4.0045,-3.8827,-3.7678,-3.6883,-3.6358,-3.6358,-3.6358,-3.6358,-3.6358,-3.6358,-3.6358,-3.6358,-3.6358,-3.6358,-3.6358,-3.6358,-3.6358,-3.6358,-3.6358,-3.6257,-3.5943,-3.5152,-3.4437,-3.3947,-3.3621,-3.3146,-3.2351,-3.1134,-2.9863,-2.868,-2.7494,-2.6476,-2.5732,-2.5742,-2.583,-2.6016,-2.6445,-2.6875,-2.7305,-2.7734,-2.8066,-2.8291,-2.8291,-2.8291,-3.1689,-3.317,-3.4502,-3.4592,-3.4547,-3.4128,-3.2811,-3.1869,-3.0885,-2.9581,-3.0226,-3.0972,-3.0964,-3.3278,-3.5732,-3.7357,-4.0189,-4.2972,-4.5382,-4.6989,-4.8494,-5.005,-5.0811,-5.1539,-5.2384,-5.3095,-5.3501,-5.3501,-5.3501,-5.3501,-5.3501,-5.3501,-5.3501,-5.3501,-5.3501,-5.3501,-5.3501,-5.3501,-5.3501,-5.3501,-5.3501,-5.3501,-5.3501,-5.3501,-5.3501,-5.3433,0.0,0.0,-5.032,-4.9215,-4.8225,-4.7309,-4.7309,-4.7309,-4.7309,-4.7309,-4.7249,-4.71,-4.6516,-4.6262,-4.6082,-4.5394,-4.517,-4.493,-4.3703,-4.2629,-4.1601,-4.0232,-3.9183,-3.803,-3.6709,-3.6358,-3.6358,-3.6358,-3.6358,-3.6358,-3.6358,-3.6358,-3.6358,-3.6358,-3.6358,-3.6358,-3.6358,-3.6358,-3.6358,-3.6358,-3.6358,-3.6358,-3.6358,-3.5881,-3.5177,-3.4223,-3.3795,-3.3042,-3.1455,-3.0045,-2.8746,-2.7683,-2.649,-2.5879,-2.583,-2.5879,-2.6084,-2.6465,-2.6885,-2.7285,-2.7666,-2.8086,-2.8291,-2.8291,-2.8291,-2.8291,-3.3484,-3.4218,-3.4607,-3.519,-3.4906,-3.4128,-3.2811,-3.1165,-2.9559,-2.8228,-2.8071,-2.817,-2.8182,-3.0894,-3.3795,-3.5893,-3.9179,-4.2478,-4.5324,-4.6989,-4.868,-5.0777,-5.1133,-5.1758,-5.3162,-5.3416,0.0,0.0,0.0,0.0,-5.3501,-5.3501,-5.3501,-5.3501,-5.3501,-5.3501,-5.3501,-5.3501,-5.3501,-5.3501,-5.3501,-5.3501,-5.3501,-5.3501,-5.3501,-5.3433,0.0,0.0,-5.032,-4.9215,-4.8225,-4.7309,-4.7309,-4.7309,-4.7309,-4.7309,-4.6965,-4.6486,-4.6367,-4.5948,-4.5364,-4.4706,-4.4481,-4.4347,-4.3569,-4.3155,-4.2548,-4.0504,-3.9724,-3.9108,-3.6977,-3.6358,-3.6358,-3.6358,-3.6358,-3.6358,-3.6358,-3.6358,-3.6358,-3.6358,-3.6358,-3.6358,-3.6358,-3.6358,-3.6358,-3.6358,-3.6358,-3.6358,-3.6358,-3.5881,-3.5466,-3.5278,-3.3497,-3.228,-3.1991,-2.9731,-2.8169,-2.761,-2.7061,-2.6641,-2.6289,-2.6611,-2.6826,-2.6904,-2.7334,-2.7588,-2.7666,-2.8086,-2.8291,-2.8291,-2.8291,-2.8291,-3.3709,-3.4487,-3.51,-3.5429,-3.4726,-3.3619,-3.2302,-3.0492,-2.8592,-2.6901,-2.6764,-2.696,-2.696,-2.9499,-3.2144,-3.3893,-3.66,-3.9808,-4.3447,-4.4934,-4.7015,-5.0747,-5.1217,-5.1826,-5.3365,-5.3501,-5.3501,0.0,0.0,0.0,-5.3501,-5.3501,-5.3501,-5.3501,-5.3501,-5.3501,-5.3501,-5.3501,-5.3501,-5.3501,-5.3501,-5.3501,-5.3501,-5.3501,-5.3501,-5.3416,0.0,0.0,-5.0242,-4.8692,-4.7764,-4.7309,-4.7309,-4.7309,-4.7309,-4.7309,-4.689,-4.6277,-4.5918,-4.5349,-4.4676,-4.4018,-4.4032,-4.4182,-4.3524,-4.2467,-4.1267,-4.0246,-3.9019,-3.7782,-3.6722,-3.6358,-3.6358,-3.6358,-3.6358,-3.6358,-3.6358,-3.6358,-3.6358,-3.6358,-3.6358,-3.6358,-3.6358,-3.6358,-3.6358,-3.6358,-3.6358,-3.6358,-3.6358,-3.6132,-3.5868,-3.5567,-3.3667,-3.2133,-3.1205,-2.9295,-2.7887,-2.7033,-2.6952,-2.6924,-2.6728,-2.6904,-2.7119,-2.7344,-2.7559,-2.7773,-2.7988,-2.8193,-2.8291,-2.8291,-2.8291,-2.8291,-3.3634,-3.4592,-3.5504,-3.5504,-3.4487,-3.3155,-3.1839,-2.9894,-2.7859,-2.5989,-2.5986,-2.6317,-2.6317,-2.8419,-3.064,-3.2153,-3.4249,-3.7109,-4.1313,-4.2769,-4.5111,-4.9841,-5.046,-5.1145,-5.2667,-5.3041,0.0,0.0,0.0,0.0,-5.3501,-5.3501,-5.3501,-5.3501,-5.3501,-5.3501,-5.3501,-5.3501,-5.3501,-5.3501,-5.3501,-5.3501,-5.3501,-5.3264,-5.3179,-5.3041,0.0,0.0,0.0,-4.8072,-4.7309,-4.7309,-4.7309,-4.7309,-4.7309,-4.7309,-4.68,-4.6022,-4.5484,-4.4766,-4.4018,-4.3509,-4.3688,-4.4003,-4.3494,-4.1879,-4.0232,-3.9986,-3.8405,-3.6709,-3.6452,-3.6358,-3.6358,-3.6358,-3.6358,-3.6358,-3.6358,-3.6358,-3.6358,-3.6358,-3.6358,-3.6358,-3.6358,-3.6358,-3.6358,-3.6358,-3.6358,-3.6358,-3.6358,-3.6358,-3.6157,-3.5604,-3.3699,-3.1738,-3.0003,-2.8635,-2.7516,-2.6496,-2.6953,-2.7246,-2.7158,-2.7246,-2.7451,-2.7793,-2.7803,-2.7959,-2.8291,-2.8291,-2.8291,-2.8291,-2.8291,-2.8291,-3.4068,-3.4936,-3.5504,-3.5504,-3.4487,-3.3155,-3.1839,-2.952,-2.7275,-2.5899,-2.5646,-2.5693,-2.5693,-2.7379,-2.9453,-3.1488,-3.3529,-3.6132,-3.973,-4.1914,-4.4281,-4.7274,-4.8192,0.0,-5.0574,-5.1541,0.0,0.0,0.0,0.0,0.0,-5.3501,-5.3501,-5.3501,-5.3501,-5.3501,-5.3501,-5.3501,-5.3501,-5.3501,-5.3501,-5.3501,-5.3433,-5.247,-5.2082,-5.1921,0.0,0.0,0.0,-4.7764,-4.7309,-4.7309,-4.7309,-4.7309,-4.7309,-4.7309,-4.6486,-4.5379,-4.5319,-4.4466,-4.3419,-4.3359,-4.3374,-4.3404,-4.3344,-4.2452,-4.1253,-4.0145,-3.8917,-3.7678,-3.6628,-3.6358,-3.6358,-3.6358,-3.6358,-3.6358,-3.6358,-3.6358,-3.6358,-3.6358,-3.6358,-3.6358,-3.6358,-3.6358,-3.6358,-3.6358,-3.6358,-3.6358,-3.6358,-3.6358,-3.6157,-3.5604,-3.2913,-3.0493,-2.8689,-2.7691,-2.6888,-2.6416,-2.751,-2.8008,-2.7627,-2.7969,-2.8193,-2.8232,-2.8232,-2.8252,-2.8291,-2.8291,-2.8291,-2.8291,-2.8291,-2.8291,-3.3634,-3.4681,-3.5504,-3.5504,-3.4487,-3.3155,-3.1839,-2.9475,-2.7305,-2.6393,-2.557,-2.5255,-2.6048,-2.6856,-2.8051,-3.0122,-3.1134,-3.3183,-3.7503,-3.8855,-4.1165,-4.6147,-4.6933,-4.799,0.0,0.0,0.0,0.0,0.0,0.0,0.0,-5.3179,-5.3501,-5.3501,-5.3501,-5.3501,-5.3501,-5.3501,-5.3195,-5.2557,-5.2557,-5.2241,-5.1647,-5.1171,-5.1005,-5.093,0.0,0.0,0.0,-4.7679,-4.7309,-4.7309,-4.7309,-4.7309,-4.7309,-4.7309,-4.6456,-4.5289,-4.5289,-4.4436,-4.3329,-4.3329,-4.3329,-4.3155,-4.2467,-4.1518,-4.0318,-3.9183,-3.7939,-3.6977,-3.6546,-3.6358,-3.6358,-3.6358,-3.6358,-3.6358,-3.6358,-3.6358,-3.6358,-3.6358,-3.6358,-3.6358,-3.6358,-3.6358,-3.6358,-3.6358,-3.6358,-3.6358,-3.6358,-3.6358,-3.5724,-3.4076,-3.2829,-3.1444,-2.9624,-2.8582,-2.7713,-2.6777,-2.7725,-2.8223,-2.8047,-2.8203,-2.8291,-2.8291,-2.8291,-2.8291,-2.8291,-2.8291,-2.8291,-2.8291,-2.8291,-2.8291,-3.2677,-3.4038,-3.516,-3.4966,-3.4053,-3.2856,-3.1524,-2.9325,-2.738,-2.6722,-2.5854,-2.5495,-2.6422,-2.6752,-2.747,-2.9295,-2.9909,-3.1585,-3.5599,-3.6662,-3.8865,-4.3686,0.0,-4.5809,0.0,0.0,0.0,0.0,0.0,0.0,0.0,-5.217,-5.2574,-5.2574,-5.2574,-5.2574,-5.2574,-5.2574,-5.217,-5.1467,-5.1467,-5.108,-5.0397,-5.0087,-4.9931,0.0,0.0,0.0,0.0,-4.7609,-4.7309,-4.7309,-4.7309,-4.7309,-4.7279,-4.7085,-4.6277,-4.5274,-4.5065,-4.4272,-4.3329,-4.3329,-4.3329,-4.2996,-4.1518,-4.0575,-3.9724,-3.8917,-3.7599,-3.6358,-3.6358,-3.6358,-3.6358,-3.6358,-3.6358,-3.6358,-3.6358,-3.6358,-3.6358,-3.6358,-3.6358,-3.6358,-3.6358,-3.6358,-3.6358,-3.6358,-3.6358,-3.6358,-3.6358,-3.6358,-3.5543,-3.311,-3.2909,-3.1961,-2.9615,-2.8568,-2.7683,-2.6927,-2.7637,-2.8105,-2.8105,-2.8223,-2.8291,-2.8291,-2.8291,-2.8291,-2.8291,-2.8291,-2.8291,-2.8291,-2.8291,-2.8291,-3.121,-3.2991,-3.4322,-3.3679,-3.3021,-3.2168,-3.0821,-2.8981,-2.738,-2.6722,-2.6572,-2.6572,-2.6587,-2.7126,-2.8008,-2.9355,-3.0672,-3.2213,-3.4265,-3.6163,-3.7898,0.0,0.0,-4.2254,-4.4152,0.0,0.0,0.0,0.0,0.0,0.0,0.0,-5.0397,-5.0397,-5.0397,-5.0397,-5.0397,-5.0397,-5.0413,-5.0413,-5.0413,-5.0413,-5.032,-4.9296,0.0,0.0,0.0,0.0,0.0,-4.7294,-4.7309,-4.7309,-4.7309,-4.7309,-4.7234,-4.6576,-4.5888,-4.52,-4.4541,-4.3883,-4.3329,-4.3329,-4.3329,-4.29,-4.0589,-3.9899,-3.9899,-3.9899,-3.8225,-3.6358,-3.6358,-3.6358,-3.6358,-3.6358,-3.6358,-3.6358,-3.6358,-3.6358,-3.6358,-3.6358,-3.6358,-3.6358,-3.6358,-3.6358,-3.6358,-3.6358,-3.6358,-3.6358,-3.6358,-3.6358,-3.5543,-3.311,-3.2909,-3.1436,-2.7946,-2.6899,-2.6396,-2.6396,-2.7197,-2.7676,-2.7676,-2.8066,-2.8291,-2.8291,-2.8291,-2.8291,-2.8291,-2.8291,-2.8291,-2.8291,-2.8291,-2.8291,-2.9968,-3.1315,-3.2302,-3.1629,-3.1285,-3.0911,-3.0073,-2.8682,-2.7565,-2.7355,-2.6901,-2.6722,-2.7186,-2.749,-2.8143,-2.9924,-3.0552,-3.1689,-3.4128,-3.5804,0.0,-3.9828,-4.2851,-4.5185,0.0,0.0,0.0,0.0,0.0,0.0,0.0,0.0,-4.8938,-5.0336,-5.0397,-5.0397,-5.0397,-5.0397,-5.0009,-4.9296,-4.9296,-4.8922,-4.824,-4.7919,0.0,0.0,0.0,0.0,0.0,-4.7309,-4.7309,-4.7309,-4.7309,-4.7309,-4.7234,-4.6576,-4.5888,-4.52,-4.4541,-4.3883,-4.3329,-4.3329,-4.3329,-4.2996,-4.1518,-4.049,-3.9549,-3.7965,-3.6977,-3.6358,-3.6358,-3.6358,-3.6358,-3.6358,-3.6358,-3.6358,-3.6358,-3.6358,-3.6358,-3.6358,-3.6358,-3.6358,-3.6358,-3.6358,-3.6358,-3.6358,-3.6358,-3.6358,-3.6358,-3.5571,-3.4474,-3.3017,-3.1269,-2.9536,-2.7757,-2.7634,-2.7228,-2.6486,-2.7187,-2.7666,-2.7666,-2.8066,-2.8291,-2.8291,-2.8291,-2.8291,-2.8291,-2.8291,-2.8291,-2.8291,-2.8291,-2.8291,-2.8517,-2.9789,-3.0687,-3.0253,-3.0163,-2.9998,-2.9355,-2.8353,-2.7625,-2.7625,-2.7295,-2.7081,-2.755,-2.7625,-2.8143,-2.9879,-3.0567,-3.1644,-3.3799,0.0,0.0,-4.0457,0.0,0.0,0.0,0.0,0.0,0.0,0.0,0.0,0.0,0.0,-4.7934,-4.9166,-4.9247,-4.9247,-4.9247,-4.9247,-4.8938,-4.821,-4.821,-4.7919,-4.7309,0.0,0.0,0.0,0.0,0.0,0.0,-4.7309,-4.7309,-4.7279,-4.704,-4.6935,-4.683,-4.5903,-4.5289,-4.4825,-4.4167,-4.3673,-4.3329,-4.3329,-4.2739,-4.1864,-4.1169,-4.0131,-3.8841,-3.6896,-3.6358,-3.6358,-3.6358,-3.6358,-3.6358,-3.6358,-3.6358,-3.6358,-3.6358,-3.6358,-3.6358,-3.6358,-3.6358,-3.6358,-3.6358,-3.6358,-3.6358,-3.6358,-3.6358,-3.6358,-3.6358,-3.5667,-3.4438,-3.2616,-3.096,-2.9296,-2.7508,-2.7288,-2.7057,-2.6476,-2.7041,-2.75,-2.7656,-2.8066,-2.8291,-2.8291,-2.8291,-2.8291,-2.8291,-2.8291,-2.8291,-2.8291,-2.8291,-2.8291,0.0,-2.8308,-2.928,-2.925,-2.9265,-2.9146,-2.8592,-2.7964,0.0,-2.761,-2.7625,-2.7655,-2.7694,-2.773,-2.8113,-2.9549,-3.0806,-3.2063,0.0,-3.5863,0.0,0.0,-4.2701,0.0,0.0,0.0,0.0,0.0,0.0,0.0,0.0,0.0,0.0,-4.7234,-4.7279,-4.7309,-4.7309,-4.7309,-4.7309,-4.7309,-4.7309,-4.7309,-4.7309,0.0,0.0,0.0,0.0,0.0,0.0,-4.716,-4.716,-4.71,-4.6486,-4.6247,-4.6097,-4.4796,-4.4317,-4.4212,-4.3569,-4.3329,-4.3329,-4.3329,-4.1782,-3.9899,-3.9899,-3.9006,-3.7756,-3.6709,-3.6358,-3.6358,-3.6358,-3.6358,-3.6358,-3.6358,-3.6358,-3.6358,-3.6358,-3.6358,-3.6358,-3.6358,-3.6358,-3.6358,-3.6358,-3.6358,-3.6358,-3.6358,-3.6358,-3.6358,-3.6358,-3.625,-3.4956,-3.2063,-3.1526,-3.0249,-2.7245,-2.6289,-2.6006,-2.6406,-2.6826,-2.7246,-2.7646,-2.8066,-2.8291,-2.8291,-2.8291,-2.8291,-2.8291,-2.8291,-2.8291,-2.8291,-2.8291,-2.8291,-2.5061,0.0,-2.6422,-2.5914,-2.6168,-2.6632,0.0,-2.6931,-2.6961,-2.747,-2.7625,-2.7889,-2.8921,-2.8697,-2.9116,-3.145,-3.2078,-3.2736,-3.4068,0.0,0.0,-4.3254,0.0,0.0,0.0,0.0,0.0,0.0,0.0,0.0,0.0,0.0,0.0,-4.6576,-4.704,-4.7309,-4.7309,-4.7309,-4.7309,-4.7309,-4.7309,-4.7309,-4.7294,0.0,0.0,0.0,0.0,0.0,0.0,-4.5768,-4.5768,-4.5753,-4.5603,-4.5544,-4.5439,-4.4616,-4.4317,-4.4212,-4.3569,-4.3329,-4.3329,-4.3329,-4.1782,-3.9899,-3.9899,-3.8482,-3.6709,-3.6452,-3.6358,-3.6358,-3.6358,-3.6358,-3.6358,-3.6358,-3.6358,-3.6358,-3.6358,-3.6358,-3.6358,-3.6358,-3.6358,-3.6358,-3.6358,-3.6358,-3.6358,-3.6358,-3.6358,-3.6358,-3.6358,-3.4545,-3.2849,-3.1768,-2.9838,-2.8174,-2.7051,-2.6826,-2.6758,-2.6865,-2.7275,-2.7559,-2.7666,-2.8066,-2.8291,-2.8291,-2.8291,-2.8291,-2.8291,-2.8291,-2.8291,-2.8291,-2.8291,-2.8291,-2.4059,-2.5091,-2.6048,-2.5989,-2.6482,-2.6991,-2.7036,-2.7036,-2.7051,-2.7111,-2.7415,-2.794,-2.8936,-2.9086,-2.9714,-3.1734,-3.2572,0.0,0.0,0.0,-4.098,-4.3958,0.0,0.0,0.0,0.0,0.0,0.0,0.0,0.0,0.0,0.0,0.0,0.0,-4.6202,-4.6681,-4.7294,-4.7309,-4.7309,-4.7309,-4.7309,-4.7145,-4.6845,0.0,0.0,0.0,0.0,0.0,-4.5289,-4.5289,-4.5289,-4.5274,-4.496,-4.484,-4.4766,-4.4107,-4.3868,-4.3808,-4.3464,-4.3329,-4.3329,-4.3329,-4.1782,-3.9899,-3.9899,-3.8225,-3.6358,-3.6358,-3.6358,-3.6358,-3.6358,-3.6358,-3.6358,-3.6358,-3.6358,-3.6358,-3.6358,-3.6358,-3.6358,-3.6358,-3.6358,-3.6358,-3.6358,-3.6358,-3.6358,-3.6358,-3.6358,-3.6358,-3.6358,-3.4557,-3.2952,-3.2072,-3.0155,-2.8565,-2.7617,-2.7598,-2.7519,-2.7324,-2.7539,-2.7754,-2.7949,-2.8174,-2.8291,-2.8291,-2.8291,-2.8291,-2.8291,-2.8291,-2.8291,-2.8291,-2.8291,-2.8291,-2.3849,-2.536,-2.6931,-2.7081,-2.7709,-2.8143,-2.761,-2.7475,-2.734,-2.6841,-2.7275,-2.7993,-2.8876,-2.9505,-3.0372,-3.1898,0.0,0.0,-3.905,-4.0053,-4.1339,0.0,0.0,0.0,0.0,0.0,0.0,0.0,0.0,0.0,0.0,0.0,0.0,0.0,-4.5244,-4.5843,-4.698,-4.71,-4.716,-4.716,-4.716,-4.6815,-4.6157,-4.6067,0.0,0.0,0.0,0.0,-4.499,-4.499,-4.499,-4.4945,-4.4392,-4.4167,-4.4092,-4.3539,-4.3329,-4.3329,-4.3329,-4.3329,-4.325,-4.3076,-4.1616,-3.9899,-3.9724,-3.8134,-3.6358,-3.6358,-3.6358,-3.6358,-3.6358,-3.6358,-3.6358,-3.6358,-3.6358,-3.6358,-3.6358,-3.6358,-3.6358,-3.6358,-3.6358,-3.6358,-3.6358,-3.6358,-3.6358,-3.6358,-3.6358,-3.6358,-3.6358,-3.5271,-3.3871,-3.2431,-3.1122,-2.9713,-2.8388,-2.8291,-2.8135,-2.7783,-2.7764,-2.792,-2.8281,-2.8291,-2.8291,-2.8291,-2.8291,-2.8291,-2.8291,-2.8291,-2.8291,-2.8291,-2.8291,-2.8291,-2.4986,-2.6767,-2.7769,-2.5615,-2.5989,-2.6871,-2.6767,-2.6737,-2.6871,-2.732,-2.7964,-2.8981,-3.0761,-3.1165,-3.2048,-3.4502,0.0,-3.7015,0.0,0.0,0.0,0.0,0.0,0.0,0.0,0.0,0.0,0.0,0.0,0.0,0.0,0.0,0.0,0.0,0.0,-4.5394,-4.5603,-4.6187,-4.6471,-4.6471,-4.6471,-4.6112,-4.5424,-4.4885,-4.4571,0.0,0.0,0.0,-4.3643,-4.3643,-4.3643,-4.3629,-4.3524,-4.3479,-4.3464,-4.3374,-4.3329,-4.3329,-4.3329,-4.3329,-4.3155,-4.2193,-4.1,-3.9724,-3.8649,-3.7415,-3.6358,-3.6358,-3.6358,-3.6358,-3.6358,-3.6358,-3.6358,-3.6358,-3.6358,-3.6358,-3.6358,-3.6358,-3.6358,-3.6358,-3.6358,-3.6358,-3.6358,-3.6358,-3.6358,-3.6358,-3.6358,-3.6358,-3.6358,-3.5271,-3.3871,-3.2431,-3.1122,-2.9713,-2.8388,-2.8291,-2.8262,-2.8203,-2.8193,-2.8223,-2.8291,-2.8291,-2.8291,-2.8291,-2.8291,-2.8291,-2.8291,-2.8291,-2.8291,-2.8291,-2.8291,-2.8291,-2.4358,-2.5989,-2.7305,-2.6437,-2.8023,-2.9594,-2.8861,-2.8996,-2.9146,-2.8742,-2.9175,-3.0013,-3.1243,-3.1824,-3.2931,-3.5594,0.0,-3.8182,0.0,0.0,0.0,0.0,0.0,0.0,0.0,0.0,0.0,0.0,0.0,0.0,0.0,0.0,0.0,0.0,0.0,0.0,-4.4766,-4.508,-4.5424,-4.5768,-4.5768,-4.5424,-4.4751,-4.4451,-4.4122,0.0,0.0,-4.3329,-4.3329,-4.3329,-4.3329,-4.3329,-4.3329,-4.3329,-4.3329,-4.3329,-4.3329,-4.3329,-4.3329,-4.3329,-4.3076,-4.1947,-4.0831,-3.9623,-3.8469,-3.7322,-3.6358,-3.6358,-3.6358,-3.6358,-3.6358,-3.6358,-3.6358,-3.6358,-3.6358,-3.6358,-3.6358,-3.6358,-3.6358,-3.6358,-3.6358,-3.6358,-3.6358,-3.6358,-3.6358,-3.6358,-3.6358,-3.6168,-3.5367,-3.4166,-3.2744,-3.1327,-3.0016,-2.9006,-2.8398,-2.8291,-2.8291,-2.8291,-2.8291,-2.8291,-2.8291,-2.8291,-2.8291,-2.8291,-2.8291,-2.8291,-2.8291,-2.8291,-2.8291,-2.8291,-2.8291,-2.8291,-2.4223,-2.5525,-2.6976,-2.7649,-2.9729,-3.145,-3.0866,-3.0911,-3.0881,-3.0178,-3.0537,-3.118,-3.1869,-3.2901,0.0,-3.6372,-3.7778,0.0,0.0,0.0,0.0,0.0,0.0,0.0,0.0,0.0,0.0,0.0,0.0,0.0,0.0,0.0,0.0,0.0,0.0,0.0,-4.4077,-4.4092,-4.4407,-4.5065,-4.5065,-4.4721,-4.4092,-4.4092,-4.3808,-4.3329,-4.3329,-4.3329,-4.3329,-4.3329,-4.3329,-4.3329,-4.3329,-4.3329,-4.3329,-4.3329,-4.3329,-4.3329,-4.3329,-4.3155,-4.2725,-4.1601,-4.0404,-3.9271,-3.803,-3.7057,-3.6358,-3.6358,-3.6358,-3.6358,-3.6358,-3.6358,-3.6358,-3.6358,-3.6358,-3.6358,-3.6358,-3.6358,-3.6358,-3.6358,-3.6358,-3.6358,-3.6358,-3.6358,-3.6263,-3.5966,-3.5966,-3.5463,-3.4068,-3.2955,-3.1836,-3.0421,-2.9408,-2.8591,-2.8291,-2.8291,-2.8291,-2.8291,-2.8291,-2.8291,-2.8291,-2.8291,-2.8291,-2.8291,-2.8291,-2.8291,-2.8291,-2.8291,-2.8291,-2.8291,-2.8291,-2.8291,-2.6048,-2.6916,-2.7664,-2.8353,-2.8712,-2.934,-3.1061,-3.0552,-3.0043,-3.1165,-3.1913,-3.2572,-3.323,-3.5385,-3.712,-3.7315,0.0,0.0,0.0,0.0,0.0,0.0,0.0,0.0,0.0,0.0,0.0,0.0,0.0,0.0,0.0,0.0,0.0,0.0,0.0,0.0,-4.3404,-4.3404,-4.3733,-4.4392,-4.4392,-4.4047,-4.3404,-4.3404,-4.3389,-4.3329,-4.3329,-4.3329,-4.3329,-4.3329,-4.3329,-4.3329,-4.3329,-4.3329,-4.3329,-4.3329,-4.3329,-4.3329,-4.3329,-4.2629,-4.1504,-4.0404,-3.9183,-3.803,-3.6896,-3.6452,-3.6358,-3.6358,-3.6358,-3.6358,-3.6358,-3.6358,-3.6358,-3.6358,-3.6358,-3.6358,-3.6358,-3.6358,-3.6358,-3.6358,-3.6358,-3.6358,-3.6358,-3.6358,-3.5966,-3.4775,-3.4581,-3.4068,-3.2644,-3.2331,-3.1836,-3.0421,-3.0214,-2.9608,-2.8398,-2.8291,-2.8291,-2.8291,-2.8291,-2.8291,-2.8291,-2.8291,-2.8291,-2.8291,-2.8291,-2.8291,-2.8291,-2.8291,-2.8291,-2.8291,-2.8291,-2.8291,-2.5241,-2.6437,-2.779,-2.8427,-2.952,-3.0731,-3.1884,-3.2721,-3.329,-3.335,-3.3903,-3.4322,-3.4143,-3.5594,-3.6956,-3.7345,0.0,0.0,0.0,0.0,0.0,0.0,0.0,0.0,0.0,0.0,0.0,0.0,0.0,0.0,0.0,0.0,0.0,0.0,0.0,0.0,0.0,-4.3329,-4.3464,-4.3703,-4.3703,-4.3584,-4.3329,-4.3329,-4.3329,-4.3329,-4.3329,-4.3329,-4.3329,-4.3329,-4.3329,-4.3329,-4.3329,-4.3329,-4.3329,-4.3329,-4.3329,-4.3329,-4.3329,-4.2548,-4.142,-4.0232,-3.9094,-3.7848,-3.6709,-3.6358,-3.6358,-3.6358,-3.6358,-3.6358,-3.6358,-3.6358,-3.6358,-3.6358,-3.6358,-3.6358,-3.6358,-3.6358,-3.6358,-3.6358,-3.6358,-3.6358,-3.6358,-3.6358,-3.5854,-3.4234,-3.3994,-3.3068,-3.0591,-3.0249,-2.9759,-2.8379,-2.8287,-2.7988,-2.749,-2.75,-2.75,-2.75,-2.7998,-2.8291,-2.8291,-2.8291,-2.8291,-2.8291,-2.8291,-2.8291,-2.8291,-2.8291,-2.8291,-2.8291,-2.8291,-2.8291,-2.53,-2.6378,-2.7784,-2.8682,-3.0073,-3.1495,-3.2587,-3.4038,-3.516,-3.5115,-3.5489,-3.5729,-3.5459,-3.6163,0.0,0.0,0.0,0.0,0.0,0.0,0.0,0.0,0.0,0.0,0.0,0.0,0.0,0.0,0.0,0.0,0.0,0.0,0.0,0.0,0.0,0.0,0.0,-4.3329,-4.3155,-4.2725,-4.2725,-4.2981,-4.3329,-4.3329,-4.3329,-4.3329,-4.3329,-4.3329,-4.3329,-4.3329,-4.3329,-4.3329,-4.3329,-4.3329,-4.3329,-4.3329,-4.3329,-4.325,-4.29,-4.2029,-4.0901,-3.9711,-3.8572,-3.7415,-3.6628,-3.6358,-3.6358,-3.6358,-3.6358,-3.6358,-3.6358,-3.6358,-3.6358,-3.6358,-3.6358,-3.6358,-3.6358,-3.6358,-3.6358,-3.6358,-3.6358,-3.6358,-3.6358,-3.6219,-3.5581,-3.3935,-3.316,-3.1848,-2.9271,-2.8556,-2.7985,-2.7114,-2.7012,-2.7012,-2.7012,-2.7012,-2.7012,-2.7012,-2.7568,-2.7949,-2.8086,-2.8096,-2.8154,-2.8291,-2.8291,-2.8291,-2.8291,-2.8291,-2.8291,-2.8291,-2.8291,-2.8291,-2.6752,-2.7081,-2.797,-2.925,-3.0058,-3.1061,-3.3066,-3.4023,-3.4876,-3.6222,-3.6492,-3.6686,-3.73,-3.7404,0.0,0.0,0.0,0.0,0.0,0.0,0.0,0.0,0.0,0.0,0.0,0.0,0.0,0.0,0.0,0.0,0.0,0.0,0.0,0.0,0.0,0.0,0.0,-4.3235,-4.271,-4.1587,-4.1587,-4.2193,-4.325,-4.325,-4.325,-4.325,-4.325,-4.325,-4.3329,-4.3329,-4.3329,-4.3329,-4.3329,-4.3329,-4.3329,-4.325,-4.325,-4.3155,-4.1947,-4.0831,-3.9724,-3.8469,-3.7322,-3.6358,-3.6358,-3.6358,-3.6358,-3.6358,-3.6358,-3.6358,-3.6358,-3.6358,-3.6358,-3.6358,-3.6358,-3.6358,-3.6358,-3.6358,-3.6358,-3.6358,-3.6358,-3.6358,-3.6358,-3.5906,-3.5053,-3.366,-3.1961,-3.0392,-2.8922,-2.7774,-2.7002,-2.7002,-2.7002,-2.7002,-2.7002,-2.7002,-2.7002,-2.7002,-2.7002,-2.7197,-2.7637,-2.7666,-2.7861,-2.8281,-2.8291,-2.8291,-2.8291,-2.8291,-2.8291,-2.8291,-2.8291,-2.8291,-2.6213,-2.741,-2.9086,-2.949,-3.145,-3.3574,-3.4666,-3.5415,-3.6252,-3.7554,-3.7464,-3.7195,-3.7375,-3.7404,0.0,0.0,0.0,0.0,0.0,0.0,0.0,0.0,0.0,0.0,0.0,0.0,0.0,0.0,0.0,0.0,0.0,0.0,0.0,0.0,0.0,0.0,0.0,0.0,-4.0294,-4.0404,-3.9942,-4.014,-4.093,-4.093,-4.1351,-4.2111,-4.2111,-4.2548,-4.3329,-4.3329,-4.3329,-4.3329,-4.3329,-4.3329,-4.317,-4.2371,-4.2111,-4.1947,-4.0831,-3.9623,-3.8559,-3.8198,-3.7322,-3.6358,-3.6358,-3.6358,-3.6358,-3.6358,-3.6358,-3.6358,-3.6358,-3.6358,-3.6358,-3.6358,-3.6358,-3.6358,-3.6358,-3.6358,-3.6358,-3.6358,-3.6358,-3.6245,-3.5855,-3.4871,-3.3528,-3.1444,-2.9984,-2.8549,-2.6801,-2.63,-2.6113,-2.6113,-2.6113,-2.6113,-2.6113,-2.6113,-2.6113,-2.6113,-2.6113,-2.6445,-2.7178,-2.75,-2.7725,-2.7851,-2.8144,-2.8291,-2.8291,-2.8291,-2.8291,-2.8291,-2.8291,-2.8291,-2.7569,-2.8921,-3.0552,-3.133,-3.2811,-3.4397,-3.5609,-3.6596,-3.7539,-3.8571,-3.8257,-3.7883,-3.8153,-3.7988,0.0,0.0,0.0,0.0,0.0,0.0,0.0,0.0,0.0,0.0,0.0,0.0,0.0,0.0,0.0,0.0,0.0,0.0,0.0,0.0,0.0,0.0,0.0,0.0,0.0,-3.8564,-3.8184,-3.7952,-3.7878,-3.8824,-3.9578,-4.0248,-4.0248,-4.0674,-4.1273,-4.1704,-4.1704,-4.1354,-4.1704,-4.1624,-4.1192,-4.0496,-4.0404,-4.0435,-3.9253,-3.8537,-3.8017,-3.7586,-3.6977,-3.632,-3.6107,-3.6031,-3.6031,-3.6031,-3.6031,-3.6094,-3.6307,-3.6194,-3.6094,-3.6307,-3.6358,-3.6358,-3.6358,-3.6194,-3.6031,-3.6031,-3.5855,-3.5604,-3.5278,-3.3978,-3.2558,-3.1182,-2.9332,-2.7531,-2.5956,-2.5742,-2.5742,-2.5742,-2.5742,-2.5742,-2.5742,-2.5742,-2.5742,-2.5742,-2.5742,-2.5967,-2.6484,-2.6924,-2.7236,-2.7402,-2.7656,-2.7783,-2.7783,-2.7959,-2.8047,-2.8047,-2.8213,-2.8291,-2.9688,-3.081,-3.1988,-3.3903,-3.4083,-3.4247,-3.6073,-3.7434,-3.8482,-3.911,-3.8781,-3.8586,-3.9215,-3.8856,0.0,0.0,0.0,0.0,0.0,0.0,0.0,0.0,0.0,0.0,0.0,0.0,0.0,0.0,0.0,0.0,0.0,0.0,0.0,0.0,0.0,0.0,0.0,0.0,0.0,0.0,-3.6253,-3.5729,-3.4728,-3.6869,-3.7965,-3.8048,-3.8131,-3.8214,-3.8297,-3.9207,-3.9045,-3.8297,-3.9301,-3.9045,-3.8214,-3.8048,-3.831,-3.8622,-3.7422,-3.7335,-3.7599,-3.6557,-3.6219,-3.6119,-3.5617,-3.5466,-3.5466,-3.5466,-3.5466,-3.5592,-3.6081,-3.5843,-3.5604,-3.6094,-3.6219,-3.6219,-3.6219,-3.5818,-3.5466,-3.5466,-3.5064,-3.47,-3.4663,-3.3198,-3.2019,-3.1687,-2.9245,-2.703,-2.583,-2.5742,-2.5742,-2.5742,-2.5742,-2.5742,-2.5742,-2.5742,-2.5742,-2.5742,-2.5742,-2.5742,-2.5742,-2.6162,-2.6572,-2.6953,-2.6992,-2.7012,-2.7012,-2.7412,-2.7607,-2.7617,-2.7998,-2.8067,-2.7467,-2.9418,-3.1884,-3.3335,-3.4786,-3.5953,-3.6387,-3.7075,-3.7659,-3.7808,-3.8138,-3.8437,-3.8586,0.0,0.0,0.0,0.0,0.0,0.0,0.0,0.0,0.0,0.0,0.0,0.0,0.0,0.0,0.0,0.0,0.0,0.0,0.0,0.0,0.0,0.0,0.0,-3.6451,-3.5391,-3.4868,0.0,-3.4704,-3.4325,-3.4085,-3.5022,-3.597,-3.6882,-3.7798,-3.8214,-3.8214,-3.8461,-3.8379,-3.8214,-3.8461,-3.8379,-3.8048,-3.7223,-3.6976,-3.691,-3.5647,-3.5301,-3.5415,-3.5168,-3.5077,-3.5052,-3.4926,-3.4901,-3.4901,-3.4901,-3.4901,-3.4926,-3.5039,-3.4989,-3.4926,-3.5052,-3.5077,-3.5077,-3.5077,-3.4977,-3.4901,-3.4901,-3.4801,-3.4587,-3.4148,-3.2954,-3.133,-2.8899,-2.7187,-2.6014,-2.5742,-2.5742,-2.5742,-2.5742,-2.5742,-2.5742,-2.5742,-2.5742,-2.5742,-2.5742,-2.5742,-2.5742,-2.5742,-2.6162,-2.6426,-2.6523,-2.6846,-2.7012,-2.7012,-2.7109,-2.7158,-2.7158,-2.7246,-2.6749,-2.77,-2.9982,-3.2392,-3.4038,-3.525,-3.6013,-3.6013,-3.6267,-3.6492,-3.6492,-3.7509,-3.8392,0.0,0.0,0.0,0.0,0.0,0.0,0.0,0.0,0.0,0.0,0.0,0.0,0.0,0.0,0.0,0.0,0.0,0.0,0.0,0.0,0.0,0.0,0.0,0.0,-3.5112,-3.4075,-3.3658,-3.3935,-3.3646,-3.3508,-3.352,-3.3809,-3.4261,-3.4917,-3.5489,-3.573,-3.5814,-3.6289,-3.6206,-3.5814,-3.6289,-3.6219,-3.573,-3.5076,-3.4999,-3.5156,-3.4578,-3.45,-3.4726,-3.4726,-3.4726,-3.4675,-3.4412,-3.4324,-3.4324,-3.4324,-3.4324,-3.4399,-3.465,-3.4525,-3.4324,-3.4324,-3.4525,-3.4726,-3.4726,-3.4512,-3.4324,-3.4324,-3.411,-3.3847,-3.3558,-3.2022,-2.9894,-2.7061,-2.611,-2.5742,-2.5742,-2.5742,-2.5742,-2.5742,-2.5742,-2.5742,-2.5742,-2.5742,-2.5742,-2.5742,-2.5742,-2.5742,-2.5742,-2.5957,-2.6074,-2.6074,-2.6289,-2.6406,-2.6406,-2.6611,-2.6709,-2.6719,-2.6273,-2.5722,-2.7826,-3.0412,-3.284,-3.4861,-3.5415,-3.5504,-3.5504,-3.5504,-3.5504,-3.5504,-3.6866,0.0,0.0,0.0,0.0,0.0,0.0,0.0,0.0,0.0,0.0,0.0,0.0,0.0,0.0,0.0,0.0,0.0,0.0,0.0,0.0,0.0,0.0,0.0,0.0,-3.4428,-3.4428,-3.3556,-3.3081,-3.3081,-3.3081,-3.3081,-3.3081,-3.3081,-3.3081,-3.3081,-3.3081,-3.3081,-3.3154,-3.4037,-3.3869,-3.3154,-3.4108,-3.3869,-3.3081,-3.3081,-3.337,-3.3759,-3.3759,-3.406,-3.4437,-3.4437,-3.4437,-3.4349,-3.3897,-3.3759,-3.3759,-3.3759,-3.3759,-3.3859,-3.4324,-3.4098,-3.3759,-3.3759,-3.411,-3.4437,-3.4437,-3.4085,-3.3759,-3.3759,-3.3208,-3.2797,-3.2797,-3.0687,-2.8402,-2.639,-2.583,-2.5742,-2.5742,-2.5742,-2.5742,-2.5742,-2.5742,-2.5742,-2.5742,-2.5742,-2.5742,-2.5742,-2.5742,-2.5742,-2.5742,-2.5742,-2.5742,-2.5742,-2.5742,-2.5742,-2.5742,-2.6103,-2.6279,-2.6279,-2.5247,-2.4666,-2.4231,-2.8022,-3.2188,-3.4122,-3.5055,-3.5504,-3.5504,-3.5504,-3.5504,0.0,0.0,0.0,0.0,0.0,0.0,0.0,0.0,0.0,0.0,0.0,0.0,0.0,0.0,0.0,0.0,0.0,0.0,0.0,0.0,0.0,0.0,0.0,-3.5061,-3.4897,-3.3869,0.0,-3.3313,-3.3154,-3.3081,-3.3081,-3.3081,-3.3081,-3.3081,-3.3081,-3.3081,-3.3081,-3.3081,-3.3081,-3.3081,-3.324,-3.324,-3.3081,-3.324,-3.324,-3.3081,-3.3081,-3.3131,-3.3181,-3.3181,-3.3232,-3.3294,-3.3294,-3.3294,-3.3282,-3.3206,-3.3181,-3.3181,-3.3181,-3.3181,-3.3206,-3.3282,-3.3244,-3.3181,-3.3181,-3.3244,-3.3294,-3.3294,-3.3244,-3.3181,-3.3181,-3.2288,-3.1412,-3.1412,-2.9407,-2.7778,-2.741,-2.639,-2.5742,-2.5742,-2.5742,-2.5742,-2.5742,-2.5742,-2.5742,-2.5742,-2.5742,-2.5742,-2.5742,-2.5742,-2.5742,-2.5742,-2.5742,-2.5742,-2.5742,-2.5742,-2.5742,-2.5742,-2.5791,-2.582,-2.5723,-2.4442,-2.3226,-2.5469,-2.814,-3.0868,-3.3529,-3.4471,-3.4839,-3.5359,-3.5504,-3.5504,0.0,0.0,0.0,0.0,0.0,0.0,0.0,0.0,0.0,0.0,0.0,0.0,0.0,0.0,0.0,0.0,0.0,0.0,0.0,0.0,0.0,0.0,-3.5224,-3.4428,-3.3797,-3.3313,0.0,-3.3081,-3.3081,-3.3081,-3.3081,-3.3081,-3.3081,-3.3081,-3.3081,-3.3081,-3.3081,-3.3081,-3.3081,-3.3081,-3.3081,-3.3081,-3.3081,-3.3081,-3.3081,-3.3081,-3.3081,-3.3081,-3.3081,-3.3081,-3.3081,-3.3081,-3.3081,-3.3081,-3.3081,-3.3081,-3.3081,-3.3081,-3.3081,-3.3081,-3.3081,-3.3081,-3.3081,-3.3081,-3.3081,-3.3081,-3.3081,-3.3081,-3.3081,-3.2884,-3.214,-3.1045,-2.9954,-2.9315,-2.8319,-2.7315,-2.6658,-2.611,-2.5742,-2.5742,-2.5742,-2.5742,-2.5742,-2.5742,-2.5742,-2.5742,-2.5742,-2.5742,-2.5742,-2.5742,-2.5742,-2.5742,-2.5742,-2.5742,-2.5742,-2.5742,-2.5742,-2.5742,-2.5742,-2.5742,-2.5635,-2.3583,-2.2257,-2.583,-2.7363,-2.8754,-3.1943,-3.3159,-3.3854,0.0,0.0,0.0,0.0,0.0,0.0,0.0,0.0,0.0,0.0,0.0,0.0,0.0,0.0,0.0,0.0,0.0,0.0,0.0,0.0,0.0,0.0,0.0,0.0,-3.4746,-3.4428,-3.3888,-3.2867,-3.2855,-3.2855,-3.2855,-3.3006,-3.3081,-3.3081,-3.3081,-3.3081,-3.3081,-3.3081,-3.3081,-3.3081,-3.3081,-3.3081,-3.3081,-3.3081,-3.3081,-3.3081,-3.3081,-3.3081,-3.3081,-3.3081,-3.3081,-3.3081,-3.3081,-3.3081,-3.3081,-3.3081,-3.3081,-3.3081,-3.3081,-3.3081,-3.3081,-3.3081,-3.3081,-3.3081,-3.3081,-3.3081,-3.3081,-3.3081,-3.3081,-3.2982,-3.2698,-3.2612,-3.2239,-3.0956,-2.9772,-2.868,-2.7778,-2.7305,-2.6754,-2.583,-2.5742,-2.5742,-2.5742,-2.5742,-2.5742,-2.5742,-2.5742,-2.5742,-2.5742,-2.5742,-2.5742,-2.5742,-2.5742,-2.5742,-2.5742,-2.5742,-2.5742,-2.5742,-2.5742,-2.5742,-2.5742,-2.5742,-2.5528,-2.5118,-2.2767,-2.155,-2.2498,-2.397,-2.5581,-2.8609,-3.0941,-3.2753,0.0,0.0,0.0,0.0,0.0,0.0,0.0,0.0,0.0,0.0,0.0,0.0,0.0,0.0,0.0,0.0,0.0,0.0,0.0,0.0,0.0,0.0,0.0,0.0,-3.4746,-3.3713,-3.2902,-3.2277,-3.2252,-3.2252,-3.2252,-3.2805,-3.3081,-3.3081,-3.3081,-3.3081,-3.3081,-3.3081,-3.3081,-3.3081,-3.3081,-3.3081,-3.3081,-3.3081,-3.3081,-3.3081,-3.3081,-3.3081,-3.3081,-3.3081,-3.3081,-3.3081,-3.3081,-3.3081,-3.3081,-3.3081,-3.3081,-3.3081,-3.3081,-3.3081,-3.3081,-3.3081,-3.3081,-3.3081,-3.3081,-3.3081,-3.3081,-3.3081,-3.3081,-3.2797,-3.1589,-3.1311,-3.0944,-2.9772,-2.8495,-2.7683,-2.7589,-2.6572,-2.5732,-2.5732,-2.5742,-2.5742,-2.5742,-2.5742,-2.5742,-2.5742,-2.5742,-2.5742,-2.5742,-2.5742,-2.5742,-2.5742,-2.5742,-2.5742,-2.5742,-2.5742,-2.5742,-2.5742,-2.5742,-2.5742,-2.5742,-2.5742,-2.502,-2.3791,-2.2357,-2.0939,-2.1971,-2.2788,-2.3872,-2.7015,-2.8934,-3.0372,-3.1727,-3.3384,0.0,0.0,0.0,0.0,0.0,0.0,0.0,0.0,0.0,0.0,0.0,0.0,0.0,0.0,0.0,0.0,0.0,0.0,0.0,0.0,0.0,0.0,-3.2611,-3.2225,-3.1901,-3.1687,-3.1687,-3.1687,-3.1687,-3.1888,-3.2001,-3.2001,-3.2001,-3.2001,-3.2001,-3.2001,-3.2001,-3.2001,-3.2001,-3.2403,-3.3081,-3.3081,-3.3081,-3.3081,-3.3081,-3.3081,-3.3081,-3.3081,-3.3081,-3.3081,-3.3081,-3.3081,-3.3081,-3.3081,-3.3081,-3.3081,-3.3081,-3.3081,-3.3081,-3.3081,-3.3081,-3.3081,-3.3081,-3.3081,-3.3081,-3.3081,-3.3081,-3.2525,-3.0496,-3.0033,-2.9681,-2.8505,-2.722,-2.638,-2.638,-2.6014,-2.5742,-2.5742,-2.5742,-2.5742,-2.5742,-2.5742,-2.5742,-2.5742,-2.5742,-2.5742,-2.5742,-2.5742,-2.5742,-2.5742,-2.5742,-2.5742,-2.5742,-2.5742,-2.5742,-2.5742,-2.4815,-2.4402,-2.4402,-2.4402,-2.3692,-2.2357,-2.1049,-2.0033,-2.1117,-2.1619,-2.2508,-2.5532,-2.6946,-2.8158,-3.0337,0.0,0.0,0.0,0.0,0.0,0.0,0.0,0.0,0.0,0.0,0.0,0.0,0.0,0.0,0.0,0.0,0.0,0.0,0.0,0.0,0.0,0.0,0.0,-3.1468,-3.1386,-3.1311,-3.1135,-3.1135,-3.1135,-3.1135,-3.1298,-3.1386,-3.1386,-3.1386,-3.1386,-3.1386,-3.1386,-3.1386,-3.1386,-3.1386,-3.1813,-3.2516,-3.2516,-3.2616,-3.278,-3.278,-3.2905,-3.3081,-3.3081,-3.3081,-3.3081,-3.3081,-3.3081,-3.3081,-3.3081,-3.3081,-3.3081,-3.3081,-3.3081,-3.3081,-3.3081,-3.3081,-3.3081,-3.3081,-3.3081,-3.3081,-3.3081,-3.2797,-3.1877,-2.9863,-2.9407,-2.8947,-2.7305,-2.6294,-2.5742,-2.5742,-2.5742,-2.5742,-2.5742,-2.5742,-2.5742,-2.5742,-2.5742,-2.5742,-2.5742,-2.5742,-2.5742,-2.5742,-2.5742,-2.5742,-2.5742,-2.5742,-2.5742,-2.5742,-2.5742,-2.5538,-2.502,-2.4196,-2.3285,-2.2366,-2.2776,-2.2366,-2.0939,-2.0033,-1.9324,0.0,0.0,0.0,-2.4017,0.0,0.0,-2.9495,0.0,0.0,0.0,0.0,0.0,0.0,0.0,0.0,0.0,0.0,0.0,0.0,0.0,0.0,0.0,0.0,0.0,0.0,0.0,0.0,0.0,0.0,-3.1336,-3.1336,-3.1336,-3.111,-3.0608,-3.0595,-3.0595,-3.0595,-3.1085,-3.1336,-3.1336,-3.1336,-3.1336,-3.1336,-3.1336,-3.1336,-3.1336,-3.1336,-3.1336,-3.1348,-3.1373,-3.17,-3.219,-3.219,-3.2541,-3.3056,-3.3056,-3.3056,-3.3081,-3.3081,-3.3081,-3.3081,-3.3081,-3.3081,-3.3081,-3.3081,-3.3081,-3.3081,-3.3081,-3.3081,-3.3081,-3.3081,-3.3081,-3.3081,-3.3068,-3.214,-3.0855,-2.959,-2.9315,-2.8588,-2.6197,-2.5742,-2.5742,-2.5742,-2.5742,-2.5742,-2.5742,-2.5742,-2.5742,-2.5742,-2.5742,-2.5742,-2.5742,-2.5742,-2.5742,-2.5742,-2.5742,-2.5742,-2.5742,-2.5742,-2.5742,-2.5742,-2.5635,-2.502,-2.3692,-2.3592,-2.2265,-1.9627,-2.0939,-2.0939,-1.9524,-1.9524,-1.8812,-1.9874,0.0,0.0,0.0,0.0,0.0,0.0,0.0,0.0,0.0,0.0,0.0,0.0,0.0,0.0,0.0,0.0,0.0,0.0,0.0,0.0,0.0,0.0,0.0,0.0,0.0,0.0,0.0,0.0,-3.0231,-3.0231,-3.0231,-3.0168,-3.003,-3.0018,-3.0018,-3.0018,-3.0168,-3.0231,-3.0231,-3.0231,-3.0231,-3.0231,-3.0231,-3.0231,-3.0231,-3.0231,-3.0231,-3.0294,-3.1072,-3.1486,-3.1625,-3.1625,-3.1964,-3.2453,-3.2453,-3.2717,-3.3081,-3.3081,-3.3081,-3.3081,-3.3081,-3.3081,-3.3081,-3.3081,-3.3081,-3.3081,-3.3081,-3.3081,-3.3081,-3.3081,-3.3081,-3.2884,-3.1952,-3.15,-3.0676,-2.8588,-2.8132,-2.7579,-2.6014,-2.5742,-2.5742,-2.5742,-2.5742,-2.5742,-2.5742,-2.5742,-2.5742,-2.5742,-2.5742,-2.5742,-2.5742,-2.5742,-2.5742,-2.5742,-2.5742,-2.5742,-2.5742,-2.5742,-2.5742,-2.5742,-2.4815,-2.4097,-2.3692,-2.176,-2.0341,-1.9627,-2.0033,-1.9524,-1.8199,-1.8199,-1.7996,-2.0589,-2.0752,-2.1179,-2.1882,0.0,0.0,0.0,-2.4962,0.0,0.0,0.0,0.0,0.0,0.0,0.0,0.0,0.0,0.0,0.0,0.0,0.0,0.0,0.0,0.0,0.0,0.0,0.0,0.0,-2.9792,-2.9792,-2.9792,-2.9792,-2.9792,-2.9792,-2.9792,-2.9792,-2.9792,-2.9792,-2.9792,-2.9792,-2.9792,-2.9792,-2.9792,-2.9792,-2.9792,-2.9792,-2.9792,-2.9792,-2.9842,-3.047,-3.0859,-3.1072,-3.1072,-3.1399,-3.1863,-3.1863,-3.2089,-3.2378,-3.2378,-3.2378,-3.2378,-3.2378,-3.2378,-3.2378,-3.2378,-3.2378,-3.2378,-3.2378,-3.2378,-3.2378,-3.2378,-3.2015,-3.1577,-3.0754,-2.9857,-2.8836,-2.7615,-2.6931,-2.6435,-2.579,-2.5742,-2.5742,-2.5742,-2.5742,-2.5742,-2.5742,-2.5742,-2.5742,-2.5742,-2.5742,-2.5742,-2.5742,-2.5742,-2.5742,-2.5742,-2.5742,-2.5742,-2.5742,-2.5742,-2.543,-2.4922,-2.4097,-2.3176,-2.1963,-2.0444,-1.9317,-1.8812,-1.8812,-1.8401,-1.7582,-1.7582,-1.7582,-2.1707,-2.1719,-2.2096,-2.3464,-2.2786,0.0,-2.4619,-2.4456,0.0,0.0,0.0,0.0,0.0,0.0,0.0,0.0,0.0,0.0,0.0,0.0,0.0,0.0,0.0,0.0,0.0,0.0,0.0,-2.9792,-2.9792,-2.9792,-2.9792,-2.9792,-2.9792,-2.9792,-2.9792,-2.9792,-2.9792,-2.9792,-2.9792,-2.9792,-2.9792,-2.9792,-2.9792,-2.9792,-2.9792,-2.9792,-2.9792,-2.9792,-2.9792,-2.9792,-3.008,-3.052,-3.052,-3.0846,-3.1298,-3.1298,-3.1336,-3.1386,-3.1386,-3.1386,-3.1386,-3.1386,-3.1386,-3.1386,-3.1386,-3.1386,-3.1386,-3.1386,-3.1386,-3.1386,-3.1223,-3.0538,-2.9773,-2.9496,-2.7841,-2.6378,-2.6545,-2.5815,-2.5117,-2.5518,-2.5664,-2.5742,-2.5742,-2.5742,-2.5742,-2.5742,-2.5742,-2.5742,-2.5742,-2.5742,-2.5742,-2.5742,-2.5742,-2.5742,-2.5742,-2.5742,-2.5742,-2.5742,-2.5742,-2.5118,-2.3791,-2.3583,-2.2265,-1.9627,-1.9428,-1.8812,-1.7582,-1.7582,-1.7582,-1.7582,-1.7582,-1.7582,-2.3062,-2.315,-2.3364,-2.2786,-2.3088,0.0,-2.2485,-2.2472,0.0,0.0,0.0,0.0,0.0,0.0,0.0,0.0,0.0,0.0,0.0,0.0,0.0,0.0,0.0,0.0,0.0,0.0,-2.9792,-2.9792,-2.9792,-2.9792,-2.9792,-2.9792,-2.9792,-2.9792,-2.9792,-2.9792,-2.9792,-2.9792,-2.9792,-2.9792,-2.9792,-2.9792,-2.9792,-2.9792,-2.9792,-2.9792,-2.9792,-2.9792,-2.9792,-2.9792,-2.9854,-2.9955,-2.9955,-3.0281,-3.0771,-3.0771,-3.1035,-3.1386,-3.1386,-3.1386,-3.1386,-3.1386,-3.1386,-3.1386,-3.1386,-3.1386,-3.1386,-3.1386,-3.1386,-3.1223,-3.0372,-2.9942,-2.9327,-2.7404,-2.6608,-2.6024,-2.5055,-2.4716,-2.457,-2.4658,-2.5254,-2.5742,-2.5742,-2.5742,-2.5742,-2.5742,-2.5742,-2.5742,-2.5742,-2.5742,-2.5742,-2.5742,-2.5742,-2.5742,-2.5742,-2.5742,-2.5742,-2.5742,-2.5742,-2.5118,-2.3791,-2.2667,-2.1347,-1.9627,-1.8506,-1.7891,-1.7582,-1.7582,-1.7582,-1.7582,-1.7582,-1.7582,-2.428,-2.4192,-2.4343,-2.4029,0.0,0.0,0.0,0.0,-2.2623,0.0,0.0,0.0,0.0,0.0,0.0,0.0,0.0,0.0,0.0,0.0,0.0,0.0,0.0,0.0,0.0,0.0,-2.9792,-2.9792,-2.9792,-2.9792,-2.9792,-2.9792,-2.9792,-2.9792,-2.9792,-2.9792,-2.9792,-2.9792,-2.9792,-2.9792,-2.9792,-2.9792,-2.9792,-2.9792,-2.9792,-2.9792,-2.9792,-2.9792,-2.9792,-2.9792,-2.9792,-2.9792,-2.9792,-2.9967,-3.0206,-3.0206,-3.0369,-3.0595,-3.0595,-3.0595,-3.0595,-3.0595,-3.0595,-3.0595,-3.0595,-3.0595,-3.0595,-3.0595,-3.0595,-3.0515,-2.993,-2.8986,-2.7885,-2.6689,-2.549,-2.4614,-2.4234,-2.4102,-2.417,-2.4375,-2.4775,-2.5146,-2.5371,-2.54,-2.5478,-2.5703,-2.5742,-2.5742,-2.5742,-2.5742,-2.5742,-2.5742,-2.5742,-2.5742,-2.5742,-2.5742,-2.5742,-2.5742,-2.5118,-2.4097,-2.2767,-2.1347,-2.0033,-1.861,-1.7891,-1.7582,-1.7582,-1.7582,-1.7582,-1.7582,-1.7582,-1.7582,-2.5724,-2.546,-2.5473,0.0,0.0,-2.4004,0.0,0.0,0.0,-2.3966,0.0,0.0,0.0,0.0,0.0,0.0,0.0,0.0,0.0,0.0,0.0,0.0,0.0,0.0,0.0,0.0,-2.9553,-2.9779,-2.9591,-2.9566,-2.9779,-2.9792,-2.9792,-2.9792,-2.9792,-2.9792,-2.9792,-2.9792,-2.9792,-2.9792,-2.9792,-2.9792,-2.9792,-2.9792,-2.9792,-2.9792,-2.9792,-2.9792,-2.9792,-2.9792,-2.9792,-2.9792,-2.9792,-2.9792,-2.9792,-2.9792,-2.9792,-2.9792,-2.9792,-2.9792,-2.9792,-2.9792,-2.9792,-2.9792,-2.9792,-2.9792,-2.9792,-2.9792,-2.9792,-2.9714,-2.93,-2.7799,-2.6389,-2.5975,-2.4478,-2.3232,-2.3584,-2.3662,-2.376,-2.4102,-2.417,-2.4336,-2.4853,-2.4941,-2.5068,-2.543,-2.5488,-2.5518,-2.5596,-2.5605,-2.5644,-2.5723,-2.5742,-2.5703,-2.5615,-2.5684,-2.5596,-2.5208,-2.4258,-2.2976,-2.1347,-1.993,-1.8708,-1.7582,-1.7582,-1.7555,-1.7502,-1.7502,-1.7528,-1.7582,-1.7582,-1.7582,0.0,0.0,0.0,0.0,-2.6214,0.0,0.0,0.0,-2.3439,-2.2133,0.0,0.0,0.0,0.0,0.0,0.0,0.0,0.0,0.0,0.0,0.0,0.0,0.0,0.0,0.0,0.0,0.0,-2.9716,-2.8863,-2.8737,-2.9741,-2.9792,-2.9792,-2.9792,-2.9792,-2.9792,-2.9792,-2.9792,-2.9792,-2.9792,-2.9792,-2.9792,-2.9792,-2.9792,-2.9792,-2.9792,-2.9792,-2.9792,-2.9792,-2.9792,-2.9792,-2.9792,-2.9792,-2.9792,-2.9792,-2.9792,-2.9792,-2.9792,-2.9792,-2.9792,-2.9792,-2.9792,-2.9792,-2.9792,-2.9792,-2.9792,-2.9792,-2.9792,-2.9792,-2.9378,-2.7383,-2.673,-2.5975,-2.3973,-2.3309,-2.3154,-2.3203,-2.3213,-2.3223,-2.3271,-2.3281,-2.3545,-2.4355,-2.4492,-2.4512,-2.456,-2.457,-2.4707,-2.5088,-2.5146,-2.5293,-2.5693,-2.5742,-2.5576,-2.5176,-2.5508,-2.5063,-2.3381,-2.3592,-2.2576,-1.9937,-1.8499,-1.7786,-1.7582,-1.7582,-1.7455,-1.7201,-1.7201,-1.7328,-1.7582,-1.7582,-1.7582,0.0,0.0,0.0,0.0,0.0,0.0,-2.4155,0.0,-2.3389,0.0,0.0,0.0,0.0,0.0,0.0,0.0,0.0,0.0,0.0,0.0,0.0,0.0,0.0,0.0,0.0,0.0,0.0,0.0,0.0,-2.8122,-2.9239,-2.9616,-2.9792,-2.9792,-2.9792,-2.9792,-2.9792,-2.9792,-2.9792,-2.9792,-2.9792,-2.9792,-2.9792,-2.9792,-2.9792,-2.9792,-2.9792,-2.9792,-2.9792,-2.9792,-2.9792,-2.9792,-2.9792,-2.9792,-2.9792,-2.9792,-2.9792,-2.9792,-2.9792,-2.9792,-2.9792,-2.9792,-2.9792,-2.9792,-2.9792,-2.9792,-2.9792,-2.9792,-2.9786,-2.9401,-2.7834,-2.6682,-2.5549,-2.4392,-2.3551,-2.3135,-2.3135,-2.3135,-2.3135,-2.3135,-2.3135,-2.3252,-2.3613,-2.3887,-2.4141,-2.4385,-2.4414,-2.4482,-2.4668,-2.4687,-2.4766,-2.4951,-2.4971,-2.4893,-2.4707,-2.4184,-2.3623,-2.2867,-2.1739,-2.0249,-1.8238,-1.7633,-1.7328,-1.7328,-1.7161,-1.7014,-1.6894,-1.6894,-1.6954,-1.7074,-1.7074,-1.7074,-2.8674,0.0,0.0,0.0,0.0,0.0,0.0,0.0,0.0,0.0,0.0,0.0,0.0,0.0,-2.2071,-2.1757,0.0,0.0,0.0,0.0,0.0,0.0,0.0,0.0,0.0,0.0,0.0,0.0,0.0,0.0,-2.885,-2.9327,-2.9628,-2.9779,-2.9792,-2.9792,-2.9792,-2.9792,-2.9792,-2.9792,-2.9792,-2.9792,-2.9792,-2.9792,-2.9792,-2.9792,-2.9792,-2.9792,-2.9792,-2.9792,-2.9792,-2.9792,-2.9792,-2.9792,-2.9792,-2.9792,-2.9792,-2.9792,-2.9792,-2.9792,-2.9792,-2.9792,-2.9792,-2.9792,-2.9792,-2.9792,-2.9817,-2.9839,-2.9816,-2.9462,-2.7998,-2.6662,-2.5434,-2.4584,-2.3714,-2.3135,-2.3135,-2.3135,-2.3135,-2.3135,-2.3135,-2.3135,-2.3135,-2.3398,-2.3711,-2.4023,-2.4062,-2.4111,-2.4228,-2.4248,-2.4287,-2.4404,-2.4127,-2.3894,-2.3779,-2.2729,-2.1925,-2.1544,-1.9657,-1.8117,-1.713,-1.7108,-1.7114,-1.7027,-1.6894,-1.6747,-1.6587,-1.6587,-1.6547,-1.6466,-1.6627,-1.6707,0.0,0.0,0.0,-2.703,0.0,0.0,0.0,0.0,-2.4619,0.0,0.0,0.0,0.0,-2.4305,-2.3565,-2.246,-2.2297,0.0,0.0,0.0,0.0,0.0,0.0,0.0,0.0,0.0,0.0,0.0,0.0,0.0,-2.8787,-2.895,-2.9214,-2.9779,-2.9792,-2.9792,-2.9792,-2.9792,-2.9792,-2.9792,-2.9792,-2.9792,-2.9792,-2.9792,-2.9792,-2.9792,-2.9792,-2.9792,-2.9792,-2.9792,-2.9792,-2.9792,-2.9792,-2.9792,-2.9792,-2.9792,-2.9792,-2.9792,-2.9792,-2.9792,-2.9792,-2.9792,-2.9792,-2.9792,-2.9792,-2.9792,-2.9789,-2.9824,-2.9776,-2.927,-2.7155,-2.648,-2.5894,-2.3717,-2.3135,-2.3135,-2.3135,-2.3135,-2.3135,-2.3135,-2.3135,-2.3135,-2.3135,-2.3154,-2.3164,-2.3184,-2.3184,-2.333,-2.375,-2.3809,-2.3965,-2.4375,-2.3364,-2.2451,-2.2079,-2.1328,-2.028,-1.8935,-1.7491,-1.672,-1.672,-1.7001,-1.7014,-1.6727,-1.6994,-1.6854,-1.6286,-1.6286,-1.6139,-1.5872,-1.644,-1.6707,0.0,0.0,-2.9428,-2.7921,0.0,0.0,0.0,0.0,0.0,0.0,0.0,0.0,0.0,-2.4368,-2.3753,-2.2987,-2.2548,-2.1933,0.0,0.0,0.0,0.0,0.0,0.0,0.0,0.0,0.0,0.0,0.0,0.0,0.0,-2.8536,-2.9013,-2.9214,-2.9591,-2.9792,-2.9792,-2.9792,-2.9792,-2.9792,-2.9792,-2.9792,-2.9792,-2.9792,-2.9792,-2.9792,-2.9792,-2.9792,-2.9792,-2.9792,-2.9792,-2.9792,-2.9792,-2.9792,-2.9792,-2.9792,-2.9792,-2.9792,-2.9792,-2.9792,-2.9792,-2.9792,-2.9792,-2.9792,-2.9792,-2.9275,-2.8852,-2.9585,-2.876,-2.7417,-2.665,-2.5391,-2.4018,-2.3242,-2.3135,-2.3135,-2.3135,-2.3135,-2.3135,-2.3135,-2.3135,-2.3135,-2.3135,-2.3135,-2.3135,-2.3135,-2.3135,-2.3193,-2.334,-2.3359,-2.3418,-2.3555,-2.2451,-2.1653,-2.1518,-1.9794,-1.8195,-1.6875,-1.6599,-1.642,-1.642,-1.6513,-1.652,-1.642,-1.6326,-1.6179,-1.5979,-1.5979,-1.5925,-1.5832,-1.6032,-1.6126,-2.9792,-2.9792,0.0,0.0,-2.757,0.0,-2.5398,0.0,0.0,0.0,0.0,0.0,0.0,-2.5209,-2.4318,-2.3565,-2.2799,-2.1857,0.0,-2.0351,0.0,0.0,0.0,0.0,0.0,0.0,-2.2887,-2.4418,0.0,0.0,0.0,0.0,-2.8235,-2.8624,-2.9189,-2.9478,-2.9478,-2.9691,-2.9792,-2.9792,-2.9792,-2.9792,-2.9792,-2.9792,-2.9792,-2.9792,-2.9792,-2.9792,-2.9792,-2.9792,-2.9792,-2.9792,-2.9792,-2.9792,-2.9792,-2.9792,-2.9792,-2.9792,-2.9792,-2.9792,-2.9792,-2.9792,-2.9792,-2.9792,-2.9792,-2.9275,-2.8657,-2.8659,-2.8175,-2.7313,-2.569,-2.4212,-2.3135,-2.3135,-2.3135,-2.3135,-2.3135,-2.3135,-2.3135,-2.3135,-2.3135,-2.3135,-2.3135,-2.3135,-2.3135,-2.3135,-2.3135,-2.3135,-2.3135,-2.3135,-2.3135,-2.3135,-2.2031,-2.0935,-2.0124,-1.8218,-1.6662,-1.5825,-1.6012,-1.6112,-1.6112,-1.6219,-1.6226,-1.6119,-1.6032,-1.5939,-1.5832,-1.5832,-1.5832,-1.5832,-1.5832,-1.5832]},{"header":{"parameterUnit":"m.s-1","parameterCategory":1,"la1":30.6,"la2":29.2853,"lo1":-89.7004,"lo2":-87.6739,"dy":0.0162,"dx":0.0183,"nx":112,"ny":82,"refTime":"2024-06-01T12:00:00:Z","depth":0,"parameterNumber":3,"parameterNumberName":"V-component_of_WINDS"},"data":[0.0,0.0,0.0,0.0,0.0,0.0,0.0,0.0,0.0,0.0,0.0,0.0,0.0,0.0,0.0,0.0,0.0,0.0,0.0,0.0,0.0,0.0,0.0,0.0,0.0,0.0,0.0,0.0,0.0,0.0,0.0,0.0,0.0,0.0,0.0,0.0,0.0,0.0,0.0,0.0,0.0,0.0,0.0,0.0,0.0,0.0,0.0,0.0,0.0,0.0,0.0,0.0,0.0,0.0,0.0,0.0,0.0,0.0,0.0,0.0,0.0,0.0,0.0,0.0,0.0,0.0,0.0,0.0,0.0,0.0,0.0,0.0,0.0,0.0,0.0,0.0,0.0,0.0,0.0,0.0,0.0,0.0,0.0,0.0,0.0,0.0,0.0,0.0,0.0,0.0,-3.1176,-3.3324,-3.5654,-3.7372,-3.8158,-3.6819,-3.4623,-3.136,0.0,0.0,0.0,0.0,0.0,0.0,0.0,0.0,0.0,0.0,0.0,0.0,0.0,0.0,0.0,0.0,0.0,0.0,0.0,0.0,0.0,0.0,0.0,0.0,0.0,0.0,0.0,0.0,0.0,0.0,0.0,0.0,0.0,0.0,0.0,0.0,0.0,0.0,0.0,0.0,0.0,0.0,0.0,0.0,0.0,0.0,0.0,0.0,0.0,0.0,0.0,0.0,0.0,0.0,0.0,0.0,0.0,0.0,0.0,0.0,0.0,0.0,0.0,0.0,0.0,0.0,0.0,0.0,0.0,0.0,0.0,0.0,0.0,0.0,0.0,0.0,0.0,0.0,0.0,0.0,0.0,0.0,0.0,0.0,0.0,0.0,0.0,0.0,0.0,0.0,0.0,0.0,0.0,0.0,0.0,0.0,0.0,0.0,0.0,0.0,0.0,0.0,0.0,0.0,-3.2169,-3.6468,-3.7046,-3.7515,-3.8503,-3.6654,-3.4659,-3.2973,0.0,0.0,0.0,0.0,0.0,0.0,0.0,0.0,0.0,0.0,0.0,0.0,0.0,0.0,0.0,0.0,0.0,0.0,0.0,0.0,0.0,0.0,0.0,0.0,0.0,0.0,0.0,0.0,0.0,0.0,0.0,0.0,0.0,0.0,0.0,0.0,0.0,0.0,0.0,0.0,0.0,0.0,0.0,0.0,0.0,0.0,0.0,0.0,0.0,0.0,0.0,0.0,0.0,0.0,0.0,0.0,0.0,0.0,0.0,0.0,0.0,0.0,0.0,0.0,0.0,0.0,0.0,0.0,0.0,0.0,0.0,0.0,0.0,0.0,0.0,0.0,0.0,0.0,0.0,0.0,0.0,0.0,0.0,0.0,0.0,0.0,0.0,0.0,0.0,0.0,0.0,0.0,0.0,0.0,0.0,0.0,0.0,0.0,0.0,0.0,0.0,0.0,0.0,-3.2467,-3.4794,-3.8708,-3.8699,-3.8725,-3.956,-3.7681,-3.5575,-3.3485,-3.0526,0.0,0.0,0.0,0.0,0.0,0.0,0.0,0.0,0.0,0.0,0.0,0.0,0.0,0.0,0.0,0.0,0.0,0.0,0.0,0.0,0.0,0.0,0.0,0.0,0.0,0.0,0.0,0.0,0.0,0.0,0.0,0.0,0.0,0.0,0.0,0.0,0.0,0.0,0.0,0.0,0.0,0.0,0.0,0.0,0.0,0.0,0.0,0.0,0.0,0.0,0.0,0.0,0.0,0.0,0.0,0.0,0.0,0.0,0.0,0.0,0.0,0.0,0.0,0.0,0.0,0.0,0.0,0.0,0.0,0.0,0.0,0.0,0.0,0.0,0.0,0.0,0.0,0.0,0.0,0.0,0.0,0.0,0.0,0.0,0.0,0.0,0.0,0.0,0.0,0.0,0.0,0.0,0.0,0.0,0.0,0.0,0.0,0.0,0.0,0.0,0.0,0.0,-3.5564,-3.7045,-3.9873,-3.9723,-3.9634,-4.0127,-3.8197,-3.5968,-3.3649,-3.0731,0.0,0.0,0.0,0.0,0.0,0.0,0.0,0.0,0.0,0.0,0.0,0.0,0.0,0.0,0.0,0.0,0.0,0.0,0.0,0.0,0.0,0.0,0.0,0.0,0.0,0.0,0.0,0.0,0.0,0.0,0.0,0.0,0.0,0.0,0.0,0.0,0.0,0.0,0.0,0.0,0.0,0.0,0.0,0.0,0.0,0.0,0.0,0.0,0.0,0.0,0.0,0.0,0.0,0.0,0.0,0.0,0.0,0.0,0.0,0.0,0.0,0.0,0.0,0.0,0.0,0.0,0.0,0.0,0.0,0.0,0.0,0.0,0.0,0.0,0.0,0.0,0.0,0.0,0.0,0.0,0.0,0.0,0.0,0.0,0.0,0.0,0.0,0.0,0.0,0.0,0.0,0.0,0.0,0.0,0.0,0.0,0.0,0.0,0.0,0.0,0.0,0.0,-3.5774,-3.7838,-3.9334,-3.9454,-3.9439,-3.9484,-3.712,-3.5026,-3.3589,-2.9864,0.0,0.0,0.0,0.0,0.0,0.0,0.0,0.0,0.0,0.0,0.0,0.0,0.0,0.0,0.0,0.0,0.0,0.0,0.0,0.0,0.0,0.0,0.0,0.0,0.0,0.0,0.0,0.0,0.0,0.0,0.0,0.0,0.0,0.0,0.0,0.0,0.0,0.0,0.0,0.0,0.0,0.0,0.0,0.0,0.0,0.0,0.0,0.0,0.0,0.0,0.0,0.0,0.0,0.0,0.0,0.0,0.0,0.0,0.0,0.0,0.0,0.0,0.0,0.0,0.0,0.0,0.0,0.0,0.0,0.0,0.0,0.0,0.0,0.0,0.0,0.0,0.0,0.0,0.0,0.0,0.0,0.0,0.0,0.0,0.0,0.0,0.0,0.0,0.0,0.0,0.0,0.0,0.0,0.0,0.0,0.0,0.0,0.0,0.0,0.0,0.0,0.0,-3.4831,-3.7045,0.0,-3.9424,-3.9245,-3.8811,-3.7494,-3.5609,-3.3051,0.0,0.0,0.0,0.0,0.0,0.0,0.0,0.0,0.0,0.0,0.0,0.0,0.0,0.0,0.0,0.0,0.0,0.0,0.0,0.0,0.0,0.0,0.0,0.0,0.0,0.0,0.0,0.0,0.0,0.0,0.0,0.0,0.0,0.0,0.0,0.0,0.0,0.0,0.0,0.0,0.0,0.0,0.0,0.0,0.0,0.0,0.0,0.0,0.0,0.0,0.0,0.0,0.0,0.0,0.0,0.0,0.0,0.0,0.0,0.0,0.0,0.0,0.0,0.0,0.0,0.0,0.0,0.0,0.0,0.0,0.0,0.0,0.0,0.0,0.0,0.0,0.0,0.0,0.0,0.0,0.0,0.0,0.0,0.0,0.0,0.0,0.0,0.0,0.0,0.0,0.0,0.0,0.0,0.0,0.0,0.0,0.0,0.0,0.0,0.0,0.0,0.0,-3.2108,-3.4622,-3.6956,0.0,-3.9424,-3.914,-3.8452,-3.7419,-3.5489,-3.2392,0.0,0.0,0.0,0.0,0.0,0.0,0.0,0.0,0.0,0.0,0.0,0.0,0.0,0.0,0.0,0.0,0.0,0.0,0.0,0.0,0.0,0.0,0.0,0.0,0.0,0.0,0.0,0.0,0.0,0.0,0.0,0.0,0.0,0.0,0.0,0.0,0.0,0.0,0.0,0.0,0.0,0.0,0.0,0.0,0.0,0.0,0.0,0.0,0.0,0.0,0.0,0.0,0.0,0.0,0.0,0.0,0.0,0.0,0.0,0.0,0.0,0.0,0.0,0.0,0.0,0.0,0.0,0.0,0.0,0.0,0.0,0.0,0.0,0.0,0.0,0.0,0.0,0.0,0.0,0.0,0.0,0.0,0.0,0.0,0.0,0.0,0.0,0.0,0.0,0.0,0.0,0.0,0.0,0.0,0.0,0.0,0.0,0.0,0.0,0.0,0.0,0.0,-3.2168,-3.537,-3.7928,-3.9275,-3.9424,-3.914,-3.8437,-3.6626,-3.4382,0.0,0.0,0.0,0.0,0.0,0.0,0.0,0.0,0.0,0.0,0.0,0.0,0.0,0.0,0.0,0.0,0.0,0.0,0.0,0.0,0.0,0.0,0.0,0.0,0.0,0.0,0.0,0.0,0.0,0.0,0.0,0.0,0.0,0.0,0.0,0.0,0.0,0.0,0.0,0.0,0.0,0.0,0.0,0.0,0.0,0.0,0.0,0.0,0.0,0.0,0.0,0.0,0.0,0.0,0.0,0.0,0.0,0.0,0.0,0.0,0.0,0.0,0.0,0.0,0.0,0.0,0.0,0.0,0.0,0.0,0.0,0.0,0.0,0.0,0.0,0.0,0.0,0.0,0.0,0.0,0.0,0.0,0.0,0.0,0.0,0.0,0.0,0.0,0.0,0.0,0.0,0.0,0.0,0.0,0.0,0.0,0.0,0.0,0.0,0.0,0.0,0.0,0.0,-3.1539,-3.51,-3.7928,-3.9275,-3.9424,-3.8945,-3.7793,-3.718,-3.5115,-3.1061,0.0,0.0,0.0,0.0,0.0,0.0,0.0,0.0,0.0,0.0,0.0,0.0,0.0,0.0,0.0,0.0,0.0,0.0,0.0,0.0,0.0,0.0,0.0,0.0,0.0,0.0,0.0,0.0,0.0,0.0,0.0,0.0,0.0,0.0,0.0,0.0,0.0,0.0,0.0,0.0,0.0,0.0,0.0,0.0,0.0,0.0,0.0,0.0,0.0,0.0,0.0,0.0,0.0,0.0,0.0,0.0,0.0,0.0,0.0,0.0,0.0,0.0,0.0,0.0,0.0,0.0,0.0,0.0,0.0,0.0,0.0,0.0,0.0,0.0,0.0,0.0,0.0,0.0,0.0,0.0,0.0,0.0,0.0,0.0,0.0,0.0,0.0,0.0,0.0,0.0,0.0,0.0,0.0,0.0,0.0,0.0,0.0,0.0,0.0,0.0,0.0,0.0,-3.124,-3.4966,-3.7823,-3.8901,-3.926,-3.8871,-3.7524,-3.7404,-3.5429,-3.0791,0.0,0.0,0.0,0.0,0.0,0.0,0.0,0.0,0.0,0.0,0.0,0.0,0.0,0.0,0.0,0.0,0.0,0.0,0.0,0.0,0.0,0.0,0.0,0.0,0.0,0.0,0.0,0.0,0.0,0.0,0.0,0.0,0.0,0.0,0.0,0.0,0.0,0.0,0.0,0.0,0.0,0.0,0.0,0.0,0.0,0.0,0.0,0.0,0.0,0.0,0.0,0.0,0.0,0.0,0.0,0.0,0.0,0.0,0.0,0.0,0.0,0.0,0.0,0.0,0.0,0.0,0.0,0.0,0.0,0.0,0.0,0.0,0.0,0.0,0.0,0.0,0.0,0.0,0.0,0.0,0.0,0.0,0.0,0.0,0.0,0.0,0.0,0.0,0.0,0.0,0.0,0.0,0.0,0.0,0.0,0.0,0.0,0.0,0.0,0.0,0.0,0.0,-3.1195,-3.4966,-3.7659,-3.8317,-3.9005,-3.8871,-3.7524,-3.7404,-3.5489,-3.0971,0.0,0.0,0.0,0.0,0.0,0.0,0.0,0.0,0.0,0.0,0.0,0.0,0.0,0.0,0.0,0.0,0.0,0.0,0.0,0.0,0.0,0.0,0.0,0.0,0.0,0.0,0.0,0.0,0.0,0.0,0.0,0.0,0.0,0.0,0.0,0.0,0.0,0.0,0.0,0.0,0.0,0.0,0.0,0.0,0.0,0.0,0.0,0.0,0.0,0.0,0.0,0.0,0.0,0.0,0.0,0.0,0.0,0.0,0.0,0.0,-1.8037,0.0,0.0,0.0,0.0,0.0,0.0,0.0,0.0,0.0,0.0,0.0,0.0,0.0,0.0,0.0,0.0,0.0,0.0,0.0,0.0,0.0,0.0,0.0,0.0,0.0,0.0,0.0,0.0,0.0,0.0,0.0,0.0,0.0,0.0,0.0,0.0,0.0,0.0,0.0,0.0,0.0,-3.1198,-3.4966,-3.7659,-3.8317,-3.9005,-3.8871,-3.7524,-3.7404,-3.5893,-3.2317,-3.0372,0.0,0.0,0.0,0.0,0.0,0.0,0.0,0.0,0.0,0.0,0.0,0.0,0.0,0.0,0.0,0.0,0.0,0.0,0.0,0.0,0.0,0.0,0.0,0.0,0.0,0.0,0.0,0.0,0.0,0.0,0.0,0.0,0.0,0.0,0.0,0.0,0.0,0.0,0.0,0.0,0.0,0.0,0.0,0.0,0.0,0.0,0.0,0.0,0.0,0.0,0.0,0.0,0.0,0.0,0.0,0.0,0.0,0.0,0.0,0.0,-1.917,0.0,0.0,0.0,0.0,0.0,0.0,0.0,0.0,0.0,0.0,0.0,0.0,0.0,0.0,0.0,0.0,0.0,0.0,0.0,0.0,0.0,0.0,0.0,0.0,0.0,0.0,0.0,0.0,0.0,0.0,0.0,0.0,0.0,0.0,0.0,0.0,0.0,0.0,0.0,0.0,-3.2138,-3.537,-3.7659,-3.8317,-3.8706,-3.8512,-3.7494,-3.7135,-3.5833,-3.3155,-3.1734,0.0,0.0,0.0,0.0,0.0,0.0,0.0,0.0,0.0,0.0,0.0,0.0,0.0,0.0,0.0,0.0,0.0,0.0,0.0,0.0,0.0,0.0,0.0,0.0,0.0,0.0,0.0,0.0,0.0,0.0,0.0,0.0,0.0,0.0,0.0,0.0,0.0,0.0,0.0,0.0,0.0,0.0,0.0,0.0,0.0,0.0,0.0,0.0,0.0,0.0,0.0,0.0,0.0,0.0,0.0,-2.2568,-2.292,-2.3076,-2.2998,-2.1553,-2.1172,-2.1475,0.0,0.0,0.0,0.0,0.0,0.0,0.0,0.0,0.0,0.0,0.0,0.0,0.0,0.0,0.0,0.0,0.0,0.0,0.0,0.0,0.0,0.0,0.0,0.0,0.0,-3.1159,-3.1541,0.0,0.0,0.0,0.0,0.0,0.0,0.0,0.0,0.0,0.0,0.0,0.0,-3.326,-3.5848,-3.7659,-3.8317,-3.8392,-3.8123,-3.7464,-3.6851,-3.5729,-3.3963,-3.311,-3.1719,0.0,0.0,0.0,0.0,0.0,0.0,0.0,0.0,0.0,0.0,0.0,0.0,0.0,0.0,0.0,0.0,0.0,0.0,0.0,0.0,0.0,0.0,0.0,0.0,0.0,0.0,0.0,0.0,0.0,0.0,0.0,0.0,-1.4766,-1.5625,0.0,0.0,0.0,0.0,0.0,0.0,0.0,0.0,0.0,0.0,0.0,0.0,0.0,0.0,-2.208,-2.3301,-2.3906,-2.3926,-2.4805,-2.5234,-2.5234,-2.5283,-2.5312,-2.5303,-2.5068,0.0,-2.2842,-2.2305,0.0,0.0,0.0,0.0,0.0,0.0,0.0,0.0,0.0,0.0,0.0,0.0,0.0,0.0,0.0,0.0,0.0,0.0,0.0,0.0,0.0,0.0,-3.0605,-3.2121,-3.2694,-3.3068,0.0,-3.2222,-3.0354,-2.842,0.0,0.0,0.0,0.0,0.0,0.0,0.0,0.0,-3.3993,-3.6133,-3.7659,-3.8317,-3.8392,-3.8123,-3.7464,-3.6851,-3.6133,-3.5295,-3.4053,-3.32,-3.2871,-3.0028,0.0,0.0,0.0,0.0,0.0,0.0,0.0,0.0,0.0,0.0,0.0,0.0,0.0,0.0,0.0,0.0,0.0,0.0,0.0,0.0,0.0,0.0,0.0,0.0,0.0,0.0,0.0,0.0,0.0,-1.4912,-1.6016,-1.6396,-1.6699,-1.6777,0.0,0.0,0.0,0.0,0.0,0.0,0.0,0.0,0.0,-2.2324,-2.2793,-2.3447,-2.4316,-2.5127,-2.5527,-2.5527,-2.6162,-2.6455,-2.6455,-2.6455,-2.6455,-2.6455,-2.6455,-2.6025,-2.5225,-2.4062,-2.3223,-2.2578,0.0,0.0,0.0,0.0,0.0,0.0,-2.8139,0.0,0.0,0.0,0.0,0.0,0.0,0.0,0.0,0.0,0.0,0.0,0.0,0.0,0.0,-3.3896,-3.4584,-3.5182,-3.6618,-3.6104,-3.4592,0.0,-3.0806,-2.9789,-2.8023,0.0,0.0,0.0,0.0,0.0,-3.4756,-3.6432,-3.7524,-3.7808,-3.7838,-3.7584,-3.6941,-3.6312,-3.5804,-3.5519,-3.4951,-3.4457,-3.4068,-3.2317,-3.0387,0.0,0.0,0.0,0.0,0.0,0.0,0.0,0.0,0.0,0.0,0.0,0.0,0.0,0.0,0.0,0.0,0.0,0.0,0.0,0.0,0.0,0.0,0.0,0.0,0.0,0.0,0.0,0.0,-1.5843,-1.7048,-1.7102,-1.7996,-1.8496,0.0,0.0,0.0,0.0,0.0,0.0,-2.1504,-2.1865,-2.2783,-2.4404,-2.4863,-2.5449,-2.6221,-2.6768,-2.7041,-2.7041,-2.7461,-2.7676,-2.7676,-2.7676,-2.7607,-2.75,-2.75,-2.7441,-2.7217,-2.5586,-2.4736,-2.4375,-2.3633,-2.3464,0.0,-2.6447,-2.7489,-2.8081,-3.0869,-3.1574,-3.111,-3.0269,0.0,-2.8511,-2.7256,0.0,0.0,0.0,0.0,-2.9792,-3.0771,0.0,-3.3101,-3.5131,-3.6128,-3.6957,-3.8364,-3.8512,-3.7614,0.0,-3.3978,-3.2856,-3.0731,0.0,0.0,0.0,0.0,-3.3544,-3.5714,-3.6686,-3.73,-3.7629,-3.736,-3.6985,-3.6522,-3.5893,-3.5504,-3.5504,-3.5504,-3.528,-3.4756,-3.4098,-3.2587,-3.0133,0.0,0.0,0.0,0.0,0.0,0.0,0.0,0.0,0.0,0.0,0.0,0.0,0.0,0.0,0.0,0.0,0.0,0.0,0.0,0.0,0.0,0.0,0.0,0.0,0.0,0.0,0.0,0.0,0.0,-1.8233,-1.9525,0.0,0.0,0.0,0.0,-2.1045,-2.1865,-2.29,-2.416,-2.4248,-2.4873,-2.6221,-2.667,-2.7109,-2.7568,-2.8379,-2.8789,-2.8799,-2.9238,-2.9443,-2.9443,-2.9443,-2.9219,-2.8818,-2.8818,-2.8603,-2.8125,-2.6826,-2.6279,-2.6211,-2.5752,-2.5557,-2.5912,-2.8332,-2.9239,-2.9591,-3.2141,-3.298,-3.2943,-3.2893,-3.1788,-3.047,-3.0382,-2.9993,0.0,0.0,-3.0846,-3.1399,-3.1976,-3.2954,-3.4126,-3.5782,-3.6993,-3.7979,-3.9133,-3.8856,-3.8153,0.0,-3.6701,-3.6043,-3.5295,0.0,-3.3514,-3.4143,-3.3784,-3.4382,-3.6985,-3.6851,-3.7,-3.8212,-3.7255,-3.6522,-3.6492,-3.5893,-3.5504,-3.5504,-3.5504,-3.5489,-3.5459,-3.4801,-3.3484,-3.1422,-2.9505,0.0,0.0,0.0,0.0,0.0,0.0,0.0,0.0,0.0,0.0,0.0,0.0,0.0,0.0,0.0,0.0,0.0,0.0,0.0,0.0,0.0,0.0,0.0,0.0,0.0,0.0,0.0,0.0,-2.0566,-2.154,0.0,-2.2002,-2.2627,-2.3105,-2.3271,-2.4092,-2.4912,-2.5644,-2.5684,-2.6279,-2.7568,-2.7764,-2.8174,-2.8887,-2.9189,-2.9336,-2.9336,-2.9492,-2.957,-2.957,-2.957,-2.9482,-2.9336,-2.9336,-2.9258,-2.9082,-2.8623,-2.7949,-2.7168,-2.6728,-2.7033,-2.7981,-2.9693,-3.0924,-3.1866,-3.3563,-3.4135,-3.4073,-3.3721,-3.3206,-3.2667,-3.2303,-3.2064,-3.2026,-3.2566,-3.2855,-3.3131,-3.3684,-3.4641,-3.5831,-3.7099,-3.791,-3.8754,-3.9802,-3.9529,-3.8975,-3.8751,-3.7823,-3.6746,-3.5684,-3.5789,-3.5804,-3.522,-3.5639,-3.6357,-3.7285,-3.7584,-3.7569,-3.721,-3.712,-3.6746,-3.5923,-3.5639,-3.5504,-3.5504,-3.5504,-3.5504,-3.5504,-3.4846,-3.3948,-3.2826,-3.0836,-2.8677,0.0,0.0,0.0,0.0,0.0,0.0,0.0,0.0,0.0,0.0,0.0,0.0,0.0,0.0,0.0,0.0,0.0,0.0,0.0,0.0,0.0,0.0,0.0,0.0,0.0,0.0,-2.1199,-2.1482,-2.2911,-2.373,-2.3584,-2.4482,-2.5078,-2.5078,-2.5752,-2.6416,-2.7002,-2.7031,-2.7549,-2.8691,-2.8857,-2.9209,-2.9775,-2.9941,-3.0019,-3.0019,-3.0019,-3.0019,-3.0019,-3.0019,-2.9932,-2.9785,-2.9785,-2.9707,-2.957,-2.957,-2.9072,-2.8262,-2.7822,-2.8357,-2.9606,-3.0888,-3.2264,-3.3635,-3.4792,-3.5152,-3.4939,-3.4575,-3.4324,-3.411,-3.3746,-3.3633,-3.3709,-3.4073,-3.4173,-3.4261,-3.4625,-3.5895,-3.7223,-3.7882,-3.8894,-3.9777,-4.0293,-4.0053,-3.9694,-3.9469,-3.8691,-3.7734,-3.6671,-3.718,-3.7375,-3.6312,-3.6866,-3.7494,-3.7719,-3.7928,-3.7823,-3.7195,-3.7105,-3.6746,-3.5908,-3.5624,-3.5504,-3.5504,-3.5504,-3.5504,-3.5504,-3.507,-3.45,-3.3819,-3.1931,-3.0429,-2.9508,0.0,0.0,0.0,0.0,0.0,0.0,0.0,0.0,0.0,0.0,0.0,0.0,0.0,0.0,0.0,0.0,0.0,0.0,0.0,0.0,0.0,0.0,0.0,-1.7913,-2.0188,-2.1726,-2.108,-2.3477,-2.4932,-2.4521,-2.5664,-2.6435,-2.6445,-2.6836,-2.7441,-2.8281,-2.833,-2.8721,-2.956,-2.999,-3.0205,-3.0215,-3.0664,-3.0889,-3.0889,-3.0889,-3.0889,-3.0889,-3.0889,-3.0644,-3.0215,-3.0215,-2.999,-2.9609,-2.9609,-2.96,-2.9551,-2.9111,-2.9611,-3.0546,-3.1847,-3.3266,-3.4678,-3.5966,-3.6019,-3.5567,-3.5567,-3.5215,-3.4776,-3.4776,-3.4776,-3.4776,-3.4776,-3.4776,-3.4776,-3.4776,-3.6445,-3.8104,-3.8187,-3.9838,-4.1235,-4.0591,-4.0427,-4.0217,-3.9574,-3.9424,-3.92,-3.8542,-3.8422,-3.8197,-3.7569,-3.7464,0.0,-3.8347,-3.7853,-3.7704,-3.8317,-3.7285,-3.6537,-3.6492,-3.5893,-3.5534,-3.5504,-3.5504,-3.5504,-3.5504,-3.5477,-3.5179,-3.4527,-3.2688,-3.2008,-3.2529,0.0,0.0,0.0,0.0,0.0,0.0,0.0,0.0,0.0,0.0,0.0,0.0,0.0,0.0,0.0,0.0,0.0,0.0,0.0,0.0,0.0,0.0,-2.037,-1.9463,-2.1303,-2.2979,-2.3419,-2.4675,-2.5635,-2.583,-2.6738,-2.7441,-2.7744,-2.8164,-2.8633,-2.9189,-2.9219,-2.9473,-3.001,-3.0137,-3.0361,-3.0693,-3.083,-3.0889,-3.0889,-3.0889,-3.0889,-3.0889,-3.0889,-3.082,-3.0703,-3.0703,-3.0635,-3.0527,-3.0527,-3.0322,-3.0094,-3.073,-3.154,-3.2469,-3.3885,-3.4978,-3.5858,-3.6263,-3.6257,-3.6132,-3.6132,-3.6031,-3.5906,-3.5906,-3.5906,-3.5906,-3.5906,-3.5906,-3.6079,-3.6949,-3.8255,-3.9559,-4.0475,-4.1412,-4.2043,-4.1863,-4.107,-4.0352,-4.0172,-3.9753,-3.9364,-3.917,-3.914,-3.9065,-3.8886,0.0,0.0,-3.911,-3.8975,-3.8736,-3.8422,-3.8078,-3.7494,-3.6567,-3.6312,-3.6013,-3.5534,-3.5504,-3.5504,-3.5504,-3.5007,-3.4744,-3.4632,-3.3583,-3.3064,0.0,0.0,0.0,0.0,0.0,0.0,0.0,0.0,0.0,0.0,0.0,0.0,0.0,0.0,0.0,0.0,0.0,0.0,0.0,0.0,0.0,0.0,-2.1025,-2.1923,-2.1646,-2.2814,-2.3994,-2.4863,-2.5742,-2.6445,-2.6885,-2.7695,-2.8291,-2.8535,-2.8945,-2.9375,-2.9814,-2.9834,-3.0029,-3.0478,-3.0488,-3.0615,-3.0889,-3.0889,-3.0889,-3.0889,-3.0889,-3.0889,-3.0889,-3.0889,-3.0889,0.0,-3.0889,-3.0889,-3.0889,-3.0889,-3.0732,0.0,0.0,0.0,0.0,0.0,-3.6356,-3.6671,-3.6445,-3.6358,-3.6358,-3.6358,-3.6358,-3.6358,-3.6358,-3.6358,-3.6358,-3.6358,-3.6709,-3.7243,-3.7939,-3.9346,-4.0746,-4.142,-4.2173,-4.2701,-4.2417,-4.1549,-4.0726,-4.0442,0.0,0.0,-3.9424,-3.9424,-3.9424,-3.9424,-3.9424,-3.9424,0.0,-3.9424,-3.9275,-3.8856,-3.8556,-3.8093,-3.7345,-3.6791,0.0,0.0,0.0,-3.5499,-3.5485,-3.5431,0.0,0.0,0.0,0.0,0.0,0.0,0.0,0.0,-3.6146,-3.6129,0.0,0.0,0.0,0.0,0.0,0.0,0.0,0.0,0.0,0.0,0.0,0.0,0.0,0.0,0.0,0.0,-2.2412,-2.3379,-2.3867,-2.4258,-2.4805,-2.5635,-2.6494,-2.7187,-2.7627,-2.8428,-2.8935,-2.8984,-2.9394,-2.9824,-3.0254,0.0,0.0,0.0,0.0,-3.0889,-3.0889,-3.0889,-3.0889,-3.0889,-3.0889,-3.0889,-3.0889,-3.0889,-3.0889,-3.0889,-3.0889,-3.0889,-3.0889,-3.0889,-3.1005,-3.1063,-3.0819,-3.2232,-3.4577,-3.6554,-3.7274,0.0,0.0,0.0,0.0,-3.6458,-3.6408,-3.6358,-3.6358,-3.6358,-3.6358,-3.6358,-3.715,-3.7939,-3.8198,-3.9858,-4.1504,-4.1767,-4.2548,-4.3165,-4.2596,-4.1953,-4.1324,-4.0726,-4.0083,-3.9619,-3.9544,-3.9469,-3.9424,-3.9424,-3.9424,0.0,-3.9424,-3.9424,-3.9424,-3.9424,0.0,0.0,-3.8407,-3.7285,-3.6552,-3.6492,-3.5863,-3.5525,-3.5643,-3.6306,-3.7086,-3.7916,-3.8689,-3.9496,-4.0206,-4.029,-4.0663,-4.1238,-3.7838,-3.7364,0.0,0.0,0.0,0.0,0.0,0.0,0.0,0.0,0.0,0.0,0.0,0.0,0.0,0.0,0.0,-2.21,-2.3057,-2.3935,-2.4717,-2.4893,-2.5137,-2.5674,-2.6494,-2.7187,-2.7627,-2.8428,-2.9062,-2.9414,-2.9834,-3.0273,-3.0732,-3.0752,0.0,-3.0889,-3.0889,-3.0889,-3.0889,-3.0889,-3.0889,-3.0889,0.0,0.0,-3.0889,-3.0889,-3.0889,-3.0889,-3.0889,-3.0889,-3.0889,-3.0889,-3.1546,-3.2706,-3.3318,-3.5336,-3.7885,-3.7854,-3.7852,-3.7839,-3.7726,-3.74,-3.7023,-3.7023,-3.6722,-3.6358,-3.6358,-3.6358,0.0,-3.6358,-3.6534,-3.715,-3.9108,-3.9885,-4.0661,-4.2548,-4.3155,-4.3299,-4.3165,-4.2626,-4.2132,-4.2013,-4.1444,-4.0831,-4.0307,-3.9768,-3.9424,-3.9424,-3.9424,-3.9424,-3.9424,-3.9424,-3.9424,-3.9424,-3.9305,-3.899,-3.8437,-3.7674,-3.7015,-3.6522,-3.5863,-3.5785,-3.6368,-3.6535,-3.7277,-3.864,-3.9483,-4.0258,-4.0984,-4.1576,-4.1948,-4.2049,-4.073,-4.0679,0.0,0.0,0.0,0.0,0.0,0.0,0.0,0.0,0.0,0.0,0.0,-1.9228,0.0,0.0,-2.2158,-2.3008,-2.3867,-2.458,-2.501,-2.5449,-2.5889,-2.6328,-2.6748,-2.7266,-2.792,-2.875,-2.9336,-2.9551,-3.0176,-3.0644,-3.0879,-3.0889,-3.0889,-3.0889,-3.0889,-3.0889,-3.0889,-3.0889,-3.0889,-3.0889,-3.0889,-3.0889,-3.0889,-3.0889,-3.0889,-3.0889,-3.0889,-3.0889,-3.1005,-3.1652,-3.2871,-3.427,-3.554,-3.6861,-3.8221,-3.8429,-3.8442,-3.8391,-3.8103,-3.7651,-3.7186,-3.7186,-3.681,-3.6358,-3.6358,-3.6358,-3.6358,-3.6358,-3.6803,-3.7691,-3.9461,-4.0318,-4.1169,-4.29,-4.3329,-4.3329,-4.3329,-4.2821,-4.2357,-4.2357,-4.1833,-4.1265,-4.095,-4.0621,-4.0172,-3.9514,-3.9424,-3.9424,-3.9424,-3.9424,-3.9424,-3.9424,-3.9424,-3.9275,-3.8931,-3.8287,-3.7494,-3.6552,-3.6462,-3.6663,-3.7142,-3.7871,-3.883,-4.0028,-4.0795,-4.1392,-4.1745,-4.2117,-4.2489,-4.2844,-4.2472,-4.2506,0.0,0.0,0.0,0.0,0.0,0.0,0.0,-1.7168,-1.8144,-1.9072,-1.9883,-2.0752,-2.1816,-2.2422,-2.3008,-2.3789,-2.456,-2.5098,-2.5185,-2.581,-2.6445,-2.6953,-2.709,-2.7441,-2.8213,-2.9062,-2.957,-2.957,-3.0391,-3.0889,-3.0889,-3.0889,-3.0889,-3.0889,-3.0889,-3.0889,-3.0889,-3.0889,-3.0889,-3.0889,-3.0889,-3.0889,-3.0889,-3.0889,-3.0889,-3.0889,-3.0889,-3.0889,-3.0995,-3.2747,-3.4181,-3.5508,-3.7252,-3.7914,-3.7971,-3.8749,-3.9032,-3.8969,-3.8504,-3.7977,-3.75,-3.7374,-3.6973,-3.6508,-3.6395,-3.6358,-3.6358,-3.6358,-3.707,-3.8121,-3.9536,-4.0575,-4.1601,-4.2996,-4.3329,-4.3329,-4.3329,-4.2925,-4.2551,-4.2551,-4.2132,-4.1713,-4.1594,-4.1564,-4.113,-3.9813,-3.9604,-3.9574,-3.9439,-3.9424,-3.9424,-3.9424,-3.9424,-3.9364,-3.923,-3.8706,-3.7898,-3.6746,-3.7135,-3.7607,-3.8107,-3.9277,-4.0383,-4.1415,-4.2152,-4.2506,-4.2506,-4.2658,-4.3047,-4.3656,-4.3792,-4.3859,-1.7075,-1.6458,-1.6331,-1.8013,-1.7561,-1.7307,0.0,-1.9805,-1.999,-2.126,-2.1894,-2.2266,-2.2412,-2.3096,-2.3799,-2.4268,-2.4756,-2.5205,-2.5605,-2.5742,-2.6113,-2.6914,-2.7363,-2.7773,-2.8252,-2.9062,-2.957,-2.957,-3.0391,-3.0889,-3.0889,-3.0889,-3.0889,-3.0889,-3.0889,-3.0889,-3.0889,-3.0889,-3.0889,-3.0889,-3.0889,-3.0889,-3.0889,-3.0889,-3.0889,-3.0889,-3.0889,-3.0889,-3.1112,-3.3866,-3.5178,-3.5617,-3.8372,-3.9465,-3.9465,-3.9622,-3.9597,-3.9597,-3.9521,-3.9145,-3.8592,-3.8078,-3.7538,-3.6998,-3.6508,-3.6358,-3.6358,-3.6358,-3.6452,-3.707,-3.9285,-3.9986,-4.0661,-4.282,-4.3329,-4.3329,-4.3329,-4.3284,-4.3225,-4.3225,-4.3165,-4.2925,-4.2357,-4.2252,-4.1803,-4.0487,-4.0292,-4.0083,-3.9499,-3.9424,-3.9424,-3.9424,-3.9424,-3.917,-3.8556,-3.8437,-3.8078,-3.736,-3.7375,-3.8055,-3.9575,-3.9838,-4.0603,-4.2179,-4.2892,-4.3301,-4.3301,-4.3978,-4.4367,-4.4468,-4.5145,-4.5449,-1.8524,-1.7966,-1.7538,-1.8923,-1.9104,-1.9162,-2.0033,-2.0644,-2.1289,-2.209,-2.2588,-2.2881,-2.2881,-2.3574,-2.4209,0.0,-2.5215,-2.581,-2.5742,-2.6172,-2.6523,-2.6641,-2.7256,-2.7832,-2.8252,-2.9062,-2.957,-2.957,-3.0391,-3.0889,-3.0889,-3.0889,-3.0889,-3.0889,-3.0889,-3.0889,-3.0889,-3.0889,-3.0889,-3.0889,-3.0889,-3.0889,-3.0889,-3.0889,-3.0889,-3.0889,-3.0889,-3.0889,-3.1112,-3.409,-3.5288,-3.5617,-3.8582,-3.9697,-3.9697,-3.9697,-3.9697,-3.9697,-3.9697,-3.912,-3.8329,-3.809,-3.7412,-3.6659,-3.6433,-3.6358,-3.6358,-3.6358,-3.6883,-3.7769,-3.9461,-4.0404,-4.1267,-4.29,-4.3329,-4.3329,-4.3329,-4.3329,-4.3329,-4.3329,-4.3329,-4.324,-4.297,-4.2925,-4.2611,-4.1683,-4.0891,-4.0307,-4.0023,-3.9649,-3.9424,-3.9424,-3.9424,-3.9305,-3.902,-3.899,-3.8888,-3.8727,-3.91,-3.99,-4.1238,-4.1645,-4.2442,-4.3623,-4.3927,-4.4096,-4.4096,-4.4418,-4.4807,-4.5246,-4.5568,-4.6177,-1.9399,-1.9027,-1.8578,-1.9659,-2.0244,-2.0561,-2.0476,-2.1289,-2.2178,-2.2598,-2.293,-2.3135,-2.3135,-2.374,-2.4277,-2.4394,-2.543,-2.6103,-2.5781,-2.6367,-2.6728,-2.6426,-2.7041,-2.7656,-2.8076,-2.8887,-2.9443,-2.956,-3.0273,-3.0752,-3.0889,-3.0889,-3.0889,-3.0889,-3.0889,-3.0889,-3.0889,-3.0889,-3.0889,-3.0889,-3.0889,-3.0889,-3.0889,-3.0889,-3.0889,-3.0889,-3.0889,-3.1112,-3.1652,-3.4191,-3.5508,-3.6162,-3.8699,-3.9697,-3.9697,-3.9697,-3.9697,-3.9697,-3.9697,-3.9157,-3.8417,-3.8103,-3.7462,-3.6759,-3.6458,-3.6358,-3.6358,-3.6358,-3.7243,-3.8379,-3.9549,-4.0746,-4.185,-4.3076,-4.3329,-4.3329,-4.3329,-4.3329,-4.3329,-4.3329,-4.3329,-4.3329,-4.3329,-4.3329,-4.3165,-4.2701,-4.1669,-4.0816,-4.0442,-3.9828,-3.9424,-3.9424,-3.9424,-3.9424,-3.9424,-3.9424,-3.9597,-3.9926,-4.0411,-4.1225,-4.2515,-4.301,-4.368,-4.457,-4.4587,-4.4587,-4.4587,-4.479,-4.5179,-4.572,-4.6126,-4.6887,-1.9136,-1.8829,-1.877,-2.0056,-2.0515,-2.083,-2.1631,-2.2168,-2.2617,-2.3027,-2.3125,-2.3135,-2.3135,-2.3506,-2.3945,-2.4346,-2.5166,-2.5752,-2.5742,-2.6123,-2.6406,-2.6387,-2.6768,-2.7207,0.0,-2.8447,-2.9111,-2.9541,-2.9971,-3.042,-3.0869,-3.0889,-3.0889,-3.0889,-3.0889,-3.0889,-3.0889,-3.0889,-3.0889,-3.0889,-3.0889,-3.0889,-3.0889,-3.0889,-3.0889,-3.0889,-3.0889,-3.1652,-3.3191,-3.4626,-3.6162,-3.7583,-3.9141,-3.9697,-3.9697,-3.9697,-3.9697,-3.9697,-3.9697,-3.9672,-3.9471,-3.8366,-3.799,-3.7764,-3.6684,-3.6358,-3.6358,-3.6358,-3.7243,-3.8379,-3.9549,-4.0746,-4.185,-4.3076,-4.3329,-4.3329,-4.3329,-4.3329,-4.3329,-4.3329,-4.3329,-4.3329,-4.3329,-4.3329,-4.3329,-4.3314,-4.2731,-4.1848,-4.0561,-3.9828,-3.9424,-3.9424,-3.9424,-3.9424,-3.9424,-3.9424,-3.9793,-4.0591,-4.0675,-4.1462,-4.3213,-4.329,-4.368,-4.457,-4.4587,-4.4587,-4.4587,-4.5314,-4.5686,-4.5737,-4.7192,-4.7868,-2.0917,-2.1187,-2.1442,-2.3024,-2.3549,-2.3837,-2.4395,-2.4011,-2.368,-2.3823,-2.2988,-2.2393,-2.2676,-2.3066,-2.3594,-2.4297,-2.54,-2.6172,-2.6172,-2.6787,-2.7031,-2.6455,-2.7012,0.0,0.0,0.0,0.0,-2.9531,-2.9961,-3.04,-3.0869,-3.0889,-3.0889,-3.0889,-3.0889,-3.0889,-3.0889,-3.0889,-3.0889,-3.0889,-3.0889,-3.0889,-3.0889,-3.0889,-3.0889,-3.0889,-3.0889,-3.1767,-3.318,-3.4736,-3.6162,-3.769,-3.9129,-3.9697,-3.9697,-3.9697,-3.9697,-3.9697,-3.9697,-3.9459,-3.9019,-3.8253,-3.7764,-3.7324,-3.6584,-3.6358,-3.6358,-3.6358,-3.7769,-3.936,-3.9812,-4.1267,-4.2805,-4.325,-4.3329,-4.3329,-4.3329,-4.3329,-4.3329,-4.3329,-4.3329,-4.3329,-4.3329,-4.3329,-4.318,-4.2746,-4.2132,-4.1384,-4.0516,-3.9828,-3.9424,-3.9424,-3.9424,-3.9424,-3.9424,-3.9424,-3.999,-4.1478,-4.1543,-4.2316,-4.4064,-4.4138,-4.4327,-4.457,-4.4587,-4.4823,-4.5331,-4.5585,-4.621,-4.7192,-4.7682,-4.8173,-2.1991,-2.2714,-2.3317,-2.4492,-2.5066,-2.5464,-2.552,-2.5117,-2.4545,-2.3977,-2.3084,-2.2347,-2.232,-2.251,-2.3018,-2.4023,-2.5166,-2.6025,-2.6348,-2.7129,-2.7402,-2.6699,-2.7373,-2.7783,0.0,0.0,0.0,-2.9551,-2.9961,-3.04,-3.0869,-3.0889,-3.0889,-3.0889,-3.0889,-3.0889,-3.0889,-3.0889,-3.0889,-3.0889,-3.0889,-3.0889,-3.0889,-3.0889,-3.0889,-3.0889,-3.0889,-3.1988,-3.3957,-3.4958,-3.6499,-3.836,-3.9349,-3.9697,-3.9697,-3.9697,-3.9697,-3.9697,-3.9697,-3.9459,-3.9032,-3.8266,-3.7764,-3.7337,-3.6584,-3.6358,-3.6452,-3.6883,-3.8392,-3.9986,-4.0404,-4.1879,-4.3329,-4.3329,-4.3329,-4.3329,-4.3329,-4.3329,-4.3329,-4.3329,-4.3329,-4.3329,-4.3329,-4.3329,-4.3195,-4.2776,-4.2147,-4.1414,-4.0516,-4.0023,-3.9679,-3.9454,-3.9424,-3.9424,-3.9424,-3.9666,-4.0447,-4.1933,-4.2252,-4.3092,-4.457,-4.4587,-4.4587,-4.4587,-4.484,-4.5229,-4.5703,-4.6244,-4.6989,-4.7919,-4.8189,-4.8562,-2.2495,-2.3518,-2.4436,-2.4545,-2.5294,-2.5882,-2.5306,-2.5419,-2.5178,-2.3663,-2.3297,-2.2897,-2.2004,-2.1816,-2.2275,-2.3545,-2.4512,-2.541,-2.6299,-2.7158,-2.7549,0.0,0.0,0.0,0.0,0.0,0.0,-2.96,0.0,-3.04,-3.0869,-3.0889,-3.0889,-3.0889,-3.0889,-3.0889,-3.0889,-3.0889,-3.0889,-3.0889,-3.0889,-3.0889,-3.0889,-3.0889,-3.0889,-3.0889,-3.0889,-3.254,-3.5288,-3.5288,-3.7049,-3.9697,-3.9697,-3.9697,-3.9697,-3.9697,-3.9697,-3.9697,-3.9697,-3.9697,-3.9509,-3.8379,-3.8002,-3.7801,-3.6697,-3.6358,-3.6628,-3.7756,-3.9006,-4.0145,-4.1337,-4.2467,-4.3329,-4.3329,-4.3329,-4.3329,-4.3329,-4.3329,-4.3329,-4.3329,-4.3329,-4.3329,-4.3329,-4.3329,-4.3329,-4.3329,-4.2806,-4.1953,-4.0666,-4.0442,-4.0172,-3.9544,-3.9439,-3.9424,-3.9424,-4.017,-4.108,-4.1933,-4.2847,-4.368,-4.457,-4.4587,-4.4587,-4.4587,-4.5314,-4.572,-4.5771,-4.7208,-4.7936,-4.7986,-4.868,-4.9001,-2.4573,-2.5933,-2.7186,-2.763,-2.824,-2.8607,-2.8056,-2.6772,-2.5534,-2.4749,-2.2802,-2.1334,-2.1377,-2.141,-2.1816,-2.3115,-2.459,0.0,-2.6728,-2.7598,0.0,-2.7978,-2.8437,-2.876,-2.876,-2.9531,0.0,0.0,-3.0137,-3.04,-3.0869,-3.0889,-3.0889,-3.0889,-3.0889,-3.0889,-3.0889,-3.0889,-3.0889,-3.0889,-3.0889,-3.0889,-3.0889,-3.0889,-3.0889,-3.0889,-3.0889,-3.254,-3.5288,-3.5288,-3.7049,-3.9697,-3.9697,-3.9697,-3.9697,-3.9697,-3.9697,-3.9697,-3.9697,-3.9697,-3.9509,-3.8379,-3.8002,-3.7801,-3.6697,-3.6358,-3.6628,-3.7756,-3.9006,-4.0145,-4.1337,-4.2467,-4.3329,-4.3329,-4.3329,-4.3329,-4.3329,-4.3329,-4.3329,-4.3329,-4.3329,-4.3329,-4.3329,-4.3329,-4.3329,-4.3329,-4.3195,-4.2791,-4.1968,-4.101,-4.0337,-4.0172,-3.9709,-3.9424,-3.9424,-4.017,-4.108,-4.1933,-4.2847,-4.368,-4.457,-4.4587,-4.4587,-4.4587,-4.5314,-4.5974,-4.6515,-4.7462,-4.8189,-4.8731,-4.8917,-4.9001,-2.5737,-2.7193,-2.8536,-2.885,-2.9164,-2.9202,-2.8386,-2.7148,-2.5657,-2.4241,-2.249,-2.1096,-2.0665,-2.0813,-2.1309,-2.2422,-2.4043,0.0,-2.6592,-2.748,-2.8154,-2.8525,-2.8945,-2.9277,-2.9463,-3.0098,-3.0508,0.0,-3.0508,-3.0615,-3.0879,-3.0889,-3.0889,-3.0889,-3.0889,-3.0889,-3.0889,-3.0889,-3.0889,-3.0889,-3.0889,-3.0889,-3.0889,-3.0889,-3.0889,-3.0889,0.0,-3.3201,-3.5398,-3.6054,-3.7595,-3.9697,-3.9697,-3.9697,-3.9697,-3.9697,-3.9697,-3.9659,-3.9421,-3.9333,-3.9182,-3.8291,-3.8002,-3.7801,-3.6697,-3.6709,-3.7415,-3.8559,-3.9697,-4.0916,-4.2029,-4.2805,-4.3329,-4.3329,-4.3329,-4.3329,-4.3329,-4.3329,-4.3329,-4.3329,-4.3329,-4.3329,-4.3329,-4.3329,-4.3329,-4.3329,-4.3329,-4.321,-4.2836,-4.1893,-4.104,-4.0457,-4.0068,-3.9854,-3.995,-4.0758,-4.1674,-4.252,-4.3366,-4.4064,-4.457,-4.4587,-4.4739,-4.506,-4.5805,-4.6549,-4.7293,-4.8037,-4.8612,-4.9001,-4.9001,-4.9001,-2.659,-2.7833,-2.895,-2.9026,-2.8988,-2.8637,-2.7532,-2.6741,-2.5573,-2.3111,-2.2163,-2.1486,-2.0204,-2.0493,-2.1153,-2.1895,-2.3437,-2.5061,-2.6201,-2.7129,-2.7998,-2.8896,-2.9336,-2.9756,-3.0244,-3.0654,-3.0889,-3.0889,-3.0889,-3.0889,-3.0889,-3.0889,-3.0889,-3.0889,-3.0889,-3.0889,-3.0889,-3.0889,-3.0889,-3.0889,-3.0889,-3.0889,-3.0889,-3.0889,-3.0889,-3.1005,0.0,0.0,-3.5398,-3.6918,-3.836,-3.9697,-3.9697,-3.9697,-3.9697,-3.9697,-3.9647,-3.9521,-3.9032,-3.8818,-3.8668,-3.809,-3.7902,-3.7701,-3.6671,-3.7057,-3.8121,-3.9536,-4.0575,-4.1684,-4.2981,-4.3329,-4.3329,-4.3329,-4.3329,-4.3329,-4.3329,-4.3329,-4.3329,-4.3329,-4.3329,-4.3329,-4.3329,-4.3329,-4.3329,-4.3329,-4.3329,-4.3329,-4.3329,-4.2761,-4.1923,-4.0786,-4.0634,-4.0622,-4.0808,-4.1736,-4.2618,-4.3246,-4.4306,-4.4823,-4.4739,-4.4823,-4.5179,-4.5838,-4.6566,-4.7259,-4.7919,-4.8646,-4.9001,-4.9001,-4.9001,-4.9001,-2.8097,-2.8712,-2.9038,-2.9528,-2.9289,-2.8637,-2.7532,-2.6151,-2.4693,-2.3269,-2.203,-2.1131,-2.0854,-2.1632,-2.2368,-2.2428,-2.4245,-2.5776,-2.63,-2.7129,-2.8105,-2.9316,-2.9521,-2.9883,-3.0693,-3.084,0.0,0.0,0.0,0.0,-3.0889,-3.0889,-3.0889,-3.0889,-3.0889,-3.0889,-3.0889,-3.0889,-3.0889,-3.0889,-3.0889,-3.0889,-3.0889,-3.0889,-3.0889,-3.1005,0.0,0.0,-3.5398,-3.6918,-3.836,-3.9697,-3.9697,-3.9697,-3.9697,-3.9697,-3.9408,-3.9007,-3.8906,-3.8555,-3.8065,-3.7513,-3.7324,-3.7211,-3.6558,-3.6534,-3.715,-3.9285,-4.0073,-4.0675,-4.2725,-4.3329,-4.3329,-4.3329,-4.3329,-4.3329,-4.3329,-4.3329,-4.3329,-4.3329,-4.3329,-4.3329,-4.3329,-4.3329,-4.3329,-4.3329,-4.3329,-4.3329,-4.3329,-4.2761,-4.2267,-4.2043,-4.1736,-4.1503,-4.1504,-4.3057,-4.3793,-4.3339,-4.5261,-4.6143,-4.5534,-4.6092,-4.6464,-4.6599,-4.7344,-4.7784,-4.7919,-4.8646,-4.9001,-4.9001,-4.9001,-4.9001,-2.8285,-2.8938,-2.9453,-2.9729,-2.9139,-2.821,-2.7105,-2.5586,-2.3991,-2.2573,-2.1384,-2.0594,-2.0594,-2.1236,-2.1989,-2.254,-2.4111,-2.5483,-2.6364,-2.6999,-2.7971,-2.9447,-2.957,-2.9922,-3.081,-3.0889,-3.0889,0.0,0.0,0.0,-3.0889,-3.0889,-3.0889,-3.0889,-3.0889,-3.0889,-3.0889,-3.0889,-3.0889,-3.0889,-3.0889,-3.0889,-3.0889,-3.0889,-3.0889,-3.0995,0.0,0.0,-3.5508,-3.7701,-3.9025,-3.9697,-3.9697,-3.9697,-3.9697,-3.9697,-3.9346,-3.8831,-3.853,-3.8052,-3.7487,-3.6935,-3.6948,-3.7073,-3.6521,-3.7243,-3.8482,-3.9549,-4.076,-4.1961,-4.2996,-4.3329,-4.3329,-4.3329,-4.3329,-4.3329,-4.3329,-4.3329,-4.3329,-4.3329,-4.3329,-4.3329,-4.3329,-4.3329,-4.3329,-4.3329,-4.3329,-4.3329,-4.3329,-4.306,-4.2746,-4.2387,-4.2325,-4.2256,-4.2365,-4.3637,-4.4412,-4.4549,-4.5984,-4.6633,-4.6295,-4.6599,-4.6972,-4.7361,-4.7733,-4.8105,-4.8477,-4.8832,-4.9001,-4.9001,-4.9001,-4.9001,-2.8222,-2.9026,-2.9792,-2.9792,-2.8938,-2.7821,-2.6716,-2.5084,-2.3376,-2.1807,-2.0949,-2.0469,-2.0469,-2.1125,-2.1957,-2.2829,-2.4093,-2.5385,-2.6573,-2.7378,-2.8463,-3.0096,-3.0469,-3.0883,-3.1802,-3.1556,0.0,0.0,0.0,0.0,-3.0889,-3.0889,-3.0889,-3.0889,-3.0889,-3.0889,-3.0889,-3.0889,-3.0889,-3.0889,-3.0889,-3.0889,-3.0889,-3.1218,-3.1325,-3.1556,0.0,0.0,0.0,-3.8582,-3.9697,-3.9697,-3.9697,-3.9697,-3.9697,-3.9697,-3.927,-3.8617,-3.8165,-3.7563,-3.6935,-3.6508,-3.6659,-3.6923,-3.6496,-3.7874,-3.9536,-3.9812,-4.1365,-4.2981,-4.325,-4.3329,-4.3329,-4.3329,-4.3329,-4.3329,-4.3329,-4.3329,-4.3329,-4.3329,-4.3329,-4.3329,-4.3329,-4.3329,-4.3329,-4.3329,-4.3329,-4.3329,-4.3329,-4.3329,-4.309,-4.2432,-4.2748,-4.3088,-4.3249,-4.4306,-4.5123,-4.5662,-4.6684,-4.7192,-4.7039,-4.7192,-4.7547,-4.8139,-4.8156,-4.8426,-4.9001,-4.9001,-4.9001,-4.9001,-4.9001,-4.9001,-2.8586,-2.9315,-2.9792,-2.9792,-2.8938,-2.7821,-2.6716,-2.477,-2.2887,-2.1732,-2.1425,-2.1369,-2.1369,-2.267,-2.3744,-2.3836,-2.5151,-2.6493,-2.7433,-2.8807,-3.0433,-3.2491,-3.3121,0.0,-3.4759,-3.3631,0.0,0.0,0.0,0.0,0.0,-3.0889,-3.0889,-3.0889,-3.0889,-3.0889,-3.0889,-3.0889,-3.0889,-3.0889,-3.0889,-3.0889,-3.1005,-3.2311,-3.2861,-3.3077,0.0,0.0,0.0,-3.9025,-3.9697,-3.9697,-3.9697,-3.9697,-3.9697,-3.9697,-3.9007,-3.8078,-3.8027,-3.7312,-3.6433,-3.6383,-3.6395,-3.642,-3.637,-3.723,-3.8469,-3.9623,-4.0831,-4.2029,-4.3076,-4.3329,-4.3329,-4.3329,-4.3329,-4.3329,-4.3329,-4.3329,-4.3329,-4.3329,-4.3329,-4.3329,-4.3329,-4.3329,-4.3329,-4.3329,-4.3329,-4.3329,-4.3329,-4.3329,-4.309,-4.2432,-4.3283,-4.3955,-4.4178,-4.5634,-4.6338,-4.5754,-4.7648,-4.8511,-4.7851,-4.8443,-4.8832,-4.89,-4.89,-4.8934,-4.9001,-4.9001,-4.9001,-4.9001,-4.9001,-4.9001,-2.8222,-2.9101,-2.9792,-2.9792,-2.8938,-2.7821,-2.6716,-2.4732,-2.2912,-2.2146,-2.1455,-2.1192,-2.1857,-2.2535,-2.3329,-2.4284,-2.4988,-2.5925,-2.7498,-2.823,-2.9635,-3.2163,-3.271,-3.3447,0.0,0.0,0.0,0.0,0.0,0.0,0.0,-3.1325,-3.0889,-3.0889,-3.0889,-3.0889,-3.0889,-3.0889,-3.1334,-3.2207,-3.2207,-3.2644,-3.354,-3.4191,-3.4403,-3.4515,0.0,0.0,0.0,-3.9129,-3.9697,-3.9697,-3.9697,-3.9697,-3.9697,-3.9697,-3.8981,-3.8002,-3.8002,-3.7287,-3.6358,-3.6358,-3.6358,-3.6534,-3.7243,-3.8211,-3.9448,-4.0575,-4.1767,-4.2725,-4.317,-4.3329,-4.3329,-4.3329,-4.3329,-4.3329,-4.3329,-4.3329,-4.3329,-4.3329,-4.3329,-4.3329,-4.3329,-4.3329,-4.3329,-4.3329,-4.3329,-4.3329,-4.3329,-4.3329,-4.3145,-4.2648,-4.2978,-4.3279,-4.3509,-4.5082,-4.6123,-4.638,-4.802,-4.8883,-4.8578,-4.8849,-4.9001,-4.9001,-4.9001,-4.9001,-4.9001,-4.9001,-4.9001,-4.9001,-4.9001,-4.9001,-2.7419,-2.8561,-2.9503,-2.934,-2.8574,-2.757,-2.6452,-2.4607,-2.2975,-2.2422,-2.1694,-2.1393,-2.2171,-2.2447,-2.305,-2.4582,-2.5096,-2.5921,-2.7813,-2.8515,-2.9687,-3.2178,0.0,-3.3742,0.0,0.0,0.0,0.0,0.0,0.0,0.0,-3.2758,-3.2217,-3.2217,-3.2217,-3.2217,-3.2217,-3.2217,-3.2758,-3.3744,-3.3744,-3.4292,-3.5288,-3.5727,-3.5945,0.0,0.0,0.0,0.0,-3.9245,-3.9697,-3.9697,-3.9697,-3.9697,-3.9672,-3.9509,-3.8831,-3.799,-3.7814,-3.7149,-3.6358,-3.6358,-3.6358,-3.6722,-3.8211,-3.9183,-4.0073,-4.0831,-4.2126,-4.3329,-4.3329,-4.3329,-4.3329,-4.3329,-4.3329,-4.3329,-4.3329,-4.3329,-4.3329,-4.3329,-4.3329,-4.3329,-4.3329,-4.3329,-4.3329,-4.3329,-4.3329,-4.3329,-4.3329,-4.3329,-4.3117,-4.2762,-4.2695,-4.2801,-4.3089,-4.4628,-4.5845,-4.6406,-4.7868,-4.868,-4.868,-4.8883,-4.9001,-4.9001,-4.9001,-4.9001,-4.9001,-4.9001,-4.9001,-4.9001,-4.9001,-4.9001,-2.6189,-2.7682,-2.88,-2.826,-2.7708,-2.6992,-2.5862,-2.4318,-2.2975,-2.2422,-2.2297,-2.2297,-2.2309,-2.2761,-2.3502,-2.4632,-2.5737,-2.703,-2.8625,-3.0344,-3.18,0.0,0.0,-3.5299,-3.7048,0.0,0.0,0.0,0.0,0.0,0.0,0.0,-3.5288,-3.5288,-3.5288,-3.5288,-3.5288,-3.5288,-3.53,-3.53,-3.53,-3.53,-3.5398,-3.6811,0.0,0.0,0.0,0.0,0.0,-3.9685,-3.9697,-3.9697,-3.9697,-3.9697,-3.9634,-3.9082,-3.8504,-3.7927,-3.7374,-3.6822,-3.6358,-3.6358,-3.6358,-3.6803,-3.9197,-3.9899,-3.9899,-3.9899,-4.1532,-4.3329,-4.3329,-4.3329,-4.3329,-4.3329,-4.3329,-4.3329,-4.3329,-4.3329,-4.3329,-4.3329,-4.3329,-4.3329,-4.3329,-4.3329,-4.3329,-4.3329,-4.3329,-4.3329,-4.3329,-4.3329,-4.3117,-4.2762,-4.2695,-4.2874,-4.3239,-4.4767,-4.572,-4.572,-4.7107,-4.7936,-4.7936,-4.8612,-4.9001,-4.9001,-4.9001,-4.9001,-4.9001,-4.9001,-4.9001,-4.9001,-4.9001,-4.9001,-2.5146,-2.6276,-2.7105,-2.654,-2.6251,-2.5937,-2.5234,-2.4067,-2.3027,-2.2852,-2.2573,-2.2422,-2.2811,-2.2965,-2.3615,-2.5109,-2.5636,-2.659,-2.8637,-3.0043,0.0,-3.342,-3.5956,-3.7914,0.0,0.0,0.0,0.0,0.0,0.0,0.0,0.0,-3.7382,-3.5409,-3.5288,-3.5288,-3.5288,-3.5288,-3.5836,-3.6811,-3.6811,-3.737,-3.8372,-3.8804,0.0,0.0,0.0,0.0,0.0,-3.9697,-3.9697,-3.9697,-3.9697,-3.9697,-3.9634,-3.9082,-3.8504,-3.7927,-3.7374,-3.6822,-3.6358,-3.6358,-3.6358,-3.6722,-3.8211,-3.9271,-4.0246,-4.1796,-4.2725,-4.3329,-4.3329,-4.3329,-4.3329,-4.3329,-4.3329,-4.3329,-4.3329,-4.3329,-4.3329,-4.3329,-4.3329,-4.3329,-4.3329,-4.3329,-4.3329,-4.3329,-4.3329,-4.3329,-4.3329,-4.3927,-4.3927,-4.2834,-4.3838,-4.4204,-4.3361,-4.4224,-4.5093,-4.5645,-4.709,-4.7919,-4.7919,-4.8612,-4.9001,-4.9001,-4.9001,-4.9001,-4.9001,-4.9001,-4.9001,-4.9001,-4.9001,-4.9001,-2.3929,-2.4996,-2.5749,-2.5385,-2.531,-2.5172,-2.4632,-2.3791,-2.3078,-2.3078,-2.2802,-2.2723,-2.3015,-2.3078,-2.3615,-2.5071,-2.5649,-2.6553,-2.836,0.0,0.0,-3.3947,0.0,0.0,0.0,0.0,0.0,0.0,0.0,0.0,0.0,0.0,-3.8816,-3.7049,-3.6942,-3.6942,-3.6942,-3.6942,-3.7382,-3.8348,-3.8348,-3.8804,-3.9697,0.0,0.0,0.0,0.0,0.0,0.0,-3.9697,-3.9697,-3.9672,-3.9471,-3.9383,-3.9295,-3.8517,-3.8002,-3.7613,-3.7061,-3.6646,-3.6358,-3.6358,-3.6989,-3.7861,-3.8559,-3.961,-4.093,-4.282,-4.3329,-4.3329,-4.3329,-4.3329,-4.3329,-4.3329,-4.3329,-4.3329,-4.3329,-4.3329,-4.3329,-4.3329,-4.3329,-4.3329,-4.3329,-4.3329,-4.3329,-4.3329,-4.3329,-4.3329,-4.3329,-4.3849,-4.4079,-4.3678,-4.4629,-4.5111,-4.467,-4.453,-4.4808,-4.5628,-4.6836,-4.7631,-4.7902,-4.8612,-4.9001,-4.9001,-4.9001,-4.9001,-4.9001,-4.9001,-4.9001,-4.9001,-4.9001,-4.9001,0.0,-2.3753,-2.4569,-2.4544,-2.4556,-2.4456,-2.3991,-2.3464,0.0,-2.3065,-2.3078,-2.3103,-2.3238,-2.3165,-2.359,-2.4795,-2.585,-2.6904,0.0,-3.0093,0.0,0.0,-3.583,0.0,0.0,0.0,0.0,0.0,0.0,0.0,0.0,0.0,0.0,-3.9634,-3.9672,-3.9697,-3.9697,-3.9697,-3.9697,-3.9697,-3.9697,-3.9697,-3.9697,0.0,0.0,0.0,0.0,0.0,0.0,-3.9572,-3.9572,-3.9521,-3.9007,-3.8806,-3.868,-3.7588,-3.7186,-3.7098,-3.6558,-3.6358,-3.6358,-3.6358,-3.7952,-3.9899,-3.9899,-4.0746,-4.1932,-4.2981,-4.3329,-4.3329,-4.3329,-4.3329,-4.3329,-4.3329,-4.3329,-4.3329,-4.3329,-4.3329,-4.3329,-4.3329,-4.3329,-4.3329,-4.3329,-4.3329,-4.3329,-4.3329,-4.3329,-4.3329,-4.3329,-4.3394,-4.3945,-4.4951,-4.5234,-4.5701,-4.6718,-4.5534,-4.5043,-4.5737,-4.6464,-4.7192,-4.7885,-4.8612,-4.9001,-4.9001,-4.9001,-4.9001,-4.9001,-4.9001,-4.9001,-4.9001,-4.9001,-4.9001,-2.1029,0.0,-2.2171,-2.1744,-2.1958,-2.2347,0.0,-2.2598,-2.2623,-2.305,-2.3078,-2.3401,-2.4268,-2.4079,-2.4431,-2.6389,-2.6917,-2.7469,-2.8586,0.0,0.0,-3.6295,0.0,0.0,0.0,0.0,0.0,0.0,0.0,0.0,0.0,0.0,0.0,-3.9082,-3.9471,-3.9697,-3.9697,-3.9697,-3.9697,-3.9697,-3.9697,-3.9697,-3.9685,0.0,0.0,0.0,0.0,0.0,0.0,-3.8404,-3.8404,-3.8391,-3.8266,-3.8216,-3.8128,-3.7437,-3.7186,-3.7098,-3.6558,-3.6358,-3.6358,-3.6358,-3.7952,-3.9899,-3.9899,-4.1267,-4.2981,-4.325,-4.3329,-4.3329,-4.3329,-4.3329,-4.3329,-4.3329,-4.3329,-4.3329,-4.3329,-4.3329,-4.3329,-4.3329,-4.3329,-4.3329,-4.3329,-4.3329,-4.3329,-4.3329,-4.3329,-4.3329,-4.3329,-4.4615,-4.5421,-4.516,-4.6388,-4.7122,-4.6853,-4.6464,-4.6346,-4.6532,-4.7242,-4.7733,-4.7919,-4.8612,-4.9001,-4.9001,-4.9001,-4.9001,-4.9001,-4.9001,-4.9001,-4.9001,-4.9001,-4.9001,-2.0188,-2.1054,-2.1857,-2.1807,-2.2221,-2.2648,-2.2686,-2.2686,-2.2698,-2.2749,-2.2902,-2.3341,-2.428,-2.4406,-2.4933,-2.6628,-2.7331,0.0,0.0,0.0,-3.4387,-3.6885,0.0,0.0,0.0,0.0,0.0,0.0,0.0,0.0,0.0,0.0,0.0,0.0,-3.8768,-3.917,-3.9685,-3.9697,-3.9697,-3.9697,-3.9697,-3.9559,-3.9308,0.0,0.0,0.0,0.0,0.0,-3.8002,-3.8002,-3.8002,-3.799,-3.7726,-3.7626,-3.7563,-3.701,-3.681,-3.6759,-3.6471,-3.6358,-3.6358,-3.6358,-3.7952,-3.9899,-3.9899,-4.1532,-4.3329,-4.3329,-4.3329,-4.3329,-4.3329,-4.3329,-4.3329,-4.3329,-4.3329,-4.3329,-4.3329,-4.3329,-4.3329,-4.3329,-4.3329,-4.3329,-4.3329,-4.3329,-4.3329,-4.3329,-4.3329,-4.3329,-4.3329,-4.4631,-4.5563,-4.5591,-4.6881,-4.7776,-4.7834,-4.78,-4.7665,-4.7327,-4.7699,-4.8071,-4.8409,-4.8798,-4.9001,-4.9001,-4.9001,-4.9001,-4.9001,-4.9001,-4.9001,-4.9001,-4.9001,-4.9001,-2.0012,-2.128,-2.2598,-2.2723,-2.3251,-2.3615,-2.3065,-2.2952,-2.284,-2.2523,-2.2887,-2.3489,-2.423,-2.4757,-2.5485,-2.6766,0.0,0.0,-3.2767,-3.3608,-3.4688,0.0,0.0,0.0,0.0,0.0,0.0,0.0,0.0,0.0,0.0,0.0,0.0,0.0,-3.7965,-3.8467,-3.9421,-3.9521,-3.9572,-3.9572,-3.9572,-3.9283,-3.873,-3.8655,0.0,0.0,0.0,0.0,-3.7751,-3.7751,-3.7751,-3.7713,-3.7249,-3.7061,-3.6998,-3.6533,-3.6358,-3.6358,-3.6358,-3.6358,-3.6452,-3.6628,-3.8134,-3.9899,-4.0073,-4.1616,-4.3329,-4.3329,-4.3329,-4.3329,-4.3329,-4.3329,-4.3329,-4.3329,-4.3329,-4.3329,-4.3329,-4.3329,-4.3329,-4.3329,-4.3329,-4.3329,-4.3329,-4.3329,-4.3329,-4.3329,-4.3329,-4.3329,-4.3329,-4.4143,-4.5153,-4.6103,-4.702,-4.8015,-4.8923,-4.9001,-4.8731,-4.8122,-4.8088,-4.8359,-4.8984,-4.9001,-4.9001,-4.9001,-4.9001,-4.9001,-4.9001,-4.9001,-4.9001,-4.9001,-4.9001,-4.9001,-2.0966,-2.246,-2.3301,-2.1493,-2.1807,-2.2548,-2.246,-2.2435,-2.2548,-2.2924,-2.3464,-2.4318,-2.5812,-2.6151,-2.6892,-2.895,0.0,-3.106,0.0,0.0,0.0,0.0,0.0,0.0,0.0,0.0,0.0,0.0,0.0,0.0,0.0,0.0,0.0,0.0,0.0,-3.809,-3.8266,-3.8755,-3.8994,-3.8994,-3.8994,-3.8693,-3.8115,-3.7663,-3.74,0.0,0.0,0.0,-3.6621,-3.6621,-3.6621,-3.6609,-3.6521,-3.6483,-3.6471,-3.6395,-3.6358,-3.6358,-3.6358,-3.6358,-3.6534,-3.7494,-3.8738,-4.0073,-4.1085,-4.229,-4.3329,-4.3329,-4.3329,-4.3329,-4.3329,-4.3329,-4.3329,-4.3329,-4.3329,-4.3329,-4.3329,-4.3329,-4.3329,-4.3329,-4.3329,-4.3329,-4.3329,-4.3329,-4.3329,-4.3329,-4.3329,-4.3329,-4.3329,-4.4143,-4.5153,-4.6103,-4.702,-4.8015,-4.8923,-4.9001,-4.8951,-4.8849,-4.8832,-4.8883,-4.9001,-4.9001,-4.9001,-4.9001,-4.9001,-4.9001,-4.9001,-4.9001,-4.9001,-4.9001,-4.9001,-4.9001,-2.0439,-2.1807,-2.2912,-2.2184,-2.3514,-2.4833,-2.4217,-2.433,-2.4456,-2.4117,-2.4481,-2.5184,-2.6332,-2.6703,-2.7632,-2.9867,0.0,-3.2039,0.0,0.0,0.0,0.0,0.0,0.0,0.0,0.0,0.0,0.0,0.0,0.0,0.0,0.0,0.0,0.0,0.0,0.0,-3.7563,-3.7826,-3.8115,-3.8404,-3.8404,-3.8115,-3.755,-3.7299,-3.7023,0.0,0.0,-3.6358,-3.6358,-3.6358,-3.6358,-3.6358,-3.6358,-3.6358,-3.6358,-3.6358,-3.6358,-3.6358,-3.6358,-3.6358,-3.6628,-3.7769,-3.8917,-4.0145,-4.1253,-4.2371,-4.3329,-4.3329,-4.3329,-4.3329,-4.3329,-4.3329,-4.3329,-4.3329,-4.3329,-4.3329,-4.3329,-4.3329,-4.3329,-4.3329,-4.3329,-4.3329,-4.3329,-4.3329,-4.3329,-4.3329,-4.3329,-4.3488,-4.4066,-4.493,-4.5905,-4.6884,-4.7803,-4.8513,-4.894,-4.9001,-4.9001,-4.9001,-4.9001,-4.9001,-4.9001,-4.9001,-4.9001,-4.9001,-4.9001,-4.9001,-4.9001,-4.9001,-4.9001,-4.9001,-4.9001,-4.9001,-2.0326,-2.1418,-2.2636,-2.3201,-2.4946,-2.6389,-2.59,-2.5937,-2.5912,-2.5322,-2.5624,-2.6163,-2.6741,-2.7607,0.0,-3.052,-3.17,0.0,0.0,0.0,0.0,0.0,0.0,0.0,0.0,0.0,0.0,0.0,0.0,0.0,0.0,0.0,0.0,0.0,0.0,0.0,-3.6985,-3.6998,-3.7262,-3.7814,-3.7814,-3.7525,-3.6998,-3.6998,-3.6759,-3.6358,-3.6358,-3.6358,-3.6358,-3.6358,-3.6358,-3.6358,-3.6358,-3.6358,-3.6358,-3.6358,-3.6358,-3.6358,-3.6358,-3.6534,-3.6977,-3.8121,-3.936,-4.049,-4.1684,-4.2629,-4.3329,-4.3329,-4.3329,-4.3329,-4.3329,-4.3329,-4.3329,-4.3329,-4.3329,-4.3329,-4.3329,-4.3329,-4.3329,-4.3329,-4.3329,-4.3329,-4.3329,-4.3329,-4.3409,-4.363,-4.363,-4.3989,-4.5005,-4.5778,-4.6539,-4.7523,-4.8225,-4.8781,-4.9001,-4.9001,-4.9001,-4.9001,-4.9001,-4.9001,-4.9001,-4.9001,-4.9001,-4.9001,-4.9001,-4.9001,-4.9001,-4.9001,-4.9001,-4.9001,-4.9001,-4.9001,-2.1857,-2.2585,-2.3213,-2.3791,-2.4092,-2.4619,-2.6063,-2.5636,-2.5209,-2.6151,-2.6779,-2.7331,-2.7883,-2.9691,-3.1148,-3.1311,0.0,0.0,0.0,0.0,0.0,0.0,0.0,0.0,0.0,0.0,0.0,0.0,0.0,0.0,0.0,0.0,0.0,0.0,0.0,0.0,-3.642,-3.642,-3.6697,-3.7249,-3.7249,-3.696,-3.642,-3.642,-3.6408,-3.6358,-3.6358,-3.6358,-3.6358,-3.6358,-3.6358,-3.6358,-3.6358,-3.6358,-3.6358,-3.6358,-3.6358,-3.6358,-3.6358,-3.7057,-3.8198,-3.936,-4.0575,-4.1684,-4.282,-4.325,-4.3329,-4.3329,-4.3329,-4.3329,-4.3329,-4.3329,-4.3329,-4.3329,-4.3329,-4.3329,-4.3329,-4.3329,-4.3329,-4.3329,-4.3329,-4.3329,-4.3329,-4.3329,-4.363,-4.451,-4.4662,-4.5005,-4.5977,-4.6173,-4.6539,-4.7523,-4.7655,-4.808,-4.894,-4.9001,-4.9001,-4.9001,-4.9001,-4.9001,-4.9001,-4.9001,-4.9001,-4.9001,-4.9001,-4.9001,-4.9001,-4.9001,-4.9001,-4.9001,-4.9001,-4.9001,-2.1179,-2.2184,-2.3215,-2.3853,-2.477,-2.5787,-2.6753,-2.7457,-2.7934,-2.7984,-2.8448,-2.88,-2.8649,-2.9867,-3.1009,-3.1336,0.0,0.0,0.0,0.0,0.0,0.0,0.0,0.0,0.0,0.0,0.0,0.0,0.0,0.0,0.0,0.0,0.0,0.0,0.0,0.0,0.0,-3.6358,-3.6471,-3.6671,-3.6671,-3.6571,-3.6358,-3.6358,-3.6358,-3.6358,-3.6358,-3.6358,-3.6358,-3.6358,-3.6358,-3.6358,-3.6358,-3.6358,-3.6358,-3.6358,-3.6358,-3.6358,-3.6358,-3.715,-3.8289,-3.9536,-4.0661,-4.185,-4.2981,-4.3329,-4.3329,-4.3329,-4.3329,-4.3329,-4.3329,-4.3329,-4.3329,-4.3329,-4.3329,-4.3329,-4.3329,-4.3329,-4.3329,-4.3329,-4.3329,-4.3329,-4.3329,-4.3329,-4.3494,-4.4016,-4.4103,-4.4485,-4.5567,-4.5701,-4.6044,-4.6999,-4.7077,-4.7278,-4.7614,-4.7631,-4.7631,-4.7631,-4.8494,-4.9001,-4.9001,-4.9001,-4.9001,-4.9001,-4.9001,-4.9001,-4.9001,-4.9001,-4.9001,-4.9001,-4.9001,-4.9001,-2.123,-2.2133,-2.3314,-2.4067,-2.5234,-2.6427,-2.7344,-2.8561,-2.9503,-2.9465,-2.9779,-2.998,-2.9754,-3.0344,0.0,0.0,0.0,0.0,0.0,0.0,0.0,0.0,0.0,0.0,0.0,0.0,0.0,0.0,0.0,0.0,0.0,0.0,0.0,0.0,0.0,0.0,0.0,-3.6358,-3.6534,-3.6977,-3.6977,-3.6709,-3.6358,-3.6358,-3.6358,-3.6358,-3.6358,-3.6358,-3.6358,-3.6358,-3.6358,-3.6358,-3.6358,-3.6358,-3.6358,-3.6358,-3.6358,-3.6452,-3.6803,-3.7678,-3.8814,-4.0059,-4.1183,-4.229,-4.3076,-4.3329,-4.3329,-4.3329,-4.3329,-4.3329,-4.3329,-4.3329,-4.3329,-4.3329,-4.3329,-4.3329,-4.3329,-4.3329,-4.3329,-4.3329,-4.3329,-4.3329,-4.3329,-4.3165,-4.3163,-4.363,-4.3806,-4.424,-4.529,-4.5698,-4.6118,-4.6727,-4.6786,-4.6786,-4.6786,-4.6786,-4.6786,-4.6786,-4.775,-4.8409,-4.8646,-4.8663,-4.8765,-4.9001,-4.9001,-4.9001,-4.9001,-4.9001,-4.9001,-4.9001,-4.9001,-4.9001,-2.2447,-2.2723,-2.3366,-2.4544,-2.5222,-2.6063,-2.7745,-2.8549,-2.9264,-3.0394,-3.062,-3.0783,-3.1298,-3.1386,0.0,0.0,0.0,0.0,0.0,0.0,0.0,0.0,0.0,0.0,0.0,0.0,0.0,0.0,0.0,0.0,0.0,0.0,0.0,0.0,0.0,0.0,0.0,-3.6439,-3.6964,-3.8107,-3.8107,-3.7494,-3.6452,-3.6452,-3.6452,-3.6452,-3.6452,-3.6452,-3.6358,-3.6358,-3.6358,-3.6358,-3.6358,-3.6358,-3.6358,-3.6452,-3.6452,-3.6534,-3.7769,-3.8917,-4.0073,-4.1253,-4.2371,-4.3329,-4.3329,-4.3329,-4.3329,-4.3329,-4.3329,-4.3329,-4.3329,-4.3329,-4.3329,-4.3329,-4.3329,-4.3329,-4.3329,-4.3329,-4.3329,-4.3329,-4.3329,-4.3329,-4.3329,-4.2791,-4.2712,-4.3669,-4.399,-4.4427,-4.5398,-4.6223,-4.6769,-4.6769,-4.6769,-4.6769,-4.6769,-4.6769,-4.6769,-4.6769,-4.6769,-4.7107,-4.7868,-4.7919,-4.8257,-4.8984,-4.9001,-4.9001,-4.9001,-4.9001,-4.9001,-4.9001,-4.9001,-4.9001,-2.1995,-2.3,-2.4406,-2.4745,-2.6389,-2.8172,-2.9089,-2.9716,-3.0419,-3.1512,-3.1436,-3.121,-3.1361,-3.1386,0.0,0.0,0.0,0.0,0.0,0.0,0.0,0.0,0.0,0.0,0.0,0.0,0.0,0.0,0.0,0.0,0.0,0.0,0.0,0.0,0.0,0.0,0.0,0.0,-3.8573,-3.936,-3.891,-3.8762,-3.8841,-3.8841,-3.8392,-3.7586,-3.7586,-3.715,-3.6358,-3.6358,-3.6358,-3.6358,-3.6358,-3.6358,-3.6546,-3.7322,-3.7586,-3.7769,-3.8917,-4.0145,-4.1169,-4.1504,-4.2371,-4.3329,-4.3329,-4.3329,-4.3329,-4.3329,-4.3329,-4.3329,-4.3329,-4.3329,-4.3329,-4.3329,-4.3329,-4.3329,-4.3329,-4.3329,-4.3329,-4.3329,-4.3329,-4.3195,-4.2731,-4.3062,-4.3303,-4.3279,-4.3831,-4.4384,-4.4825,-4.5098,-4.5229,-4.5229,-4.5229,-4.5229,-4.5229,-4.5229,-4.5229,-4.5229,-4.5229,-4.5805,-4.7073,-4.7631,-4.802,-4.824,-4.8748,-4.9001,-4.9001,-4.9001,-4.9001,-4.9001,-4.9001,-4.9001,-2.3236,-2.4268,-2.5636,-2.6289,-2.7532,-2.8863,-2.988,-3.0708,-3.1499,-3.2365,-3.2102,-3.1788,-3.2014,-3.1876,0.0,0.0,0.0,0.0,0.0,0.0,0.0,0.0,0.0,0.0,0.0,0.0,0.0,0.0,0.0,0.0,0.0,0.0,0.0,0.0,0.0,0.0,0.0,0.0,0.0,-3.9761,-3.9368,-3.9645,-4.0442,-3.9507,-3.8724,-3.8027,-3.8027,-3.7599,-3.7,-3.6573,-3.6573,-3.691,-3.6573,-3.6664,-3.709,-3.7763,-3.8175,-3.8539,-3.977,-4.0787,-4.167,-4.2111,-4.2725,-4.3284,-4.303,-4.294,-4.294,-4.294,-4.294,-4.3015,-4.3269,-4.3135,-4.3015,-4.3269,-4.3329,-4.3329,-4.3329,-4.3135,-4.294,-4.294,-4.2731,-4.2432,-4.2043,-4.2526,-4.2816,-4.2527,-4.3282,-4.4059,-4.4508,-4.4587,-4.4587,-4.4587,-4.4587,-4.4587,-4.4587,-4.4587,-4.4587,-4.4587,-4.4587,-4.4976,-4.5872,-4.6633,-4.7175,-4.7462,-4.7902,-4.8122,-4.8122,-4.8426,-4.8578,-4.8578,-4.8866,-4.9001,-2.5356,-2.5967,-2.6841,-2.8448,-2.8599,-2.8737,-3.0269,-3.1411,-3.229,-3.2817,-3.2541,-3.2378,-3.2905,-3.2604,0.0,0.0,0.0,0.0,0.0,0.0,0.0,0.0,0.0,0.0,0.0,0.0,0.0,0.0,0.0,0.0,0.0,0.0,0.0,0.0,0.0,0.0,0.0,0.0,0.0,0.0,-3.9737,-4.0208,-4.1204,-3.9193,-3.8131,-3.8048,-3.7965,-3.7882,-3.7798,-3.6882,-3.7053,-3.7798,-3.681,-3.7053,-3.7882,-3.8048,-3.8477,-3.9131,-4.0306,-4.1102,-4.1758,-4.2802,-4.3165,-4.3045,-4.2447,-4.2267,-4.2267,-4.2267,-4.2267,-4.2417,-4.3,-4.2716,-4.2432,-4.3015,-4.3165,-4.3165,-4.3165,-4.2686,-4.2267,-4.2267,-4.1788,-4.1354,-4.1309,-4.1549,-4.1728,-4.1859,-4.2751,-4.368,-4.4514,-4.4587,-4.4587,-4.4587,-4.4587,-4.4587,-4.4587,-4.4587,-4.4587,-4.4587,-4.4587,-4.4587,-4.4587,-4.5314,-4.6024,-4.6684,-4.6752,-4.6786,-4.6786,-4.7479,-4.7817,-4.7834,-4.8494,-4.886,-2.4515,-2.5461,-2.6753,-2.7971,-2.9189,-3.0168,-3.0532,-3.111,-3.1599,-3.1725,-3.2001,-3.2252,-3.2378,0.0,0.0,0.0,0.0,0.0,0.0,0.0,0.0,0.0,0.0,0.0,0.0,0.0,0.0,0.0,0.0,0.0,0.0,0.0,0.0,0.0,0.0,0.0,-3.8243,-3.9305,-4.0288,0.0,-4.0455,-4.0367,-4.0621,-4.0645,-4.0124,-3.9207,-3.8297,-3.7882,-3.7882,-3.7631,-3.7715,-3.7882,-3.7631,-3.7715,-3.8048,-3.8883,-3.9306,-3.9582,-4.0827,-4.1332,-4.1466,-4.1727,-4.1803,-4.1773,-4.1624,-4.1594,-4.1594,-4.1594,-4.1594,-4.1624,-4.1758,-4.1698,-4.1624,-4.1773,-4.1803,-4.1803,-4.1803,-4.1683,-4.1594,-4.1594,-4.1474,-4.122,-4.0696,-4.1244,-4.1956,-4.2844,-4.3721,-4.4384,-4.4587,-4.4587,-4.4587,-4.4587,-4.4587,-4.4587,-4.4587,-4.4587,-4.4587,-4.4587,-4.4587,-4.4587,-4.4587,-4.5314,-4.5771,-4.594,-4.6498,-4.6786,-4.6786,-4.6955,-4.7039,-4.7039,-4.7192,-4.752,-2.5161,-2.6063,-2.718,-2.8561,-2.9578,-3.0218,-3.0218,-3.0432,-3.062,-3.062,-3.1474,-3.2215,0.0,0.0,0.0,0.0,0.0,0.0,0.0,0.0,0.0,0.0,0.0,0.0,0.0,0.0,0.0,0.0,0.0,0.0,0.0,0.0,0.0,0.0,0.0,0.0,-3.8318,-3.9372,-4.0113,-4.0442,-4.0098,-3.9933,-3.9948,-4.0292,-4.0114,-3.9466,-3.89,-3.8652,-3.8574,-3.8074,-3.8153,-3.8574,-3.8074,-3.8167,-3.8652,-3.9299,-3.9733,-4.0088,-4.0665,-4.1115,-4.1384,-4.1384,-4.1384,-4.1324,-4.101,-4.0905,-4.0905,-4.0905,-4.0905,-4.0995,-4.1294,-4.1145,-4.0905,-4.0905,-4.1145,-4.1384,-4.1384,-4.113,-4.0905,-4.0905,-4.0651,-4.0337,-3.9993,-4.0986,-4.2299,-4.373,-4.4327,-4.4587,-4.4587,-4.4587,-4.4587,-4.4587,-4.4587,-4.4587,-4.4587,-4.4587,-4.4587,-4.4587,-4.4587,-4.4587,-4.4587,-4.4959,-4.5162,-4.5162,-4.5534,-4.5737,-4.5737,-4.6092,-4.6261,-4.6278,-4.6914,-4.7374,-2.5948,-2.6906,-2.7801,-2.9252,-2.9716,-2.9792,-2.9792,-2.9792,-2.9792,-2.9792,-3.0934,0.0,0.0,0.0,0.0,0.0,0.0,0.0,0.0,0.0,0.0,0.0,0.0,0.0,0.0,0.0,0.0,0.0,0.0,0.0,0.0,0.0,0.0,0.0,0.0,-3.8069,-3.8069,-3.8943,-3.9424,-3.9424,-3.9424,-3.9424,-3.9424,-3.9424,-3.9424,-3.9424,-3.9424,-3.9424,-3.9337,-3.8472,-3.862,-3.9337,-3.8383,-3.862,-3.9424,-3.9424,-3.9768,-4.0232,-4.0232,-4.0591,-4.104,-4.104,-4.104,-4.0935,-4.0397,-4.0232,-4.0232,-4.0232,-4.0232,-4.0352,-4.0905,-4.0636,-4.0232,-4.0232,-4.0651,-4.104,-4.104,-4.0621,-4.0232,-4.0232,-3.9929,-3.961,-3.961,-4.1095,-4.2707,-4.4138,-4.4514,-4.4587,-4.4587,-4.4587,-4.4587,-4.4587,-4.4587,-4.4587,-4.4587,-4.4587,-4.4587,-4.4587,-4.4587,-4.4587,-4.4587,-4.4587,-4.4587,-4.4587,-4.4587,-4.4587,-4.4587,-4.5213,-4.5517,-4.5517,-4.6742,-4.7382,-2.5202,-2.6708,-2.8228,-2.8886,-2.9415,-2.9792,-2.9792,-2.9792,-2.9792,0.0,0.0,0.0,0.0,0.0,0.0,0.0,0.0,0.0,0.0,0.0,0.0,0.0,0.0,0.0,0.0,0.0,0.0,0.0,0.0,0.0,0.0,0.0,-3.7434,-3.7587,-3.862,0.0,-3.9177,-3.9337,-3.9424,-3.9424,-3.9424,-3.9424,-3.9424,-3.9424,-3.9424,-3.9424,-3.9424,-3.9424,-3.9424,-3.9265,-3.9265,-3.9424,-3.9265,-3.9265,-3.9424,-3.9424,-3.9484,-3.9544,-3.9544,-3.9604,-3.9679,-3.9679,-3.9679,-3.9664,-3.9574,-3.9544,-3.9544,-3.9544,-3.9544,-3.9574,-3.9664,-3.9619,-3.9544,-3.9544,-3.9619,-3.9679,-3.9679,-3.9619,-3.9544,-3.9544,-4.0051,-4.0569,-4.0569,-4.1997,-4.3185,-4.3443,-4.4138,-4.4587,-4.4587,-4.4587,-4.4587,-4.4587,-4.4587,-4.4587,-4.4587,-4.4587,-4.4587,-4.4587,-4.4587,-4.4587,-4.4587,-4.4587,-4.4587,-4.4587,-4.4587,-4.4587,-4.4587,-4.4671,-4.4722,-4.4778,-4.549,-4.6079,-2.6259,-2.7653,-2.8785,-2.9926,-3.0364,-3.0419,-2.9934,-2.9792,-2.9792,0.0,0.0,0.0,0.0,0.0,0.0,0.0,0.0,0.0,0.0,0.0,0.0,0.0,0.0,0.0,0.0,0.0,0.0,0.0,0.0,0.0,0.0,-3.7281,-3.8069,-3.8708,-3.9177,0.0,-3.9424,-3.9424,-3.9424,-3.9424,-3.9424,-3.9424,-3.9424,-3.9424,-3.9424,-3.9424,-3.9424,-3.9424,-3.9424,-3.9424,-3.9424,-3.9424,-3.9424,-3.9424,-3.9424,-3.9424,-3.9424,-3.9424,-3.9424,-3.9424,-3.9424,-3.9424,-3.9424,-3.9424,-3.9424,-3.9424,-3.9424,-3.9424,-3.9424,-3.9424,-3.9424,-3.9424,-3.9424,-3.9424,-3.9424,-3.9424,-3.9424,-3.9424,-3.9538,-4.0045,-4.0826,-4.1609,-4.2062,-4.2785,-4.3502,-4.3931,-4.4327,-4.4587,-4.4587,-4.4587,-4.4587,-4.4587,-4.4587,-4.4587,-4.4587,-4.4587,-4.4587,-4.4587,-4.4587,-4.4587,-4.4587,-4.4587,-4.4587,-4.4587,-4.4587,-4.4587,-4.4587,-4.4587,-4.4587,-4.4626,-4.5545,-4.6143,-2.6399,-2.7603,-2.8504,-3.018,-3.0652,-3.0616,0.0,0.0,0.0,0.0,0.0,0.0,0.0,0.0,0.0,0.0,0.0,0.0,0.0,0.0,0.0,0.0,0.0,0.0,0.0,0.0,0.0,0.0,0.0,0.0,-3.7753,-3.8069,-3.8473,-3.917,-3.9155,-3.9155,-3.9155,-3.9334,-3.9424,-3.9424,-3.9424,-3.9424,-3.9424,-3.9424,-3.9424,-3.9424,-3.9424,-3.9424,-3.9424,-3.9424,-3.9424,-3.9424,-3.9424,-3.9424,-3.9424,-3.9424,-3.9424,-3.9424,-3.9424,-3.9424,-3.9424,-3.9424,-3.9424,-3.9424,-3.9424,-3.9424,-3.9424,-3.9424,-3.9424,-3.9424,-3.9424,-3.9424,-3.9424,-3.9424,-3.9424,-3.9481,-3.9666,-3.9737,-3.999,-4.0894,-4.1739,-4.252,-4.3185,-4.3486,-4.3873,-4.4514,-4.4587,-4.4587,-4.4587,-4.4587,-4.4587,-4.4587,-4.4587,-4.4587,-4.4587,-4.4587,-4.4587,-4.4587,-4.4587,-4.4587,-4.4587,-4.4587,-4.4587,-4.4587,-4.4587,-4.4587,-4.4587,-4.4587,-4.4665,-4.4852,-4.5915,-4.6478,-2.4339,-2.537,-2.6722,-2.8484,-2.9107,-2.962,0.0,0.0,0.0,0.0,0.0,0.0,0.0,0.0,0.0,0.0,0.0,0.0,0.0,0.0,0.0,0.0,0.0,0.0,0.0,0.0,0.0,0.0,0.0,0.0,-3.7753,-3.8782,-3.9038,-3.8467,-3.8437,-3.8437,-3.8437,-3.9095,-3.9424,-3.9424,-3.9424,-3.9424,-3.9424,-3.9424,-3.9424,-3.9424,-3.9424,-3.9424,-3.9424,-3.9424,-3.9424,-3.9424,-3.9424,-3.9424,-3.9424,-3.9424,-3.9424,-3.9424,-3.9424,-3.9424,-3.9424,-3.9424,-3.9424,-3.9424,-3.9424,-3.9424,-3.9424,-3.9424,-3.9424,-3.9424,-3.9424,-3.9424,-3.9424,-3.9424,-3.9424,-3.961,-4.0432,-4.0622,-4.0878,-4.1739,-4.2645,-4.3246,-4.3306,-4.4006,-4.457,-4.457,-4.4587,-4.4587,-4.4587,-4.4587,-4.4587,-4.4587,-4.4587,-4.4587,-4.4587,-4.4587,-4.4587,-4.4587,-4.4587,-4.4587,-4.4587,-4.4587,-4.4587,-4.4587,-4.4587,-4.4587,-4.4587,-4.4587,-4.4906,-4.5459,-4.6094,-4.6756,-2.5387,-2.61,-2.6864,-2.8592,-2.9701,-3.0505,-3.0773,-3.0725,0.0,0.0,0.0,0.0,0.0,0.0,0.0,0.0,0.0,0.0,0.0,0.0,0.0,0.0,0.0,0.0,0.0,0.0,0.0,0.0,0.0,0.0,-3.7514,-3.7898,-3.8018,-3.7764,-3.7764,-3.7764,-3.7764,-3.8003,-3.8138,-3.8138,-3.8138,-3.8138,-3.8138,-3.8138,-3.8138,-3.8138,-3.8138,-3.8616,-3.9424,-3.9424,-3.9424,-3.9424,-3.9424,-3.9424,-3.9424,-3.9424,-3.9424,-3.9424,-3.9424,-3.9424,-3.9424,-3.9424,-3.9424,-3.9424,-3.9424,-3.9424,-3.9424,-3.9424,-3.9424,-3.9424,-3.9424,-3.9424,-3.9424,-3.9424,-3.9424,-3.9809,-4.1213,-4.1528,-4.1804,-4.2661,-4.3562,-4.4121,-4.4121,-4.4384,-4.4587,-4.4587,-4.4587,-4.4587,-4.4587,-4.4587,-4.4587,-4.4587,-4.4587,-4.4587,-4.4587,-4.4587,-4.4587,-4.4587,-4.4587,-4.4587,-4.4587,-4.4587,-4.4587,-4.4587,-4.4998,-4.5178,-4.5178,-4.5178,-4.5511,-4.6094,-4.6728,-4.7194,-2.5166,-2.5764,-2.647,-2.8732,-2.9535,-3.0064,-3.1142,0.0,0.0,0.0,0.0,0.0,0.0,0.0,0.0,0.0,0.0,0.0,0.0,0.0,0.0,0.0,0.0,0.0,0.0,0.0,0.0,0.0,0.0,0.0,-3.7336,-3.7404,-3.7315,-3.7105,-3.7105,-3.7105,-3.7105,-3.73,-3.7404,-3.7404,-3.7404,-3.7404,-3.7404,-3.7404,-3.7404,-3.7404,-3.7404,-3.7913,-3.8751,-3.8751,-3.8871,-3.9065,-3.9065,-3.9215,-3.9424,-3.9424,-3.9424,-3.9424,-3.9424,-3.9424,-3.9424,-3.9424,-3.9424,-3.9424,-3.9424,-3.9424,-3.9424,-3.9424,-3.9424,-3.9424,-3.9424,-3.9424,-3.9424,-3.9424,-3.961,-4.0255,-4.1674,-4.1997,-4.2316,-4.3486,-4.4196,-4.4587,-4.4587,-4.4587,-4.4587,-4.4587,-4.4587,-4.4587,-4.4587,-4.4587,-4.4587,-4.4587,-4.4587,-4.4587,-4.4587,-4.4587,-4.4587,-4.4587,-4.4587,-4.4587,-4.4587,-4.4587,-4.4682,-4.4906,-4.5267,-4.5699,-4.6112,-4.5933,-4.6112,-4.6756,-4.7194,-4.753,0.0,0.0,0.0,-2.8622,0.0,0.0,-3.2048,0.0,0.0,0.0,0.0,0.0,0.0,0.0,0.0,0.0,0.0,0.0,0.0,0.0,0.0,0.0,0.0,0.0,0.0,0.0,0.0,0.0,0.0,-3.7345,-3.7345,-3.7345,-3.7075,-3.6477,-3.6462,-3.6462,-3.6462,-3.7045,-3.7345,-3.7345,-3.7345,-3.7345,-3.7345,-3.7345,-3.7345,-3.7345,-3.7345,-3.7345,-3.736,-3.7389,-3.7778,-3.8362,-3.8362,-3.8781,-3.9394,-3.9394,-3.9394,-3.9424,-3.9424,-3.9424,-3.9424,-3.9424,-3.9424,-3.9424,-3.9424,-3.9424,-3.9424,-3.9424,-3.9424,-3.9424,-3.9424,-3.9424,-3.9424,-3.9409,-4.0045,-4.0946,-4.1869,-4.2062,-4.2583,-4.4253,-4.4587,-4.4587,-4.4587,-4.4587,-4.4587,-4.4587,-4.4587,-4.4587,-4.4587,-4.4587,-4.4587,-4.4587,-4.4587,-4.4587,-4.4587,-4.4587,-4.4587,-4.4587,-4.4587,-4.4587,-4.4587,-4.4626,-4.4906,-4.5511,-4.5563,-4.6161,-4.7385,-4.6756,-4.6756,-4.7428,-4.7428,-4.7756,-2.3684,0.0,0.0,0.0,0.0,0.0,0.0,0.0,0.0,0.0,0.0,0.0,0.0,0.0,0.0,0.0,0.0,0.0,0.0,0.0,0.0,0.0,0.0,0.0,0.0,0.0,0.0,0.0,0.0,-3.6028,-3.6028,-3.6028,-3.5953,-3.5789,-3.5774,-3.5774,-3.5774,-3.5953,-3.6028,-3.6028,-3.6028,-3.6028,-3.6028,-3.6028,-3.6028,-3.6028,-3.6028,-3.6028,-3.6103,-3.703,-3.7524,-3.7689,-3.7689,-3.8093,-3.8676,-3.8676,-3.899,-3.9424,-3.9424,-3.9424,-3.9424,-3.9424,-3.9424,-3.9424,-3.9424,-3.9424,-3.9424,-3.9424,-3.9424,-3.9424,-3.9424,-3.9424,-3.9538,-4.017,-4.05,-4.108,-4.2583,-4.2909,-4.329,-4.4384,-4.4587,-4.4587,-4.4587,-4.4587,-4.4587,-4.4587,-4.4587,-4.4587,-4.4587,-4.4587,-4.4587,-4.4587,-4.4587,-4.4587,-4.4587,-4.4587,-4.4587,-4.4587,-4.4587,-4.4587,-4.4587,-4.4998,-4.532,-4.5511,-4.6401,-4.7062,-4.7385,-4.7194,-4.7428,-4.8035,-4.8035,-4.8132,-2.4537,-2.4732,-2.5241,-2.6078,0.0,0.0,0.0,-2.8843,0.0,0.0,0.0,0.0,0.0,0.0,0.0,0.0,0.0,0.0,0.0,0.0,0.0,0.0,0.0,0.0,0.0,0.0,0.0,0.0,-3.5504,-3.5504,-3.5504,-3.5504,-3.5504,-3.5504,-3.5504,-3.5504,-3.5504,-3.5504,-3.5504,-3.5504,-3.5504,-3.5504,-3.5504,-3.5504,-3.5504,-3.5504,-3.5504,-3.5504,-3.5564,-3.6312,-3.6776,-3.703,-3.703,-3.7419,-3.7973,-3.7973,-3.8242,-3.8586,-3.8586,-3.8586,-3.8586,-3.8586,-3.8586,-3.8586,-3.8586,-3.8586,-3.8586,-3.8586,-3.8586,-3.8586,-3.8586,-3.8837,-3.9169,-3.972,-4.035,-4.1181,-4.2523,-4.3098,-4.3564,-4.4446,-4.4587,-4.4587,-4.4587,-4.4587,-4.4587,-4.4587,-4.4587,-4.4587,-4.4587,-4.4587,-4.4587,-4.4587,-4.4587,-4.4587,-4.4587,-4.4587,-4.4587,-4.4587,-4.4587,-4.472,-4.4961,-4.532,-4.5732,-4.6305,-4.7017,-4.7512,-4.7756,-4.7756,-4.7937,-4.8306,-4.8306,-4.8306,-2.5869,-2.5884,-2.6333,-2.7964,-2.7156,0.0,-2.934,-2.9146,0.0,0.0,0.0,0.0,0.0,0.0,0.0,0.0,0.0,0.0,0.0,0.0,0.0,0.0,0.0,0.0,0.0,0.0,0.0,-3.5504,-3.5504,-3.5504,-3.5504,-3.5504,-3.5504,-3.5504,-3.5504,-3.5504,-3.5504,-3.5504,-3.5504,-3.5504,-3.5504,-3.5504,-3.5504,-3.5504,-3.5504,-3.5504,-3.5504,-3.5504,-3.5504,-3.5504,-3.5848,-3.6372,-3.6372,-3.6761,-3.73,-3.73,-3.7345,-3.7404,-3.7404,-3.7404,-3.7404,-3.7404,-3.7404,-3.7404,-3.7404,-3.7404,-3.7404,-3.7404,-3.7404,-3.7404,-3.7541,-3.805,-3.8627,-3.8789,-3.9946,-4.1206,-4.2072,-4.2752,-4.3504,-4.4198,-4.4451,-4.4587,-4.4587,-4.4587,-4.4587,-4.4587,-4.4587,-4.4587,-4.4587,-4.4587,-4.4587,-4.4587,-4.4587,-4.4587,-4.4587,-4.4587,-4.4587,-4.4587,-4.4587,-4.4852,-4.5459,-4.5545,-4.6161,-4.7385,-4.7488,-4.7756,-4.8306,-4.8306,-4.8306,-4.8306,-4.8306,-4.8306,-2.7485,-2.759,-2.7844,-2.7156,-2.7515,0.0,-2.6797,-2.6782,0.0,0.0,0.0,0.0,0.0,0.0,0.0,0.0,0.0,0.0,0.0,0.0,0.0,0.0,0.0,0.0,0.0,0.0,-3.5504,-3.5504,-3.5504,-3.5504,-3.5504,-3.5504,-3.5504,-3.5504,-3.5504,-3.5504,-3.5504,-3.5504,-3.5504,-3.5504,-3.5504,-3.5504,-3.5504,-3.5504,-3.5504,-3.5504,-3.5504,-3.5504,-3.5504,-3.5504,-3.5579,-3.5699,-3.5699,-3.6088,-3.6671,-3.6671,-3.6985,-3.7404,-3.7404,-3.7404,-3.7404,-3.7404,-3.7404,-3.7404,-3.7404,-3.7404,-3.7404,-3.7404,-3.7404,-3.7541,-3.8183,-3.8496,-3.8918,-4.0248,-4.0778,-4.1246,-4.2114,-4.2382,-4.2557,-4.2709,-4.3741,-4.4587,-4.4587,-4.4587,-4.4587,-4.4587,-4.4587,-4.4587,-4.4587,-4.4587,-4.4587,-4.4587,-4.4587,-4.4587,-4.4587,-4.4587,-4.4587,-4.4587,-4.4587,-4.4852,-4.5459,-4.5965,-4.6571,-4.7385,-4.7897,-4.8172,-4.8306,-4.8306,-4.8306,-4.8306,-4.8306,-4.8306,-2.8936,-2.8831,-2.9011,-2.8637,0.0,0.0,0.0,0.0,-2.6961,0.0,0.0,0.0,0.0,0.0,0.0,0.0,0.0,0.0,0.0,0.0,0.0,0.0,0.0,0.0,0.0,0.0,-3.5504,-3.5504,-3.5504,-3.5504,-3.5504,-3.5504,-3.5504,-3.5504,-3.5504,-3.5504,-3.5504,-3.5504,-3.5504,-3.5504,-3.5504,-3.5504,-3.5504,-3.5504,-3.5504,-3.5504,-3.5504,-3.5504,-3.5504,-3.5504,-3.5504,-3.5504,-3.5504,-3.5714,-3.5998,-3.5998,-3.6193,-3.6462,-3.6462,-3.6462,-3.6462,-3.6462,-3.6462,-3.6462,-3.6462,-3.6462,-3.6462,-3.6462,-3.6462,-3.6528,-3.696,-3.7606,-3.8381,-3.9198,-4.0012,-4.0762,-4.1555,-4.1745,-4.1863,-4.2219,-4.2912,-4.3555,-4.3944,-4.3995,-4.413,-4.4519,-4.4587,-4.4587,-4.4587,-4.4587,-4.4587,-4.4587,-4.4587,-4.4587,-4.4587,-4.4587,-4.4587,-4.4587,-4.4852,-4.532,-4.5915,-4.6571,-4.7194,-4.7856,-4.8172,-4.8306,-4.8306,-4.8306,-4.8306,-4.8306,-4.8306,-4.8306,-3.0657,-3.0342,-3.0357,0.0,0.0,-2.8607,0.0,0.0,0.0,-2.8562,0.0,0.0,0.0,0.0,0.0,0.0,0.0,0.0,0.0,0.0,0.0,0.0,0.0,0.0,0.0,0.0,-3.522,-3.5489,-3.5265,-3.5235,-3.5489,-3.5504,-3.5504,-3.5504,-3.5504,-3.5504,-3.5504,-3.5504,-3.5504,-3.5504,-3.5504,-3.5504,-3.5504,-3.5504,-3.5504,-3.5504,-3.5504,-3.5504,-3.5504,-3.5504,-3.5504,-3.5504,-3.5504,-3.5504,-3.5504,-3.5504,-3.5504,-3.5504,-3.5504,-3.5504,-3.5504,-3.5504,-3.5504,-3.5504,-3.5504,-3.5504,-3.5504,-3.5504,-3.5504,-3.5569,-3.5861,-3.689,-3.7863,-3.8149,-3.9172,-4.024,-4.0849,-4.0984,-4.1153,-4.1745,-4.1863,-4.2151,-4.3047,-4.32,-4.342,-4.4045,-4.4147,-4.4198,-4.4333,-4.435,-4.4418,-4.4553,-4.4587,-4.4519,-4.4367,-4.4485,-4.4558,-4.4555,-4.5146,-4.5833,-4.6571,-4.7237,-4.7797,-4.8306,-4.8306,-4.8233,-4.8086,-4.8086,-4.8159,-4.8306,-4.8306,-4.8306,0.0,0.0,0.0,0.0,-3.124,0.0,0.0,0.0,-2.7934,-2.6378,0.0,0.0,0.0,0.0,0.0,0.0,0.0,0.0,0.0,0.0,0.0,0.0,0.0,0.0,0.0,0.0,0.0,-3.5415,-3.4397,-3.4247,-3.5444,-3.5504,-3.5504,-3.5504,-3.5504,-3.5504,-3.5504,-3.5504,-3.5504,-3.5504,-3.5504,-3.5504,-3.5504,-3.5504,-3.5504,-3.5504,-3.5504,-3.5504,-3.5504,-3.5504,-3.5504,-3.5504,-3.5504,-3.5504,-3.5504,-3.5504,-3.5504,-3.5504,-3.5504,-3.5504,-3.5504,-3.5504,-3.5504,-3.5504,-3.5504,-3.5504,-3.5504,-3.5504,-3.5504,-3.5797,-3.7175,-3.7648,-3.8149,-3.9506,-3.9969,-4.0104,-4.0189,-4.0206,-4.0223,-4.0307,-4.0324,-4.0781,-4.2185,-4.2422,-4.2455,-4.254,-4.2557,-4.2794,-4.3453,-4.3555,-4.3809,-4.4502,-4.4587,-4.4299,-4.3606,-4.4181,-4.4524,-4.4439,-4.5079,-4.6032,-4.7255,-4.7879,-4.821,-4.8306,-4.8306,-4.7957,-4.726,-4.726,-4.7609,-4.8306,-4.8306,-4.8306,0.0,0.0,0.0,0.0,0.0,0.0,-2.8786,0.0,-2.7874,0.0,0.0,0.0,0.0,0.0,0.0,0.0,0.0,0.0,0.0,0.0,0.0,0.0,0.0,0.0,0.0,0.0,0.0,0.0,0.0,-3.3514,-3.4846,-3.5295,-3.5504,-3.5504,-3.5504,-3.5504,-3.5504,-3.5504,-3.5504,-3.5504,-3.5504,-3.5504,-3.5504,-3.5504,-3.5504,-3.5504,-3.5504,-3.5504,-3.5504,-3.5504,-3.5504,-3.5504,-3.5504,-3.5504,-3.5504,-3.5504,-3.5504,-3.5504,-3.5504,-3.5504,-3.5504,-3.5504,-3.5504,-3.5504,-3.5504,-3.5504,-3.5504,-3.5504,-3.5814,-3.6307,-3.6937,-3.7754,-3.86,-3.9226,-3.9782,-4.007,-4.007,-4.007,-4.007,-4.007,-4.007,-4.0273,-4.0899,-4.1373,-4.1813,-4.2236,-4.2286,-4.2405,-4.2726,-4.276,-4.2895,-4.3217,-4.325,-4.3115,-4.2794,-4.3405,-4.3735,-4.3694,-4.507,-4.6292,-4.7204,-4.7476,-4.7609,-4.7609,-4.715,-4.6746,-4.6416,-4.6416,-4.6581,-4.6911,-4.6911,-4.6911,-3.4173,0.0,0.0,0.0,0.0,0.0,0.0,0.0,0.0,0.0,0.0,0.0,0.0,0.0,-2.6303,-2.5929,0.0,0.0,0.0,0.0,0.0,0.0,0.0,0.0,0.0,0.0,0.0,0.0,0.0,0.0,-3.4382,-3.4951,-3.531,-3.5489,-3.5504,-3.5504,-3.5504,-3.5504,-3.5504,-3.5504,-3.5504,-3.5504,-3.5504,-3.5504,-3.5504,-3.5504,-3.5504,-3.5504,-3.5504,-3.5504,-3.5504,-3.5504,-3.5504,-3.5504,-3.5504,-3.5504,-3.5504,-3.5504,-3.5504,-3.5504,-3.5504,-3.5504,-3.5504,-3.5504,-3.5504,-3.5504,-3.5534,-3.5719,-3.617,-3.6709,-3.7155,-3.8078,-3.8979,-3.9152,-3.9662,-4.007,-4.007,-4.007,-4.007,-4.007,-4.007,-4.007,-4.007,-4.0527,-4.1068,-4.161,-4.1677,-4.1762,-4.1965,-4.1999,-4.2066,-4.2269,-4.2428,-4.2448,-4.2244,-4.2973,-4.3498,-4.3687,-4.5208,-4.6288,-4.6745,-4.7003,-4.7021,-4.6783,-4.6416,-4.6012,-4.5571,-4.5571,-4.5461,-4.5241,-4.5681,-4.5902,0.0,0.0,0.0,-3.2213,0.0,0.0,0.0,0.0,-2.934,0.0,0.0,0.0,0.0,-2.8966,-2.8083,-2.6767,-2.6572,0.0,0.0,0.0,0.0,0.0,0.0,0.0,0.0,0.0,0.0,0.0,0.0,0.0,-3.4307,-3.4502,-3.4816,-3.5489,-3.5504,-3.5504,-3.5504,-3.5504,-3.5504,-3.5504,-3.5504,-3.5504,-3.5504,-3.5504,-3.5504,-3.5504,-3.5504,-3.5504,-3.5504,-3.5504,-3.5504,-3.5504,-3.5504,-3.5504,-3.5504,-3.5504,-3.5504,-3.5504,-3.5504,-3.5504,-3.5504,-3.5504,-3.5504,-3.5504,-3.5504,-3.5504,-3.5659,-3.634,-3.6607,-3.6963,-3.8424,-3.8892,-3.9121,-3.9865,-4.007,-4.007,-4.007,-4.007,-4.007,-4.007,-4.007,-4.007,-4.007,-4.0104,-4.0121,-4.0155,-4.0155,-4.0409,-4.1136,-4.1238,-4.1508,-4.2219,-4.2809,-4.2898,-4.2189,-4.3249,-4.4245,-4.488,-4.5567,-4.5938,-4.5938,-4.6709,-4.6746,-4.5957,-4.6691,-4.6305,-4.4745,-4.4745,-4.4342,-4.3608,-4.5168,-4.5902,0.0,0.0,-3.507,-3.3275,0.0,0.0,0.0,0.0,0.0,0.0,0.0,0.0,0.0,-2.9041,-2.8308,-2.7395,-2.6871,-2.6138,0.0,0.0,0.0,0.0,0.0,0.0,0.0,0.0,0.0,0.0,0.0,0.0,0.0,-3.4008,-3.4577,-3.4816,-3.5265,-3.5504,-3.5504,-3.5504,-3.5504,-3.5504,-3.5504,-3.5504,-3.5504,-3.5504,-3.5504,-3.5504,-3.5504,-3.5504,-3.5504,-3.5504,-3.5504,-3.5504,-3.5504,-3.5504,-3.5504,-3.5504,-3.5504,-3.5504,-3.5504,-3.5504,-3.5504,-3.5504,-3.5504,-3.5504,-3.5504,-3.5831,-3.6272,-3.6535,-3.7312,-3.8261,-3.8776,-3.9286,-3.9776,-4.0054,-4.007,-4.007,-4.007,-4.007,-4.007,-4.007,-4.007,-4.007,-4.007,-4.007,-4.007,-4.007,-4.007,-4.0172,-4.0426,-4.046,-4.0561,-4.0798,-4.1349,-4.1596,-4.1336,-4.2448,-4.339,-4.3962,-4.4693,-4.5112,-4.5112,-4.5369,-4.5388,-4.5112,-4.4856,-4.4452,-4.3901,-4.3901,-4.3754,-4.3497,-4.4048,-4.4305,-3.5504,-3.5504,0.0,0.0,-3.2856,0.0,-3.0268,0.0,0.0,0.0,0.0,0.0,0.0,-3.0043,-2.8981,-2.8083,-2.7171,-2.6048,0.0,-2.4253,0.0,0.0,0.0,0.0,0.0,0.0,-2.7275,-2.9101,0.0,0.0,0.0,0.0,-3.3649,-3.4113,-3.4786,-3.513,-3.513,-3.5385,-3.5504,-3.5504,-3.5504,-3.5504,-3.5504,-3.5504,-3.5504,-3.5504,-3.5504,-3.5504,-3.5504,-3.5504,-3.5504,-3.5504,-3.5504,-3.5504,-3.5504,-3.5504,-3.5504,-3.5504,-3.5504,-3.5504,-3.5504,-3.5504,-3.5504,-3.5504,-3.5504,-3.5831,-3.6352,-3.6847,-3.7731,-3.8647,-3.9184,-3.9704,-4.007,-4.007,-4.007,-4.007,-4.007,-4.007,-4.007,-4.007,-4.007,-4.007,-4.007,-4.007,-4.007,-4.007,-4.007,-4.007,-4.007,-4.007,-4.007,-4.007,-4.0577,-4.1087,-4.149,-4.2404,-4.3124,-4.3479,-4.3993,-4.4268,-4.4268,-4.4562,-4.458,-4.4287,-4.4048,-4.3791,-4.3497,-4.3497,-4.3497,-4.3497,-4.3497,-4.3497]}]]